<?xml version="1.0" encoding="UTF-8" standalone="no" ?><gpx xmlns="http://www.topografix.com/GPX/1/1" xmlns:gpxx="http://www.garmin.com/xmlschemas/GpxExtensions/v3" xmlns:wptx1="http://www.garmin.com/xmlschemas/WaypointExtension/v1" xmlns:gpxtpx="http://www.garmin.com/xmlschemas/TrackPointExtension/v1" creator="GuideVTT.com" version="1.1" xmlns:xsi="http://www.w3.org/2001/XMLSchema-instance" xsi:schemaLocation="http://www.topografix.com/GPX/1/1 http://www.topografix.com/GPX/1/1/gpx.xsd http://www.garmin.com/xmlschemas/GpxExtensions/v3 http://www8.garmin.com/xmlschemas/GpxExtensionsv3.xsd http://www.garmin.com/xmlschemas/WaypointExtension/v1 http://www8.garmin.com/xmlschemas/WaypointExtensionv1.xsd http://www.garmin.com/xmlschemas/TrackPointExtension/v1 http://www.garmin.com/xmlschemas/TrackPointExtensionv1.xsd">
<metadata><link href="http://www.garmin.com"><text>Garmin International</text></link><time>2013-06-22T15:13:50Z</time></metadata>
<trk><name>2015-10-22-01-data.gpx</name><extensions><gpxx:TrackExtension><gpxx:DisplayColor>Cyan</gpxx:DisplayColor></gpxx:TrackExtension></extensions><trkseg>
<trkpt lat="48.496666" lon="2.634556"><ele></ele><time>2017-9-18T17:51:13Z</time></trkpt>
<trkpt lat="48.496687" lon="2.634568"><ele></ele><time>2017-9-18T17:51:16Z</time></trkpt>
<trkpt lat="48.496643" lon="2.634687"><ele></ele><time>2017-9-18T17:51:19Z</time></trkpt>
<trkpt lat="48.496632" lon="2.63483"><ele></ele><time>2017-9-18T17:51:22Z</time></trkpt>
<trkpt lat="48.496563" lon="2.634966"><ele></ele><time>2017-9-18T17:51:25Z</time></trkpt>
<trkpt lat="48.49646" lon="2.63505"><ele></ele><time>2017-9-18T17:51:28Z</time></trkpt>
<trkpt lat="48.496357" lon="2.635111"><ele></ele><time>2017-9-18T17:51:31Z</time></trkpt>
<trkpt lat="48.496281" lon="2.635199"><ele></ele><time>2017-9-18T17:51:34Z</time></trkpt>
<trkpt lat="48.496217" lon="2.6353"><ele></ele><time>2017-9-18T17:51:37Z</time></trkpt>
<trkpt lat="48.496146" lon="2.635396"><ele></ele><time>2017-9-18T17:51:40Z</time></trkpt>
<trkpt lat="48.496044" lon="2.635497"><ele></ele><time>2017-9-18T17:51:43Z</time></trkpt>
<trkpt lat="48.495961" lon="2.635605"><ele></ele><time>2017-9-18T17:51:46Z</time></trkpt>
<trkpt lat="48.495862" lon="2.63572"><ele></ele><time>2017-9-18T17:51:49Z</time></trkpt>
<trkpt lat="48.495793" lon="2.635841"><ele></ele><time>2017-9-18T17:51:52Z</time></trkpt>
<trkpt lat="48.495717" lon="2.63593"><ele></ele><time>2017-9-18T17:51:55Z</time></trkpt>
<trkpt lat="48.49562" lon="2.636063"><ele></ele><time>2017-9-18T17:51:58Z</time></trkpt>
<trkpt lat="48.495551" lon="2.636154"><ele></ele><time>2017-9-18T17:52:1Z</time></trkpt>
<trkpt lat="48.495473" lon="2.63624"><ele></ele><time>2017-9-18T17:52:4Z</time></trkpt>
<trkpt lat="48.495395" lon="2.636325"><ele></ele><time>2017-9-18T17:52:7Z</time></trkpt>
<trkpt lat="48.495326" lon="2.636415"><ele></ele><time>2017-9-18T17:52:10Z</time></trkpt>
<trkpt lat="48.495255" lon="2.636503"><ele></ele><time>2017-9-18T17:52:13Z</time></trkpt>
<trkpt lat="48.495155" lon="2.636636"><ele></ele><time>2017-9-18T17:52:16Z</time></trkpt>
<trkpt lat="48.495084" lon="2.63673"><ele></ele><time>2017-9-18T17:52:19Z</time></trkpt>
<trkpt lat="48.495006" lon="2.636823"><ele></ele><time>2017-9-18T17:52:22Z</time></trkpt>
<trkpt lat="48.494936" lon="2.636921"><ele></ele><time>2017-9-18T17:52:25Z</time></trkpt>
<trkpt lat="48.494864" lon="2.637032"><ele></ele><time>2017-9-18T17:52:28Z</time></trkpt>
<trkpt lat="48.494792" lon="2.637127"><ele></ele><time>2017-9-18T17:52:31Z</time></trkpt>
<trkpt lat="48.494719" lon="2.637221"><ele></ele><time>2017-9-18T17:52:34Z</time></trkpt>
<trkpt lat="48.494635" lon="2.637315"><ele></ele><time>2017-9-18T17:52:37Z</time></trkpt>
<trkpt lat="48.494554" lon="2.637407"><ele></ele><time>2017-9-18T17:52:40Z</time></trkpt>
<trkpt lat="48.494477" lon="2.637503"><ele></ele><time>2017-9-18T17:52:43Z</time></trkpt>
<trkpt lat="48.494402" lon="2.637598"><ele></ele><time>2017-9-18T17:52:46Z</time></trkpt>
<trkpt lat="48.494323" lon="2.637694"><ele></ele><time>2017-9-18T17:52:49Z</time></trkpt>
<trkpt lat="48.494248" lon="2.637785"><ele></ele><time>2017-9-18T17:52:52Z</time></trkpt>
<trkpt lat="48.494176" lon="2.637885"><ele></ele><time>2017-9-18T17:52:55Z</time></trkpt>
<trkpt lat="48.494104" lon="2.637973"><ele></ele><time>2017-9-18T17:52:58Z</time></trkpt>
<trkpt lat="48.494031" lon="2.638072"><ele></ele><time>2017-9-18T17:53:1Z</time></trkpt>
<trkpt lat="48.493957" lon="2.63816"><ele></ele><time>2017-9-18T17:53:4Z</time></trkpt>
<trkpt lat="48.493877" lon="2.638249"><ele></ele><time>2017-9-18T17:53:7Z</time></trkpt>
<trkpt lat="48.493803" lon="2.638341"><ele></ele><time>2017-9-18T17:53:10Z</time></trkpt>
<trkpt lat="48.493732" lon="2.638435"><ele></ele><time>2017-9-18T17:53:13Z</time></trkpt>
<trkpt lat="48.493658" lon="2.638528"><ele></ele><time>2017-9-18T17:53:16Z</time></trkpt>
<trkpt lat="48.493587" lon="2.638617"><ele></ele><time>2017-9-18T17:53:19Z</time></trkpt>
<trkpt lat="48.493514" lon="2.638703"><ele></ele><time>2017-9-18T17:53:22Z</time></trkpt>
<trkpt lat="48.493438" lon="2.638785"><ele></ele><time>2017-9-18T17:53:25Z</time></trkpt>
<trkpt lat="48.493331" lon="2.638932"><ele></ele><time>2017-9-18T17:53:28Z</time></trkpt>
<trkpt lat="48.493237" lon="2.639055"><ele></ele><time>2017-9-18T17:53:31Z</time></trkpt>
<trkpt lat="48.493157" lon="2.639189"><ele></ele><time>2017-9-18T17:53:34Z</time></trkpt>
<trkpt lat="48.493084" lon="2.639277"><ele></ele><time>2017-9-18T17:53:37Z</time></trkpt>
<trkpt lat="48.492989" lon="2.639393"><ele></ele><time>2017-9-18T17:53:40Z</time></trkpt>
<trkpt lat="48.492878" lon="2.639394"><ele></ele><time>2017-9-18T17:53:43Z</time></trkpt>
<trkpt lat="48.49277" lon="2.639518"><ele></ele><time>2017-9-18T17:53:46Z</time></trkpt>
<trkpt lat="48.492684" lon="2.63962"><ele></ele><time>2017-9-18T17:53:49Z</time></trkpt>
<trkpt lat="48.492611" lon="2.6397"><ele></ele><time>2017-9-18T17:53:52Z</time></trkpt>
<trkpt lat="48.492561" lon="2.639816"><ele></ele><time>2017-9-18T17:53:55Z</time></trkpt>
<trkpt lat="48.492501" lon="2.639924"><ele></ele><time>2017-9-18T17:53:58Z</time></trkpt>
<trkpt lat="48.492352" lon="2.640081"><ele></ele><time>2017-9-18T17:54:1Z</time></trkpt>
<trkpt lat="48.492251" lon="2.640251"><ele></ele><time>2017-9-18T17:54:4Z</time></trkpt>
<trkpt lat="48.492166" lon="2.640349"><ele></ele><time>2017-9-18T17:54:7Z</time></trkpt>
<trkpt lat="48.492086" lon="2.640481"><ele></ele><time>2017-9-18T17:54:10Z</time></trkpt>
<trkpt lat="48.491962" lon="2.640623"><ele></ele><time>2017-9-18T17:54:13Z</time></trkpt>
<trkpt lat="48.491855" lon="2.640727"><ele></ele><time>2017-9-18T17:54:16Z</time></trkpt>
<trkpt lat="48.491779" lon="2.640827"><ele></ele><time>2017-9-18T17:54:19Z</time></trkpt>
<trkpt lat="48.491702" lon="2.640926"><ele></ele><time>2017-9-18T17:54:22Z</time></trkpt>
<trkpt lat="48.49162" lon="2.641035"><ele></ele><time>2017-9-18T17:54:25Z</time></trkpt>
<trkpt lat="48.491512" lon="2.641185"><ele></ele><time>2017-9-18T17:54:28Z</time></trkpt>
<trkpt lat="48.491421" lon="2.641295"><ele></ele><time>2017-9-18T17:54:31Z</time></trkpt>
<trkpt lat="48.491335" lon="2.641416"><ele></ele><time>2017-9-18T17:54:34Z</time></trkpt>
<trkpt lat="48.491256" lon="2.641515"><ele></ele><time>2017-9-18T17:54:37Z</time></trkpt>
<trkpt lat="48.491194" lon="2.641617"><ele></ele><time>2017-9-18T17:54:40Z</time></trkpt>
<trkpt lat="48.491101" lon="2.641688"><ele></ele><time>2017-9-18T17:54:43Z</time></trkpt>
<trkpt lat="48.491002" lon="2.641758"><ele></ele><time>2017-9-18T17:54:46Z</time></trkpt>
<trkpt lat="48.49092" lon="2.641841"><ele></ele><time>2017-9-18T17:54:49Z</time></trkpt>
<trkpt lat="48.490835" lon="2.641985"><ele></ele><time>2017-9-18T17:54:52Z</time></trkpt>
<trkpt lat="48.49075" lon="2.642107"><ele></ele><time>2017-9-18T17:54:55Z</time></trkpt>
<trkpt lat="48.490672" lon="2.642228"><ele></ele><time>2017-9-18T17:54:58Z</time></trkpt>
<trkpt lat="48.490586" lon="2.642323"><ele></ele><time>2017-9-18T17:55:1Z</time></trkpt>
<trkpt lat="48.490408" lon="2.642509"><ele></ele><time>2017-9-18T17:55:4Z</time></trkpt>
<trkpt lat="48.490322" lon="2.642628"><ele></ele><time>2017-9-18T17:55:7Z</time></trkpt>
<trkpt lat="48.490246" lon="2.642709"><ele></ele><time>2017-9-18T17:55:10Z</time></trkpt>
<trkpt lat="48.490256" lon="2.64285"><ele></ele><time>2017-9-18T17:55:13Z</time></trkpt>
<trkpt lat="48.490157" lon="2.642907"><ele></ele><time>2017-9-18T17:55:16Z</time></trkpt>
<trkpt lat="48.48998" lon="2.643098"><ele></ele><time>2017-9-18T17:55:19Z</time></trkpt>
<trkpt lat="48.489886" lon="2.643191"><ele></ele><time>2017-9-18T17:55:22Z</time></trkpt>
<trkpt lat="48.489823" lon="2.643292"><ele></ele><time>2017-9-18T17:55:25Z</time></trkpt>
<trkpt lat="48.489753" lon="2.643385"><ele></ele><time>2017-9-18T17:55:28Z</time></trkpt>
<trkpt lat="48.489671" lon="2.643474"><ele></ele><time>2017-9-18T17:55:31Z</time></trkpt>
<trkpt lat="48.489596" lon="2.643613"><ele></ele><time>2017-9-18T17:55:34Z</time></trkpt>
<trkpt lat="48.489553" lon="2.643771"><ele></ele><time>2017-9-18T17:55:37Z</time></trkpt>
<trkpt lat="48.489518" lon="2.643962"><ele></ele><time>2017-9-18T17:55:40Z</time></trkpt>
<trkpt lat="48.489472" lon="2.644166"><ele></ele><time>2017-9-18T17:55:43Z</time></trkpt>
<trkpt lat="48.489453" lon="2.644339"><ele></ele><time>2017-9-18T17:55:46Z</time></trkpt>
<trkpt lat="48.489405" lon="2.644562"><ele></ele><time>2017-9-18T17:55:49Z</time></trkpt>
<trkpt lat="48.489368" lon="2.644714"><ele></ele><time>2017-9-18T17:55:52Z</time></trkpt>
<trkpt lat="48.489323" lon="2.644863"><ele></ele><time>2017-9-18T17:55:55Z</time></trkpt>
<trkpt lat="48.489247" lon="2.64507"><ele></ele><time>2017-9-18T17:55:58Z</time></trkpt>
<trkpt lat="48.489212" lon="2.645235"><ele></ele><time>2017-9-18T17:56:1Z</time></trkpt>
<trkpt lat="48.489189" lon="2.645381"><ele></ele><time>2017-9-18T17:56:4Z</time></trkpt>
<trkpt lat="48.489149" lon="2.645533"><ele></ele><time>2017-9-18T17:56:7Z</time></trkpt>
<trkpt lat="48.489112" lon="2.645696"><ele></ele><time>2017-9-18T17:56:10Z</time></trkpt>
<trkpt lat="48.489087" lon="2.645842"><ele></ele><time>2017-9-18T17:56:13Z</time></trkpt>
<trkpt lat="48.489057" lon="2.645996"><ele></ele><time>2017-9-18T17:56:16Z</time></trkpt>
<trkpt lat="48.489028" lon="2.646149"><ele></ele><time>2017-9-18T17:56:19Z</time></trkpt>
<trkpt lat="48.488968" lon="2.646308"><ele></ele><time>2017-9-18T17:56:22Z</time></trkpt>
<trkpt lat="48.488926" lon="2.646467"><ele></ele><time>2017-9-18T17:56:25Z</time></trkpt>
<trkpt lat="48.488882" lon="2.646632"><ele></ele><time>2017-9-18T17:56:28Z</time></trkpt>
<trkpt lat="48.488749" lon="2.646886"><ele></ele><time>2017-9-18T17:56:31Z</time></trkpt>
<trkpt lat="48.488662" lon="2.647052"><ele></ele><time>2017-9-18T17:56:34Z</time></trkpt>
<trkpt lat="48.48859" lon="2.647179"><ele></ele><time>2017-9-18T17:56:37Z</time></trkpt>
<trkpt lat="48.488522" lon="2.64729"><ele></ele><time>2017-9-18T17:56:40Z</time></trkpt>
<trkpt lat="48.488468" lon="2.647412"><ele></ele><time>2017-9-18T17:56:43Z</time></trkpt>
<trkpt lat="48.488397" lon="2.647574"><ele></ele><time>2017-9-18T17:56:46Z</time></trkpt>
<trkpt lat="48.488293" lon="2.647744"><ele></ele><time>2017-9-18T17:56:49Z</time></trkpt>
<trkpt lat="48.488223" lon="2.647873"><ele></ele><time>2017-9-18T17:56:52Z</time></trkpt>
<trkpt lat="48.488175" lon="2.648002"><ele></ele><time>2017-9-18T17:56:55Z</time></trkpt>
<trkpt lat="48.488112" lon="2.648127"><ele></ele><time>2017-9-18T17:56:58Z</time></trkpt>
<trkpt lat="48.488045" lon="2.648286"><ele></ele><time>2017-9-18T17:57:1Z</time></trkpt>
<trkpt lat="48.487992" lon="2.6484"><ele></ele><time>2017-9-18T17:57:4Z</time></trkpt>
<trkpt lat="48.487911" lon="2.648546"><ele></ele><time>2017-9-18T17:57:7Z</time></trkpt>
<trkpt lat="48.487844" lon="2.648687"><ele></ele><time>2017-9-18T17:57:10Z</time></trkpt>
<trkpt lat="48.487797" lon="2.648807"><ele></ele><time>2017-9-18T17:57:13Z</time></trkpt>
<trkpt lat="48.487742" lon="2.648936"><ele></ele><time>2017-9-18T17:57:16Z</time></trkpt>
<trkpt lat="48.487658" lon="2.649087"><ele></ele><time>2017-9-18T17:57:19Z</time></trkpt>
<trkpt lat="48.48759" lon="2.649229"><ele></ele><time>2017-9-18T17:57:22Z</time></trkpt>
<trkpt lat="48.487526" lon="2.649361"><ele></ele><time>2017-9-18T17:57:25Z</time></trkpt>
<trkpt lat="48.487437" lon="2.649494"><ele></ele><time>2017-9-18T17:57:28Z</time></trkpt>
<trkpt lat="48.487357" lon="2.649639"><ele></ele><time>2017-9-18T17:57:31Z</time></trkpt>
<trkpt lat="48.487297" lon="2.649751"><ele></ele><time>2017-9-18T17:57:34Z</time></trkpt>
<trkpt lat="48.487242" lon="2.649877"><ele></ele><time>2017-9-18T17:57:37Z</time></trkpt>
<trkpt lat="48.487158" lon="2.650025"><ele></ele><time>2017-9-18T17:57:40Z</time></trkpt>
<trkpt lat="48.487085" lon="2.65021"><ele></ele><time>2017-9-18T17:57:43Z</time></trkpt>
<trkpt lat="48.487003" lon="2.650353"><ele></ele><time>2017-9-18T17:57:46Z</time></trkpt>
<trkpt lat="48.486923" lon="2.650522"><ele></ele><time>2017-9-18T17:57:49Z</time></trkpt>
<trkpt lat="48.486774" lon="2.65081"><ele></ele><time>2017-9-18T17:57:52Z</time></trkpt>
<trkpt lat="48.486707" lon="2.650969"><ele></ele><time>2017-9-18T17:57:55Z</time></trkpt>
<trkpt lat="48.486645" lon="2.651122"><ele></ele><time>2017-9-18T17:57:58Z</time></trkpt>
<trkpt lat="48.486589" lon="2.651235"><ele></ele><time>2017-9-18T17:58:1Z</time></trkpt>
<trkpt lat="48.486526" lon="2.651341"><ele></ele><time>2017-9-18T17:58:4Z</time></trkpt>
<trkpt lat="48.486446" lon="2.651504"><ele></ele><time>2017-9-18T17:58:7Z</time></trkpt>
<trkpt lat="48.48638" lon="2.65163"><ele></ele><time>2017-9-18T17:58:10Z</time></trkpt>
<trkpt lat="48.486324" lon="2.651745"><ele></ele><time>2017-9-18T17:58:13Z</time></trkpt>
<trkpt lat="48.486248" lon="2.651894"><ele></ele><time>2017-9-18T17:58:16Z</time></trkpt>
<trkpt lat="48.486169" lon="2.652056"><ele></ele><time>2017-9-18T17:58:19Z</time></trkpt>
<trkpt lat="48.486112" lon="2.652227"><ele></ele><time>2017-9-18T17:58:22Z</time></trkpt>
<trkpt lat="48.486044" lon="2.652359"><ele></ele><time>2017-9-18T17:58:25Z</time></trkpt>
<trkpt lat="48.485985" lon="2.652485"><ele></ele><time>2017-9-18T17:58:28Z</time></trkpt>
<trkpt lat="48.485929" lon="2.652598"><ele></ele><time>2017-9-18T17:58:31Z</time></trkpt>
<trkpt lat="48.485865" lon="2.652723"><ele></ele><time>2017-9-18T17:58:34Z</time></trkpt>
<trkpt lat="48.48581" lon="2.652835"><ele></ele><time>2017-9-18T17:58:37Z</time></trkpt>
<trkpt lat="48.485728" lon="2.65296"><ele></ele><time>2017-9-18T17:58:40Z</time></trkpt>
<trkpt lat="48.485666" lon="2.653113"><ele></ele><time>2017-9-18T17:58:43Z</time></trkpt>
<trkpt lat="48.485584" lon="2.653235"><ele></ele><time>2017-9-18T17:58:46Z</time></trkpt>
<trkpt lat="48.48554" lon="2.653414"><ele></ele><time>2017-9-18T17:58:49Z</time></trkpt>
<trkpt lat="48.485497" lon="2.65354"><ele></ele><time>2017-9-18T17:58:52Z</time></trkpt>
<trkpt lat="48.485493" lon="2.653704"><ele></ele><time>2017-9-18T17:58:55Z</time></trkpt>
<trkpt lat="48.485472" lon="2.65385"><ele></ele><time>2017-9-18T17:58:58Z</time></trkpt>
<trkpt lat="48.485446" lon="2.654004"><ele></ele><time>2017-9-18T17:59:1Z</time></trkpt>
<trkpt lat="48.485422" lon="2.654314"><ele></ele><time>2017-9-18T17:59:4Z</time></trkpt>
<trkpt lat="48.485387" lon="2.654468"><ele></ele><time>2017-9-18T17:59:7Z</time></trkpt>
<trkpt lat="48.485361" lon="2.654636"><ele></ele><time>2017-9-18T17:59:10Z</time></trkpt>
<trkpt lat="48.485347" lon="2.654818"><ele></ele><time>2017-9-18T17:59:13Z</time></trkpt>
<trkpt lat="48.48534" lon="2.654954"><ele></ele><time>2017-9-18T17:59:16Z</time></trkpt>
<trkpt lat="48.485318" lon="2.655099"><ele></ele><time>2017-9-18T17:59:19Z</time></trkpt>
<trkpt lat="48.48531" lon="2.655285"><ele></ele><time>2017-9-18T17:59:22Z</time></trkpt>
<trkpt lat="48.485277" lon="2.655439"><ele></ele><time>2017-9-18T17:59:25Z</time></trkpt>
<trkpt lat="48.485247" lon="2.655619"><ele></ele><time>2017-9-18T17:59:28Z</time></trkpt>
<trkpt lat="48.485218" lon="2.655758"><ele></ele><time>2017-9-18T17:59:31Z</time></trkpt>
<trkpt lat="48.485208" lon="2.655925"><ele></ele><time>2017-9-18T17:59:34Z</time></trkpt>
<trkpt lat="48.485193" lon="2.656061"><ele></ele><time>2017-9-18T17:59:37Z</time></trkpt>
<trkpt lat="48.485185" lon="2.656203"><ele></ele><time>2017-9-18T17:59:40Z</time></trkpt>
<trkpt lat="48.485155" lon="2.65641"><ele></ele><time>2017-9-18T17:59:43Z</time></trkpt>
<trkpt lat="48.485144" lon="2.656594"><ele></ele><time>2017-9-18T17:59:46Z</time></trkpt>
<trkpt lat="48.485124" lon="2.656744"><ele></ele><time>2017-9-18T17:59:49Z</time></trkpt>
<trkpt lat="48.485084" lon="2.656892"><ele></ele><time>2017-9-18T17:59:52Z</time></trkpt>
<trkpt lat="48.485086" lon="2.657063"><ele></ele><time>2017-9-18T17:59:55Z</time></trkpt>
<trkpt lat="48.485062" lon="2.657208"><ele></ele><time>2017-9-18T17:59:58Z</time></trkpt>
<trkpt lat="48.485034" lon="2.657362"><ele></ele><time>2017-9-18T18:0:1Z</time></trkpt>
<trkpt lat="48.485011" lon="2.657506"><ele></ele><time>2017-9-18T18:0:4Z</time></trkpt>
<trkpt lat="48.484995" lon="2.657654"><ele></ele><time>2017-9-18T18:0:7Z</time></trkpt>
<trkpt lat="48.484962" lon="2.65781"><ele></ele><time>2017-9-18T18:0:10Z</time></trkpt>
<trkpt lat="48.484931" lon="2.657969"><ele></ele><time>2017-9-18T18:0:13Z</time></trkpt>
<trkpt lat="48.484902" lon="2.658129"><ele></ele><time>2017-9-18T18:0:16Z</time></trkpt>
<trkpt lat="48.484877" lon="2.65828"><ele></ele><time>2017-9-18T18:0:19Z</time></trkpt>
<trkpt lat="48.484846" lon="2.65858"><ele></ele><time>2017-9-18T18:0:22Z</time></trkpt>
<trkpt lat="48.484816" lon="2.658735"><ele></ele><time>2017-9-18T18:0:25Z</time></trkpt>
<trkpt lat="48.484792" lon="2.6589"><ele></ele><time>2017-9-18T18:0:28Z</time></trkpt>
<trkpt lat="48.484767" lon="2.659051"><ele></ele><time>2017-9-18T18:0:31Z</time></trkpt>
<trkpt lat="48.484735" lon="2.65921"><ele></ele><time>2017-9-18T18:0:34Z</time></trkpt>
<trkpt lat="48.484695" lon="2.659341"><ele></ele><time>2017-9-18T18:0:37Z</time></trkpt>
<trkpt lat="48.484662" lon="2.659479"><ele></ele><time>2017-9-18T18:0:40Z</time></trkpt>
<trkpt lat="48.484634" lon="2.659612"><ele></ele><time>2017-9-18T18:0:43Z</time></trkpt>
<trkpt lat="48.484615" lon="2.659774"><ele></ele><time>2017-9-18T18:0:46Z</time></trkpt>
<trkpt lat="48.484604" lon="2.659969"><ele></ele><time>2017-9-18T18:0:49Z</time></trkpt>
<trkpt lat="48.484566" lon="2.660128"><ele></ele><time>2017-9-18T18:0:52Z</time></trkpt>
<trkpt lat="48.484532" lon="2.660305"><ele></ele><time>2017-9-18T18:0:55Z</time></trkpt>
<trkpt lat="48.484513" lon="2.660465"><ele></ele><time>2017-9-18T18:0:58Z</time></trkpt>
<trkpt lat="48.484467" lon="2.660615"><ele></ele><time>2017-9-18T18:1:1Z</time></trkpt>
<trkpt lat="48.484415" lon="2.660765"><ele></ele><time>2017-9-18T18:1:4Z</time></trkpt>
<trkpt lat="48.484388" lon="2.660908"><ele></ele><time>2017-9-18T18:1:7Z</time></trkpt>
<trkpt lat="48.484353" lon="2.66105"><ele></ele><time>2017-9-18T18:1:10Z</time></trkpt>
<trkpt lat="48.48432" lon="2.661218"><ele></ele><time>2017-9-18T18:1:13Z</time></trkpt>
<trkpt lat="48.4843" lon="2.661355"><ele></ele><time>2017-9-18T18:1:16Z</time></trkpt>
<trkpt lat="48.484242" lon="2.661475"><ele></ele><time>2017-9-18T18:1:19Z</time></trkpt>
<trkpt lat="48.484192" lon="2.661606"><ele></ele><time>2017-9-18T18:1:22Z</time></trkpt>
<trkpt lat="48.48416" lon="2.661786"><ele></ele><time>2017-9-18T18:1:25Z</time></trkpt>
<trkpt lat="48.484142" lon="2.661926"><ele></ele><time>2017-9-18T18:1:28Z</time></trkpt>
<trkpt lat="48.484048" lon="2.662213"><ele></ele><time>2017-9-18T18:1:31Z</time></trkpt>
<trkpt lat="48.484023" lon="2.662368"><ele></ele><time>2017-9-18T18:1:34Z</time></trkpt>
<trkpt lat="48.483996" lon="2.662511"><ele></ele><time>2017-9-18T18:1:37Z</time></trkpt>
<trkpt lat="48.483967" lon="2.66266"><ele></ele><time>2017-9-18T18:1:40Z</time></trkpt>
<trkpt lat="48.48397" lon="2.662812"><ele></ele><time>2017-9-18T18:1:43Z</time></trkpt>
<trkpt lat="48.483932" lon="2.662938"><ele></ele><time>2017-9-18T18:1:46Z</time></trkpt>
<trkpt lat="48.483909" lon="2.663074"><ele></ele><time>2017-9-18T18:1:49Z</time></trkpt>
<trkpt lat="48.483869" lon="2.663232"><ele></ele><time>2017-9-18T18:1:52Z</time></trkpt>
<trkpt lat="48.483835" lon="2.663361"><ele></ele><time>2017-9-18T18:1:55Z</time></trkpt>
<trkpt lat="48.483777" lon="2.663486"><ele></ele><time>2017-9-18T18:1:58Z</time></trkpt>
<trkpt lat="48.483734" lon="2.663632"><ele></ele><time>2017-9-18T18:2:1Z</time></trkpt>
<trkpt lat="48.483669" lon="2.663917"><ele></ele><time>2017-9-18T18:2:4Z</time></trkpt>
<trkpt lat="48.483635" lon="2.664069"><ele></ele><time>2017-9-18T18:2:7Z</time></trkpt>
<trkpt lat="48.483608" lon="2.664232"><ele></ele><time>2017-9-18T18:2:10Z</time></trkpt>
<trkpt lat="48.483576" lon="2.66439"><ele></ele><time>2017-9-18T18:2:13Z</time></trkpt>
<trkpt lat="48.483517" lon="2.664589"><ele></ele><time>2017-9-18T18:2:16Z</time></trkpt>
<trkpt lat="48.483491" lon="2.664843"><ele></ele><time>2017-9-18T18:2:19Z</time></trkpt>
<trkpt lat="48.483471" lon="2.665027"><ele></ele><time>2017-9-18T18:2:22Z</time></trkpt>
<trkpt lat="48.483386" lon="2.665104"><ele></ele><time>2017-9-18T18:2:25Z</time></trkpt>
<trkpt lat="48.483291" lon="2.665065"><ele></ele><time>2017-9-18T18:2:28Z</time></trkpt>
<trkpt lat="48.483191" lon="2.665095"><ele></ele><time>2017-9-18T18:2:31Z</time></trkpt>
<trkpt lat="48.483092" lon="2.665089"><ele></ele><time>2017-9-18T18:2:34Z</time></trkpt>
<trkpt lat="48.482988" lon="2.66502"><ele></ele><time>2017-9-18T18:2:37Z</time></trkpt>
<trkpt lat="48.482893" lon="2.664947"><ele></ele><time>2017-9-18T18:2:40Z</time></trkpt>
<trkpt lat="48.482794" lon="2.664866"><ele></ele><time>2017-9-18T18:2:43Z</time></trkpt>
<trkpt lat="48.482819" lon="2.664569"><ele></ele><time>2017-9-18T18:2:46Z</time></trkpt>
<trkpt lat="48.482829" lon="2.66442"><ele></ele><time>2017-9-18T18:2:49Z</time></trkpt>
<trkpt lat="48.482734" lon="2.664179"><ele></ele><time>2017-9-18T18:2:52Z</time></trkpt>
<trkpt lat="48.482678" lon="2.66399"><ele></ele><time>2017-9-18T18:2:55Z</time></trkpt>
<trkpt lat="48.482634" lon="2.663871"><ele></ele><time>2017-9-18T18:2:58Z</time></trkpt>
<trkpt lat="48.482562" lon="2.663685"><ele></ele><time>2017-9-18T18:3:1Z</time></trkpt>
<trkpt lat="48.482491" lon="2.663524"><ele></ele><time>2017-9-18T18:3:4Z</time></trkpt>
<trkpt lat="48.482434" lon="2.663405"><ele></ele><time>2017-9-18T18:3:7Z</time></trkpt>
<trkpt lat="48.482416" lon="2.663237"><ele></ele><time>2017-9-18T18:3:10Z</time></trkpt>
<trkpt lat="48.482364" lon="2.663054"><ele></ele><time>2017-9-18T18:3:13Z</time></trkpt>
<trkpt lat="48.482321" lon="2.662923"><ele></ele><time>2017-9-18T18:3:16Z</time></trkpt>
<trkpt lat="48.482275" lon="2.66279"><ele></ele><time>2017-9-18T18:3:19Z</time></trkpt>
<trkpt lat="48.482251" lon="2.662646"><ele></ele><time>2017-9-18T18:3:22Z</time></trkpt>
<trkpt lat="48.4822" lon="2.66246"><ele></ele><time>2017-9-18T18:3:25Z</time></trkpt>
<trkpt lat="48.482167" lon="2.662331"><ele></ele><time>2017-9-18T18:3:28Z</time></trkpt>
<trkpt lat="48.482099" lon="2.661978"><ele></ele><time>2017-9-18T18:3:31Z</time></trkpt>
<trkpt lat="48.482028" lon="2.661767"><ele></ele><time>2017-9-18T18:3:34Z</time></trkpt>
<trkpt lat="48.481987" lon="2.661645"><ele></ele><time>2017-9-18T18:3:37Z</time></trkpt>
<trkpt lat="48.481905" lon="2.661426"><ele></ele><time>2017-9-18T18:3:40Z</time></trkpt>
<trkpt lat="48.481819" lon="2.661224"><ele></ele><time>2017-9-18T18:3:43Z</time></trkpt>
<trkpt lat="48.48176" lon="2.661023"><ele></ele><time>2017-9-18T18:3:46Z</time></trkpt>
<trkpt lat="48.481716" lon="2.660897"><ele></ele><time>2017-9-18T18:3:49Z</time></trkpt>
<trkpt lat="48.481652" lon="2.660695"><ele></ele><time>2017-9-18T18:3:52Z</time></trkpt>
<trkpt lat="48.481601" lon="2.660475"><ele></ele><time>2017-9-18T18:3:55Z</time></trkpt>
<trkpt lat="48.481542" lon="2.660293"><ele></ele><time>2017-9-18T18:3:58Z</time></trkpt>
<trkpt lat="48.481519" lon="2.660123"><ele></ele><time>2017-9-18T18:4:1Z</time></trkpt>
<trkpt lat="48.481456" lon="2.659926"><ele></ele><time>2017-9-18T18:4:4Z</time></trkpt>
<trkpt lat="48.481381" lon="2.659724"><ele></ele><time>2017-9-18T18:4:7Z</time></trkpt>
<trkpt lat="48.481333" lon="2.659592"><ele></ele><time>2017-9-18T18:4:10Z</time></trkpt>
<trkpt lat="48.481281" lon="2.659435"><ele></ele><time>2017-9-18T18:4:13Z</time></trkpt>
<trkpt lat="48.481216" lon="2.65924"><ele></ele><time>2017-9-18T18:4:16Z</time></trkpt>
<trkpt lat="48.481107" lon="2.659032"><ele></ele><time>2017-9-18T18:4:19Z</time></trkpt>
<trkpt lat="48.481058" lon="2.658831"><ele></ele><time>2017-9-18T18:4:22Z</time></trkpt>
<trkpt lat="48.481003" lon="2.658665"><ele></ele><time>2017-9-18T18:4:25Z</time></trkpt>
<trkpt lat="48.480957" lon="2.658514"><ele></ele><time>2017-9-18T18:4:28Z</time></trkpt>
<trkpt lat="48.480874" lon="2.658282"><ele></ele><time>2017-9-18T18:4:31Z</time></trkpt>
<trkpt lat="48.480815" lon="2.658096"><ele></ele><time>2017-9-18T18:4:34Z</time></trkpt>
<trkpt lat="48.480777" lon="2.657943"><ele></ele><time>2017-9-18T18:4:37Z</time></trkpt>
<trkpt lat="48.480714" lon="2.657773"><ele></ele><time>2017-9-18T18:4:40Z</time></trkpt>
<trkpt lat="48.480631" lon="2.657597"><ele></ele><time>2017-9-18T18:4:43Z</time></trkpt>
<trkpt lat="48.480578" lon="2.657439"><ele></ele><time>2017-9-18T18:4:46Z</time></trkpt>
<trkpt lat="48.48053" lon="2.657302"><ele></ele><time>2017-9-18T18:4:49Z</time></trkpt>
<trkpt lat="48.480458" lon="2.657136"><ele></ele><time>2017-9-18T18:4:52Z</time></trkpt>
<trkpt lat="48.480365" lon="2.65696"><ele></ele><time>2017-9-18T18:4:55Z</time></trkpt>
<trkpt lat="48.480344" lon="2.656803"><ele></ele><time>2017-9-18T18:4:58Z</time></trkpt>
<trkpt lat="48.480273" lon="2.656485"><ele></ele><time>2017-9-18T18:5:1Z</time></trkpt>
<trkpt lat="48.48022" lon="2.656332"><ele></ele><time>2017-9-18T18:5:4Z</time></trkpt>
<trkpt lat="48.480169" lon="2.656211"><ele></ele><time>2017-9-18T18:5:7Z</time></trkpt>
<trkpt lat="48.480107" lon="2.656062"><ele></ele><time>2017-9-18T18:5:10Z</time></trkpt>
<trkpt lat="48.480054" lon="2.655923"><ele></ele><time>2017-9-18T18:5:13Z</time></trkpt>
<trkpt lat="48.479987" lon="2.655776"><ele></ele><time>2017-9-18T18:5:16Z</time></trkpt>
<trkpt lat="48.479979" lon="2.655631"><ele></ele><time>2017-9-18T18:5:19Z</time></trkpt>
<trkpt lat="48.479917" lon="2.655445"><ele></ele><time>2017-9-18T18:5:22Z</time></trkpt>
<trkpt lat="48.479861" lon="2.655301"><ele></ele><time>2017-9-18T18:5:25Z</time></trkpt>
<trkpt lat="48.479804" lon="2.65517"><ele></ele><time>2017-9-18T18:5:28Z</time></trkpt>
<trkpt lat="48.479753" lon="2.655007"><ele></ele><time>2017-9-18T18:5:31Z</time></trkpt>
<trkpt lat="48.479711" lon="2.654837"><ele></ele><time>2017-9-18T18:5:34Z</time></trkpt>
<trkpt lat="48.479658" lon="2.654687"><ele></ele><time>2017-9-18T18:5:37Z</time></trkpt>
<trkpt lat="48.47961" lon="2.654541"><ele></ele><time>2017-9-18T18:5:40Z</time></trkpt>
<trkpt lat="48.47956" lon="2.65441"><ele></ele><time>2017-9-18T18:5:43Z</time></trkpt>
<trkpt lat="48.479521" lon="2.654232"><ele></ele><time>2017-9-18T18:5:46Z</time></trkpt>
<trkpt lat="48.479474" lon="2.654059"><ele></ele><time>2017-9-18T18:5:49Z</time></trkpt>
<trkpt lat="48.479421" lon="2.653878"><ele></ele><time>2017-9-18T18:5:52Z</time></trkpt>
<trkpt lat="48.479396" lon="2.653727"><ele></ele><time>2017-9-18T18:5:55Z</time></trkpt>
<trkpt lat="48.479334" lon="2.653564"><ele></ele><time>2017-9-18T18:5:58Z</time></trkpt>
<trkpt lat="48.479286" lon="2.653443"><ele></ele><time>2017-9-18T18:6:1Z</time></trkpt>
<trkpt lat="48.47926" lon="2.65321"><ele></ele><time>2017-9-18T18:6:4Z</time></trkpt>
<trkpt lat="48.479198" lon="2.653074"><ele></ele><time>2017-9-18T18:6:7Z</time></trkpt>
<trkpt lat="48.479049" lon="2.652821"><ele></ele><time>2017-9-18T18:6:10Z</time></trkpt>
<trkpt lat="48.478966" lon="2.652709"><ele></ele><time>2017-9-18T18:6:13Z</time></trkpt>
<trkpt lat="48.478879" lon="2.652589"><ele></ele><time>2017-9-18T18:6:16Z</time></trkpt>
<trkpt lat="48.47878" lon="2.652466"><ele></ele><time>2017-9-18T18:6:19Z</time></trkpt>
<trkpt lat="48.478661" lon="2.652453"><ele></ele><time>2017-9-18T18:6:22Z</time></trkpt>
<trkpt lat="48.478563" lon="2.652563"><ele></ele><time>2017-9-18T18:6:25Z</time></trkpt>
<trkpt lat="48.478472" lon="2.652628"><ele></ele><time>2017-9-18T18:6:28Z</time></trkpt>
<trkpt lat="48.478384" lon="2.652687"><ele></ele><time>2017-9-18T18:6:31Z</time></trkpt>
<trkpt lat="48.478296" lon="2.652775"><ele></ele><time>2017-9-18T18:6:34Z</time></trkpt>
<trkpt lat="48.478193" lon="2.652862"><ele></ele><time>2017-9-18T18:6:37Z</time></trkpt>
<trkpt lat="48.478101" lon="2.652915"><ele></ele><time>2017-9-18T18:6:40Z</time></trkpt>
<trkpt lat="48.478017" lon="2.652969"><ele></ele><time>2017-9-18T18:6:43Z</time></trkpt>
<trkpt lat="48.477938" lon="2.653054"><ele></ele><time>2017-9-18T18:6:46Z</time></trkpt>
<trkpt lat="48.477845" lon="2.653117"><ele></ele><time>2017-9-18T18:6:49Z</time></trkpt>
<trkpt lat="48.477733" lon="2.653214"><ele></ele><time>2017-9-18T18:6:52Z</time></trkpt>
<trkpt lat="48.477645" lon="2.653309"><ele></ele><time>2017-9-18T18:6:55Z</time></trkpt>
<trkpt lat="48.477558" lon="2.653379"><ele></ele><time>2017-9-18T18:6:58Z</time></trkpt>
<trkpt lat="48.477464" lon="2.653463"><ele></ele><time>2017-9-18T18:7:1Z</time></trkpt>
<trkpt lat="48.477378" lon="2.653546"><ele></ele><time>2017-9-18T18:7:4Z</time></trkpt>
<trkpt lat="48.477295" lon="2.653645"><ele></ele><time>2017-9-18T18:7:7Z</time></trkpt>
<trkpt lat="48.477154" lon="2.653728"><ele></ele><time>2017-9-18T18:7:10Z</time></trkpt>
<trkpt lat="48.477054" lon="2.653816"><ele></ele><time>2017-9-18T18:7:13Z</time></trkpt>
<trkpt lat="48.476918" lon="2.653937"><ele></ele><time>2017-9-18T18:7:16Z</time></trkpt>
<trkpt lat="48.476722" lon="2.65408"><ele></ele><time>2017-9-18T18:7:19Z</time></trkpt>
<trkpt lat="48.476633" lon="2.65414"><ele></ele><time>2017-9-18T18:7:22Z</time></trkpt>
<trkpt lat="48.476552" lon="2.654208"><ele></ele><time>2017-9-18T18:7:25Z</time></trkpt>
<trkpt lat="48.47646" lon="2.654285"><ele></ele><time>2017-9-18T18:7:28Z</time></trkpt>
<trkpt lat="48.476377" lon="2.654356"><ele></ele><time>2017-9-18T18:7:31Z</time></trkpt>
<trkpt lat="48.476271" lon="2.654476"><ele></ele><time>2017-9-18T18:7:34Z</time></trkpt>
<trkpt lat="48.476178" lon="2.654551"><ele></ele><time>2017-9-18T18:7:37Z</time></trkpt>
<trkpt lat="48.476066" lon="2.654655"><ele></ele><time>2017-9-18T18:7:40Z</time></trkpt>
<trkpt lat="48.475975" lon="2.654745"><ele></ele><time>2017-9-18T18:7:43Z</time></trkpt>
<trkpt lat="48.475889" lon="2.654832"><ele></ele><time>2017-9-18T18:7:46Z</time></trkpt>
<trkpt lat="48.47579" lon="2.654936"><ele></ele><time>2017-9-18T18:7:49Z</time></trkpt>
<trkpt lat="48.475713" lon="2.655022"><ele></ele><time>2017-9-18T18:7:52Z</time></trkpt>
<trkpt lat="48.47558" lon="2.655099"><ele></ele><time>2017-9-18T18:7:55Z</time></trkpt>
<trkpt lat="48.475477" lon="2.655175"><ele></ele><time>2017-9-18T18:7:58Z</time></trkpt>
<trkpt lat="48.475374" lon="2.655235"><ele></ele><time>2017-9-18T18:8:1Z</time></trkpt>
<trkpt lat="48.475288" lon="2.655296"><ele></ele><time>2017-9-18T18:8:4Z</time></trkpt>
<trkpt lat="48.475205" lon="2.655368"><ele></ele><time>2017-9-18T18:8:7Z</time></trkpt>
<trkpt lat="48.475086" lon="2.655468"><ele></ele><time>2017-9-18T18:8:10Z</time></trkpt>
<trkpt lat="48.47501" lon="2.65554"><ele></ele><time>2017-9-18T18:8:13Z</time></trkpt>
<trkpt lat="48.474934" lon="2.655622"><ele></ele><time>2017-9-18T18:8:16Z</time></trkpt>
<trkpt lat="48.474812" lon="2.655699"><ele></ele><time>2017-9-18T18:8:19Z</time></trkpt>
<trkpt lat="48.474725" lon="2.655799"><ele></ele><time>2017-9-18T18:8:22Z</time></trkpt>
<trkpt lat="48.474633" lon="2.655891"><ele></ele><time>2017-9-18T18:8:25Z</time></trkpt>
<trkpt lat="48.474553" lon="2.655976"><ele></ele><time>2017-9-18T18:8:28Z</time></trkpt>
<trkpt lat="48.474437" lon="2.656062"><ele></ele><time>2017-9-18T18:8:31Z</time></trkpt>
<trkpt lat="48.47434" lon="2.656158"><ele></ele><time>2017-9-18T18:8:34Z</time></trkpt>
<trkpt lat="48.474154" lon="2.656372"><ele></ele><time>2017-9-18T18:8:37Z</time></trkpt>
<trkpt lat="48.47406" lon="2.65645"><ele></ele><time>2017-9-18T18:8:40Z</time></trkpt>
<trkpt lat="48.473965" lon="2.656469"><ele></ele><time>2017-9-18T18:8:43Z</time></trkpt>
<trkpt lat="48.473875" lon="2.656518"><ele></ele><time>2017-9-18T18:8:46Z</time></trkpt>
<trkpt lat="48.473781" lon="2.656584"><ele></ele><time>2017-9-18T18:8:49Z</time></trkpt>
<trkpt lat="48.47367" lon="2.656682"><ele></ele><time>2017-9-18T18:8:52Z</time></trkpt>
<trkpt lat="48.473567" lon="2.656762"><ele></ele><time>2017-9-18T18:8:55Z</time></trkpt>
<trkpt lat="48.473471" lon="2.656849"><ele></ele><time>2017-9-18T18:8:58Z</time></trkpt>
<trkpt lat="48.473381" lon="2.656943"><ele></ele><time>2017-9-18T18:9:1Z</time></trkpt>
<trkpt lat="48.473309" lon="2.657032"><ele></ele><time>2017-9-18T18:9:4Z</time></trkpt>
<trkpt lat="48.47321" lon="2.657102"><ele></ele><time>2017-9-18T18:9:7Z</time></trkpt>
<trkpt lat="48.473126" lon="2.657166"><ele></ele><time>2017-9-18T18:9:10Z</time></trkpt>
<trkpt lat="48.472986" lon="2.657254"><ele></ele><time>2017-9-18T18:9:13Z</time></trkpt>
<trkpt lat="48.472869" lon="2.65734"><ele></ele><time>2017-9-18T18:9:16Z</time></trkpt>
<trkpt lat="48.472773" lon="2.657423"><ele></ele><time>2017-9-18T18:9:19Z</time></trkpt>
<trkpt lat="48.472678" lon="2.657494"><ele></ele><time>2017-9-18T18:9:22Z</time></trkpt>
<trkpt lat="48.472598" lon="2.657567"><ele></ele><time>2017-9-18T18:9:25Z</time></trkpt>
<trkpt lat="48.472488" lon="2.657665"><ele></ele><time>2017-9-18T18:9:28Z</time></trkpt>
<trkpt lat="48.472391" lon="2.657758"><ele></ele><time>2017-9-18T18:9:31Z</time></trkpt>
<trkpt lat="48.472287" lon="2.657837"><ele></ele><time>2017-9-18T18:9:34Z</time></trkpt>
<trkpt lat="48.472191" lon="2.657923"><ele></ele><time>2017-9-18T18:9:37Z</time></trkpt>
<trkpt lat="48.472107" lon="2.658013"><ele></ele><time>2017-9-18T18:9:40Z</time></trkpt>
<trkpt lat="48.472021" lon="2.658106"><ele></ele><time>2017-9-18T18:9:43Z</time></trkpt>
<trkpt lat="48.471924" lon="2.658162"><ele></ele><time>2017-9-18T18:9:46Z</time></trkpt>
<trkpt lat="48.471802" lon="2.658221"><ele></ele><time>2017-9-18T18:9:49Z</time></trkpt>
<trkpt lat="48.471714" lon="2.658294"><ele></ele><time>2017-9-18T18:9:52Z</time></trkpt>
<trkpt lat="48.471628" lon="2.658348"><ele></ele><time>2017-9-18T18:9:55Z</time></trkpt>
<trkpt lat="48.471537" lon="2.658467"><ele></ele><time>2017-9-18T18:9:58Z</time></trkpt>
<trkpt lat="48.471358" lon="2.658641"><ele></ele><time>2017-9-18T18:10:1Z</time></trkpt>
<trkpt lat="48.471258" lon="2.658702"><ele></ele><time>2017-9-18T18:10:4Z</time></trkpt>
<trkpt lat="48.471165" lon="2.658766"><ele></ele><time>2017-9-18T18:10:7Z</time></trkpt>
<trkpt lat="48.471055" lon="2.658807"><ele></ele><time>2017-9-18T18:10:10Z</time></trkpt>
<trkpt lat="48.470952" lon="2.658809"><ele></ele><time>2017-9-18T18:10:13Z</time></trkpt>
<trkpt lat="48.470854" lon="2.6588"><ele></ele><time>2017-9-18T18:10:16Z</time></trkpt>
<trkpt lat="48.470735" lon="2.658804"><ele></ele><time>2017-9-18T18:10:19Z</time></trkpt>
<trkpt lat="48.470628" lon="2.658788"><ele></ele><time>2017-9-18T18:10:22Z</time></trkpt>
<trkpt lat="48.470493" lon="2.658789"><ele></ele><time>2017-9-18T18:10:25Z</time></trkpt>
<trkpt lat="48.470388" lon="2.658776"><ele></ele><time>2017-9-18T18:10:28Z</time></trkpt>
<trkpt lat="48.470285" lon="2.658757"><ele></ele><time>2017-9-18T18:10:31Z</time></trkpt>
<trkpt lat="48.470174" lon="2.658728"><ele></ele><time>2017-9-18T18:10:34Z</time></trkpt>
<trkpt lat="48.47007" lon="2.658708"><ele></ele><time>2017-9-18T18:10:37Z</time></trkpt>
<trkpt lat="48.469976" lon="2.65869"><ele></ele><time>2017-9-18T18:10:40Z</time></trkpt>
<trkpt lat="48.469882" lon="2.658692"><ele></ele><time>2017-9-18T18:10:43Z</time></trkpt>
<trkpt lat="48.469786" lon="2.658689"><ele></ele><time>2017-9-18T18:10:46Z</time></trkpt>
<trkpt lat="48.469647" lon="2.658724"><ele></ele><time>2017-9-18T18:10:49Z</time></trkpt>
<trkpt lat="48.469521" lon="2.658701"><ele></ele><time>2017-9-18T18:10:52Z</time></trkpt>
<trkpt lat="48.469407" lon="2.658691"><ele></ele><time>2017-9-18T18:10:55Z</time></trkpt>
<trkpt lat="48.469298" lon="2.658671"><ele></ele><time>2017-9-18T18:10:58Z</time></trkpt>
<trkpt lat="48.469199" lon="2.658669"><ele></ele><time>2017-9-18T18:11:1Z</time></trkpt>
<trkpt lat="48.469076" lon="2.658635"><ele></ele><time>2017-9-18T18:11:4Z</time></trkpt>
<trkpt lat="48.468969" lon="2.658619"><ele></ele><time>2017-9-18T18:11:7Z</time></trkpt>
<trkpt lat="48.468853" lon="2.658605"><ele></ele><time>2017-9-18T18:11:10Z</time></trkpt>
<trkpt lat="48.468728" lon="2.65859"><ele></ele><time>2017-9-18T18:11:13Z</time></trkpt>
<trkpt lat="48.468593" lon="2.658581"><ele></ele><time>2017-9-18T18:11:16Z</time></trkpt>
<trkpt lat="48.468375" lon="2.658571"><ele></ele><time>2017-9-18T18:11:19Z</time></trkpt>
<trkpt lat="48.468269" lon="2.658532"><ele></ele><time>2017-9-18T18:11:22Z</time></trkpt>
<trkpt lat="48.468168" lon="2.658522"><ele></ele><time>2017-9-18T18:11:25Z</time></trkpt>
<trkpt lat="48.468029" lon="2.658517"><ele></ele><time>2017-9-18T18:11:28Z</time></trkpt>
<trkpt lat="48.467887" lon="2.658523"><ele></ele><time>2017-9-18T18:11:31Z</time></trkpt>
<trkpt lat="48.467784" lon="2.658529"><ele></ele><time>2017-9-18T18:11:34Z</time></trkpt>
<trkpt lat="48.467688" lon="2.658517"><ele></ele><time>2017-9-18T18:11:37Z</time></trkpt>
<trkpt lat="48.467595" lon="2.658506"><ele></ele><time>2017-9-18T18:11:40Z</time></trkpt>
<trkpt lat="48.467498" lon="2.658511"><ele></ele><time>2017-9-18T18:11:43Z</time></trkpt>
<trkpt lat="48.467395" lon="2.658502"><ele></ele><time>2017-9-18T18:11:46Z</time></trkpt>
<trkpt lat="48.467292" lon="2.658488"><ele></ele><time>2017-9-18T18:11:49Z</time></trkpt>
<trkpt lat="48.467151" lon="2.658489"><ele></ele><time>2017-9-18T18:11:52Z</time></trkpt>
<trkpt lat="48.467053" lon="2.658476"><ele></ele><time>2017-9-18T18:11:55Z</time></trkpt>
<trkpt lat="48.466959" lon="2.658477"><ele></ele><time>2017-9-18T18:11:58Z</time></trkpt>
<trkpt lat="48.466827" lon="2.658434"><ele></ele><time>2017-9-18T18:12:1Z</time></trkpt>
<trkpt lat="48.466727" lon="2.65841"><ele></ele><time>2017-9-18T18:12:4Z</time></trkpt>
<trkpt lat="48.46663" lon="2.658393"><ele></ele><time>2017-9-18T18:12:7Z</time></trkpt>
<trkpt lat="48.466542" lon="2.658365"><ele></ele><time>2017-9-18T18:12:10Z</time></trkpt>
<trkpt lat="48.4664" lon="2.658343"><ele></ele><time>2017-9-18T18:12:13Z</time></trkpt>
<trkpt lat="48.466277" lon="2.658308"><ele></ele><time>2017-9-18T18:12:16Z</time></trkpt>
<trkpt lat="48.466154" lon="2.658308"><ele></ele><time>2017-9-18T18:12:19Z</time></trkpt>
<trkpt lat="48.466041" lon="2.658349"><ele></ele><time>2017-9-18T18:12:22Z</time></trkpt>
<trkpt lat="48.465925" lon="2.658415"><ele></ele><time>2017-9-18T18:12:25Z</time></trkpt>
<trkpt lat="48.465811" lon="2.658458"><ele></ele><time>2017-9-18T18:12:28Z</time></trkpt>
<trkpt lat="48.465592" lon="2.658356"><ele></ele><time>2017-9-18T18:12:31Z</time></trkpt>
<trkpt lat="48.465501" lon="2.658349"><ele></ele><time>2017-9-18T18:12:34Z</time></trkpt>
<trkpt lat="48.465389" lon="2.658377"><ele></ele><time>2017-9-18T18:12:37Z</time></trkpt>
<trkpt lat="48.4653" lon="2.658392"><ele></ele><time>2017-9-18T18:12:40Z</time></trkpt>
<trkpt lat="48.465204" lon="2.65841"><ele></ele><time>2017-9-18T18:12:43Z</time></trkpt>
<trkpt lat="48.465068" lon="2.658448"><ele></ele><time>2017-9-18T18:12:46Z</time></trkpt>
<trkpt lat="48.464972" lon="2.658471"><ele></ele><time>2017-9-18T18:12:49Z</time></trkpt>
<trkpt lat="48.464852" lon="2.658449"><ele></ele><time>2017-9-18T18:12:52Z</time></trkpt>
<trkpt lat="48.464722" lon="2.658436"><ele></ele><time>2017-9-18T18:12:55Z</time></trkpt>
<trkpt lat="48.464614" lon="2.658461"><ele></ele><time>2017-9-18T18:12:58Z</time></trkpt>
<trkpt lat="48.4645" lon="2.658543"><ele></ele><time>2017-9-18T18:13:1Z</time></trkpt>
<trkpt lat="48.46442" lon="2.658608"><ele></ele><time>2017-9-18T18:13:4Z</time></trkpt>
<trkpt lat="48.464322" lon="2.658686"><ele></ele><time>2017-9-18T18:13:7Z</time></trkpt>
<trkpt lat="48.464234" lon="2.65879"><ele></ele><time>2017-9-18T18:13:10Z</time></trkpt>
<trkpt lat="48.464138" lon="2.65884"><ele></ele><time>2017-9-18T18:13:13Z</time></trkpt>
<trkpt lat="48.464053" lon="2.658904"><ele></ele><time>2017-9-18T18:13:16Z</time></trkpt>
<trkpt lat="48.46396" lon="2.658952"><ele></ele><time>2017-9-18T18:13:19Z</time></trkpt>
<trkpt lat="48.463834" lon="2.659001"><ele></ele><time>2017-9-18T18:13:22Z</time></trkpt>
<trkpt lat="48.463721" lon="2.659038"><ele></ele><time>2017-9-18T18:13:25Z</time></trkpt>
<trkpt lat="48.463642" lon="2.659113"><ele></ele><time>2017-9-18T18:13:28Z</time></trkpt>
<trkpt lat="48.463544" lon="2.659166"><ele></ele><time>2017-9-18T18:13:31Z</time></trkpt>
<trkpt lat="48.463453" lon="2.659229"><ele></ele><time>2017-9-18T18:13:34Z</time></trkpt>
<trkpt lat="48.463298" lon="2.659404"><ele></ele><time>2017-9-18T18:13:37Z</time></trkpt>
<trkpt lat="48.463227" lon="2.659508"><ele></ele><time>2017-9-18T18:13:40Z</time></trkpt>
<trkpt lat="48.463152" lon="2.659588"><ele></ele><time>2017-9-18T18:13:43Z</time></trkpt>
<trkpt lat="48.463043" lon="2.659629"><ele></ele><time>2017-9-18T18:13:46Z</time></trkpt>
<trkpt lat="48.462962" lon="2.659688"><ele></ele><time>2017-9-18T18:13:49Z</time></trkpt>
<trkpt lat="48.462868" lon="2.659774"><ele></ele><time>2017-9-18T18:13:52Z</time></trkpt>
<trkpt lat="48.462768" lon="2.659867"><ele></ele><time>2017-9-18T18:13:55Z</time></trkpt>
<trkpt lat="48.462678" lon="2.659938"><ele></ele><time>2017-9-18T18:13:58Z</time></trkpt>
<trkpt lat="48.462581" lon="2.660046"><ele></ele><time>2017-9-18T18:14:1Z</time></trkpt>
<trkpt lat="48.462464" lon="2.660118"><ele></ele><time>2017-9-18T18:14:4Z</time></trkpt>
<trkpt lat="48.462381" lon="2.660197"><ele></ele><time>2017-9-18T18:14:7Z</time></trkpt>
<trkpt lat="48.462282" lon="2.660267"><ele></ele><time>2017-9-18T18:14:10Z</time></trkpt>
<trkpt lat="48.462187" lon="2.660254"><ele></ele><time>2017-9-18T18:14:13Z</time></trkpt>
<trkpt lat="48.462068" lon="2.660291"><ele></ele><time>2017-9-18T18:14:16Z</time></trkpt>
<trkpt lat="48.461978" lon="2.660323"><ele></ele><time>2017-9-18T18:14:19Z</time></trkpt>
<trkpt lat="48.461866" lon="2.660351"><ele></ele><time>2017-9-18T18:14:22Z</time></trkpt>
<trkpt lat="48.461769" lon="2.660368"><ele></ele><time>2017-9-18T18:14:25Z</time></trkpt>
<trkpt lat="48.461581" lon="2.660423"><ele></ele><time>2017-9-18T18:14:28Z</time></trkpt>
<trkpt lat="48.461489" lon="2.660399"><ele></ele><time>2017-9-18T18:14:31Z</time></trkpt>
<trkpt lat="48.461396" lon="2.660339"><ele></ele><time>2017-9-18T18:14:34Z</time></trkpt>
<trkpt lat="48.461305" lon="2.660308"><ele></ele><time>2017-9-18T18:14:37Z</time></trkpt>
<trkpt lat="48.461206" lon="2.660291"><ele></ele><time>2017-9-18T18:14:40Z</time></trkpt>
<trkpt lat="48.461125" lon="2.660356"><ele></ele><time>2017-9-18T18:14:43Z</time></trkpt>
<trkpt lat="48.461025" lon="2.660413"><ele></ele><time>2017-9-18T18:14:46Z</time></trkpt>
<trkpt lat="48.460913" lon="2.660464"><ele></ele><time>2017-9-18T18:14:49Z</time></trkpt>
<trkpt lat="48.460842" lon="2.660554"><ele></ele><time>2017-9-18T18:14:52Z</time></trkpt>
<trkpt lat="48.460777" lon="2.660655"><ele></ele><time>2017-9-18T18:14:55Z</time></trkpt>
<trkpt lat="48.46061" lon="2.660901"><ele></ele><time>2017-9-18T18:14:58Z</time></trkpt>
<trkpt lat="48.460548" lon="2.660999"><ele></ele><time>2017-9-18T18:15:1Z</time></trkpt>
<trkpt lat="48.460458" lon="2.661106"><ele></ele><time>2017-9-18T18:15:4Z</time></trkpt>
<trkpt lat="48.460368" lon="2.661129"><ele></ele><time>2017-9-18T18:15:7Z</time></trkpt>
<trkpt lat="48.460283" lon="2.661179"><ele></ele><time>2017-9-18T18:15:10Z</time></trkpt>
<trkpt lat="48.460168" lon="2.661253"><ele></ele><time>2017-9-18T18:15:13Z</time></trkpt>
<trkpt lat="48.460048" lon="2.661318"><ele></ele><time>2017-9-18T18:15:16Z</time></trkpt>
<trkpt lat="48.459929" lon="2.661338"><ele></ele><time>2017-9-18T18:15:19Z</time></trkpt>
<trkpt lat="48.459797" lon="2.661306"><ele></ele><time>2017-9-18T18:15:22Z</time></trkpt>
<trkpt lat="48.459709" lon="2.661259"><ele></ele><time>2017-9-18T18:15:25Z</time></trkpt>
<trkpt lat="48.459616" lon="2.661232"><ele></ele><time>2017-9-18T18:15:28Z</time></trkpt>
<trkpt lat="48.459514" lon="2.66117"><ele></ele><time>2017-9-18T18:15:31Z</time></trkpt>
<trkpt lat="48.459409" lon="2.661119"><ele></ele><time>2017-9-18T18:15:34Z</time></trkpt>
<trkpt lat="48.459315" lon="2.661048"><ele></ele><time>2017-9-18T18:15:37Z</time></trkpt>
<trkpt lat="48.459214" lon="2.660969"><ele></ele><time>2017-9-18T18:15:40Z</time></trkpt>
<trkpt lat="48.459116" lon="2.660898"><ele></ele><time>2017-9-18T18:15:43Z</time></trkpt>
<trkpt lat="48.459036" lon="2.660829"><ele></ele><time>2017-9-18T18:15:46Z</time></trkpt>
<trkpt lat="48.458947" lon="2.660782"><ele></ele><time>2017-9-18T18:15:49Z</time></trkpt>
<trkpt lat="48.458845" lon="2.660731"><ele></ele><time>2017-9-18T18:15:52Z</time></trkpt>
<trkpt lat="48.458752" lon="2.660684"><ele></ele><time>2017-9-18T18:15:55Z</time></trkpt>
<trkpt lat="48.45861" lon="2.660493"><ele></ele><time>2017-9-18T18:15:58Z</time></trkpt>
<trkpt lat="48.458591" lon="2.660341"><ele></ele><time>2017-9-18T18:16:1Z</time></trkpt>
<trkpt lat="48.458597" lon="2.660187"><ele></ele><time>2017-9-18T18:16:4Z</time></trkpt>
<trkpt lat="48.458607" lon="2.660034"><ele></ele><time>2017-9-18T18:16:7Z</time></trkpt>
<trkpt lat="48.4586" lon="2.659879"><ele></ele><time>2017-9-18T18:16:10Z</time></trkpt>
<trkpt lat="48.458596" lon="2.659732"><ele></ele><time>2017-9-18T18:16:13Z</time></trkpt>
<trkpt lat="48.458607" lon="2.659583"><ele></ele><time>2017-9-18T18:16:16Z</time></trkpt>
<trkpt lat="48.458542" lon="2.6593"><ele></ele><time>2017-9-18T18:16:19Z</time></trkpt>
<trkpt lat="48.458488" lon="2.659183"><ele></ele><time>2017-9-18T18:16:22Z</time></trkpt>
<trkpt lat="48.458411" lon="2.6591"><ele></ele><time>2017-9-18T18:16:25Z</time></trkpt>
<trkpt lat="48.458344" lon="2.659003"><ele></ele><time>2017-9-18T18:16:28Z</time></trkpt>
<trkpt lat="48.458284" lon="2.658902"><ele></ele><time>2017-9-18T18:16:31Z</time></trkpt>
<trkpt lat="48.458231" lon="2.658785"><ele></ele><time>2017-9-18T18:16:34Z</time></trkpt>
<trkpt lat="48.458179" lon="2.658666"><ele></ele><time>2017-9-18T18:16:37Z</time></trkpt>
<trkpt lat="48.458124" lon="2.658554"><ele></ele><time>2017-9-18T18:16:40Z</time></trkpt>
<trkpt lat="48.457993" lon="2.658334"><ele></ele><time>2017-9-18T18:16:43Z</time></trkpt>
<trkpt lat="48.457915" lon="2.658247"><ele></ele><time>2017-9-18T18:16:46Z</time></trkpt>
<trkpt lat="48.457831" lon="2.658182"><ele></ele><time>2017-9-18T18:16:49Z</time></trkpt>
<trkpt lat="48.457734" lon="2.658161"><ele></ele><time>2017-9-18T18:16:52Z</time></trkpt>
<trkpt lat="48.457642" lon="2.658111"><ele></ele><time>2017-9-18T18:16:55Z</time></trkpt>
<trkpt lat="48.457583" lon="2.658006"><ele></ele><time>2017-9-18T18:16:58Z</time></trkpt>
<trkpt lat="48.457541" lon="2.657882"><ele></ele><time>2017-9-18T18:17:1Z</time></trkpt>
<trkpt lat="48.45759" lon="2.657631"><ele></ele><time>2017-9-18T18:17:4Z</time></trkpt>
<trkpt lat="48.457683" lon="2.657569"><ele></ele><time>2017-9-18T18:17:7Z</time></trkpt>
<trkpt lat="48.457784" lon="2.657517"><ele></ele><time>2017-9-18T18:17:10Z</time></trkpt>
<trkpt lat="48.45789" lon="2.657493"><ele></ele><time>2017-9-18T18:17:13Z</time></trkpt>
<trkpt lat="48.457977" lon="2.657452"><ele></ele><time>2017-9-18T18:17:16Z</time></trkpt>
<trkpt lat="48.458094" lon="2.657406"><ele></ele><time>2017-9-18T18:17:19Z</time></trkpt>
<trkpt lat="48.458175" lon="2.657321"><ele></ele><time>2017-9-18T18:17:22Z</time></trkpt>
<trkpt lat="48.458265" lon="2.657265"><ele></ele><time>2017-9-18T18:17:25Z</time></trkpt>
<trkpt lat="48.458371" lon="2.65716"><ele></ele><time>2017-9-18T18:17:28Z</time></trkpt>
<trkpt lat="48.458522" lon="2.656951"><ele></ele><time>2017-9-18T18:17:31Z</time></trkpt>
<trkpt lat="48.458581" lon="2.656797"><ele></ele><time>2017-9-18T18:17:34Z</time></trkpt>
<trkpt lat="48.458696" lon="2.656649"><ele></ele><time>2017-9-18T18:17:37Z</time></trkpt>
<trkpt lat="48.458754" lon="2.656509"><ele></ele><time>2017-9-18T18:17:40Z</time></trkpt>
<trkpt lat="48.458832" lon="2.656353"><ele></ele><time>2017-9-18T18:17:43Z</time></trkpt>
<trkpt lat="48.458908" lon="2.656251"><ele></ele><time>2017-9-18T18:17:46Z</time></trkpt>
<trkpt lat="48.458979" lon="2.656151"><ele></ele><time>2017-9-18T18:17:49Z</time></trkpt>
<trkpt lat="48.459051" lon="2.656013"><ele></ele><time>2017-9-18T18:17:52Z</time></trkpt>
<trkpt lat="48.459134" lon="2.655886"><ele></ele><time>2017-9-18T18:17:55Z</time></trkpt>
<trkpt lat="48.459212" lon="2.655742"><ele></ele><time>2017-9-18T18:17:58Z</time></trkpt>
<trkpt lat="48.459297" lon="2.655623"><ele></ele><time>2017-9-18T18:18:1Z</time></trkpt>
<trkpt lat="48.45934" lon="2.655474"><ele></ele><time>2017-9-18T18:18:4Z</time></trkpt>
<trkpt lat="48.459376" lon="2.655335"><ele></ele><time>2017-9-18T18:18:7Z</time></trkpt>
<trkpt lat="48.459448" lon="2.655153"><ele></ele><time>2017-9-18T18:18:10Z</time></trkpt>
<trkpt lat="48.459517" lon="2.655011"><ele></ele><time>2017-9-18T18:18:13Z</time></trkpt>
<trkpt lat="48.459576" lon="2.654871"><ele></ele><time>2017-9-18T18:18:16Z</time></trkpt>
<trkpt lat="48.459623" lon="2.654704"><ele></ele><time>2017-9-18T18:18:19Z</time></trkpt>
<trkpt lat="48.459693" lon="2.654369"><ele></ele><time>2017-9-18T18:18:22Z</time></trkpt>
<trkpt lat="48.459766" lon="2.654217"><ele></ele><time>2017-9-18T18:18:25Z</time></trkpt>
<trkpt lat="48.459775" lon="2.654047"><ele></ele><time>2017-9-18T18:18:28Z</time></trkpt>
<trkpt lat="48.459739" lon="2.653881"><ele></ele><time>2017-9-18T18:18:31Z</time></trkpt>
<trkpt lat="48.459645" lon="2.653787"><ele></ele><time>2017-9-18T18:18:34Z</time></trkpt>
<trkpt lat="48.459553" lon="2.65371"><ele></ele><time>2017-9-18T18:18:37Z</time></trkpt>
<trkpt lat="48.459448" lon="2.653634"><ele></ele><time>2017-9-18T18:18:40Z</time></trkpt>
<trkpt lat="48.459331" lon="2.653535"><ele></ele><time>2017-9-18T18:18:43Z</time></trkpt>
<trkpt lat="48.459218" lon="2.653461"><ele></ele><time>2017-9-18T18:18:46Z</time></trkpt>
<trkpt lat="48.459099" lon="2.653453"><ele></ele><time>2017-9-18T18:18:49Z</time></trkpt>
<trkpt lat="48.45898" lon="2.653422"><ele></ele><time>2017-9-18T18:18:52Z</time></trkpt>
<trkpt lat="48.458788" lon="2.653429"><ele></ele><time>2017-9-18T18:18:55Z</time></trkpt>
<trkpt lat="48.458644" lon="2.653409"><ele></ele><time>2017-9-18T18:18:58Z</time></trkpt>
<trkpt lat="48.458536" lon="2.653401"><ele></ele><time>2017-9-18T18:19:1Z</time></trkpt>
<trkpt lat="48.458387" lon="2.653376"><ele></ele><time>2017-9-18T18:19:4Z</time></trkpt>
<trkpt lat="48.458292" lon="2.653332"><ele></ele><time>2017-9-18T18:19:7Z</time></trkpt>
<trkpt lat="48.458163" lon="2.653286"><ele></ele><time>2017-9-18T18:19:10Z</time></trkpt>
<trkpt lat="48.458021" lon="2.653228"><ele></ele><time>2017-9-18T18:19:13Z</time></trkpt>
<trkpt lat="48.457892" lon="2.653151"><ele></ele><time>2017-9-18T18:19:16Z</time></trkpt>
<trkpt lat="48.457803" lon="2.653042"><ele></ele><time>2017-9-18T18:19:19Z</time></trkpt>
<trkpt lat="48.457744" lon="2.652897"><ele></ele><time>2017-9-18T18:19:22Z</time></trkpt>
<trkpt lat="48.457665" lon="2.652756"><ele></ele><time>2017-9-18T18:19:25Z</time></trkpt>
<trkpt lat="48.457605" lon="2.652561"><ele></ele><time>2017-9-18T18:19:28Z</time></trkpt>
<trkpt lat="48.457621" lon="2.652426"><ele></ele><time>2017-9-18T18:19:31Z</time></trkpt>
<trkpt lat="48.457677" lon="2.652237"><ele></ele><time>2017-9-18T18:19:34Z</time></trkpt>
<trkpt lat="48.4578" lon="2.651869"><ele></ele><time>2017-9-18T18:19:37Z</time></trkpt>
<trkpt lat="48.4579" lon="2.65173"><ele></ele><time>2017-9-18T18:19:40Z</time></trkpt>
<trkpt lat="48.458009" lon="2.651623"><ele></ele><time>2017-9-18T18:19:43Z</time></trkpt>
<trkpt lat="48.458121" lon="2.651549"><ele></ele><time>2017-9-18T18:19:46Z</time></trkpt>
<trkpt lat="48.458264" lon="2.651461"><ele></ele><time>2017-9-18T18:19:49Z</time></trkpt>
<trkpt lat="48.458383" lon="2.651351"><ele></ele><time>2017-9-18T18:19:52Z</time></trkpt>
<trkpt lat="48.458451" lon="2.651206"><ele></ele><time>2017-9-18T18:19:55Z</time></trkpt>
<trkpt lat="48.458519" lon="2.651088"><ele></ele><time>2017-9-18T18:19:58Z</time></trkpt>
<trkpt lat="48.458551" lon="2.650951"><ele></ele><time>2017-9-18T18:20:1Z</time></trkpt>
<trkpt lat="48.458611" lon="2.650719"><ele></ele><time>2017-9-18T18:20:4Z</time></trkpt>
<trkpt lat="48.45866" lon="2.65054"><ele></ele><time>2017-9-18T18:20:7Z</time></trkpt>
<trkpt lat="48.458543" lon="2.650343"><ele></ele><time>2017-9-18T18:20:10Z</time></trkpt>
<trkpt lat="48.45848" lon="2.650226"><ele></ele><time>2017-9-18T18:20:13Z</time></trkpt>
<trkpt lat="48.458455" lon="2.650085"><ele></ele><time>2017-9-18T18:20:16Z</time></trkpt>
<trkpt lat="48.458381" lon="2.650007"><ele></ele><time>2017-9-18T18:20:19Z</time></trkpt>
<trkpt lat="48.458306" lon="2.649883"><ele></ele><time>2017-9-18T18:20:22Z</time></trkpt>
<trkpt lat="48.458222" lon="2.64973"><ele></ele><time>2017-9-18T18:20:25Z</time></trkpt>
<trkpt lat="48.458149" lon="2.649579"><ele></ele><time>2017-9-18T18:20:28Z</time></trkpt>
<trkpt lat="48.458069" lon="2.649429"><ele></ele><time>2017-9-18T18:20:31Z</time></trkpt>
<trkpt lat="48.458112" lon="2.649274"><ele></ele><time>2017-9-18T18:20:34Z</time></trkpt>
<trkpt lat="48.458165" lon="2.649142"><ele></ele><time>2017-9-18T18:20:37Z</time></trkpt>
<trkpt lat="48.458201" lon="2.649015"><ele></ele><time>2017-9-18T18:20:40Z</time></trkpt>
<trkpt lat="48.45824" lon="2.648875"><ele></ele><time>2017-9-18T18:20:43Z</time></trkpt>
<trkpt lat="48.458313" lon="2.648767"><ele></ele><time>2017-9-18T18:20:46Z</time></trkpt>
<trkpt lat="48.45838" lon="2.648652"><ele></ele><time>2017-9-18T18:20:49Z</time></trkpt>
<trkpt lat="48.458534" lon="2.648431"><ele></ele><time>2017-9-18T18:20:52Z</time></trkpt>
<trkpt lat="48.458624" lon="2.648348"><ele></ele><time>2017-9-18T18:20:55Z</time></trkpt>
<trkpt lat="48.458704" lon="2.648282"><ele></ele><time>2017-9-18T18:20:58Z</time></trkpt>
<trkpt lat="48.458801" lon="2.64822"><ele></ele><time>2017-9-18T18:21:1Z</time></trkpt>
<trkpt lat="48.458918" lon="2.64814"><ele></ele><time>2017-9-18T18:21:4Z</time></trkpt>
<trkpt lat="48.45902" lon="2.648098"><ele></ele><time>2017-9-18T18:21:7Z</time></trkpt>
<trkpt lat="48.459124" lon="2.64806"><ele></ele><time>2017-9-18T18:21:10Z</time></trkpt>
<trkpt lat="48.459212" lon="2.647985"><ele></ele><time>2017-9-18T18:21:13Z</time></trkpt>
<trkpt lat="48.459291" lon="2.64788"><ele></ele><time>2017-9-18T18:21:16Z</time></trkpt>
<trkpt lat="48.459351" lon="2.647764"><ele></ele><time>2017-9-18T18:21:19Z</time></trkpt>
<trkpt lat="48.459415" lon="2.647623"><ele></ele><time>2017-9-18T18:21:22Z</time></trkpt>
<trkpt lat="48.459459" lon="2.647502"><ele></ele><time>2017-9-18T18:21:25Z</time></trkpt>
<trkpt lat="48.459506" lon="2.647337"><ele></ele><time>2017-9-18T18:21:28Z</time></trkpt>
<trkpt lat="48.45952" lon="2.647127"><ele></ele><time>2017-9-18T18:21:31Z</time></trkpt>
<trkpt lat="48.459526" lon="2.646978"><ele></ele><time>2017-9-18T18:21:34Z</time></trkpt>
<trkpt lat="48.459504" lon="2.646782"><ele></ele><time>2017-9-18T18:21:37Z</time></trkpt>
<trkpt lat="48.459512" lon="2.646638"><ele></ele><time>2017-9-18T18:21:40Z</time></trkpt>
<trkpt lat="48.459498" lon="2.646422"><ele></ele><time>2017-9-18T18:21:43Z</time></trkpt>
<trkpt lat="48.459469" lon="2.646221"><ele></ele><time>2017-9-18T18:21:46Z</time></trkpt>
<trkpt lat="48.459417" lon="2.646073"><ele></ele><time>2017-9-18T18:21:49Z</time></trkpt>
<trkpt lat="48.45936" lon="2.645935"><ele></ele><time>2017-9-18T18:21:52Z</time></trkpt>
<trkpt lat="48.459309" lon="2.645816"><ele></ele><time>2017-9-18T18:21:55Z</time></trkpt>
<trkpt lat="48.459254" lon="2.645706"><ele></ele><time>2017-9-18T18:21:58Z</time></trkpt>
<trkpt lat="48.459198" lon="2.645595"><ele></ele><time>2017-9-18T18:22:1Z</time></trkpt>
<trkpt lat="48.459146" lon="2.645477"><ele></ele><time>2017-9-18T18:22:4Z</time></trkpt>
<trkpt lat="48.4591" lon="2.645307"><ele></ele><time>2017-9-18T18:22:7Z</time></trkpt>
<trkpt lat="48.459094" lon="2.644987"><ele></ele><time>2017-9-18T18:22:10Z</time></trkpt>
<trkpt lat="48.459087" lon="2.644852"><ele></ele><time>2017-9-18T18:22:13Z</time></trkpt>
<trkpt lat="48.459117" lon="2.644658"><ele></ele><time>2017-9-18T18:22:16Z</time></trkpt>
<trkpt lat="48.459102" lon="2.644503"><ele></ele><time>2017-9-18T18:22:19Z</time></trkpt>
<trkpt lat="48.45913" lon="2.644347"><ele></ele><time>2017-9-18T18:22:22Z</time></trkpt>
<trkpt lat="48.459112" lon="2.64418"><ele></ele><time>2017-9-18T18:22:25Z</time></trkpt>
<trkpt lat="48.459099" lon="2.644021"><ele></ele><time>2017-9-18T18:22:28Z</time></trkpt>
<trkpt lat="48.459119" lon="2.643855"><ele></ele><time>2017-9-18T18:22:31Z</time></trkpt>
<trkpt lat="48.459136" lon="2.643703"><ele></ele><time>2017-9-18T18:22:34Z</time></trkpt>
<trkpt lat="48.45916" lon="2.64356"><ele></ele><time>2017-9-18T18:22:37Z</time></trkpt>
<trkpt lat="48.459203" lon="2.643427"><ele></ele><time>2017-9-18T18:22:40Z</time></trkpt>
<trkpt lat="48.459206" lon="2.64327"><ele></ele><time>2017-9-18T18:22:43Z</time></trkpt>
<trkpt lat="48.45927" lon="2.643077"><ele></ele><time>2017-9-18T18:22:46Z</time></trkpt>
<trkpt lat="48.459311" lon="2.642919"><ele></ele><time>2017-9-18T18:22:49Z</time></trkpt>
<trkpt lat="48.45933" lon="2.642751"><ele></ele><time>2017-9-18T18:22:52Z</time></trkpt>
<trkpt lat="48.459344" lon="2.642609"><ele></ele><time>2017-9-18T18:22:55Z</time></trkpt>
<trkpt lat="48.459354" lon="2.642436"><ele></ele><time>2017-9-18T18:22:58Z</time></trkpt>
<trkpt lat="48.459369" lon="2.642214"><ele></ele><time>2017-9-18T18:23:1Z</time></trkpt>
<trkpt lat="48.459408" lon="2.64204"><ele></ele><time>2017-9-18T18:23:4Z</time></trkpt>
<trkpt lat="48.45941" lon="2.641862"><ele></ele><time>2017-9-18T18:23:7Z</time></trkpt>
<trkpt lat="48.459447" lon="2.641694"><ele></ele><time>2017-9-18T18:23:10Z</time></trkpt>
<trkpt lat="48.459446" lon="2.641512"><ele></ele><time>2017-9-18T18:23:13Z</time></trkpt>
<trkpt lat="48.459362" lon="2.641397"><ele></ele><time>2017-9-18T18:23:16Z</time></trkpt>
<trkpt lat="48.459247" lon="2.64127"><ele></ele><time>2017-9-18T18:23:19Z</time></trkpt>
<trkpt lat="48.459127" lon="2.641223"><ele></ele><time>2017-9-18T18:23:22Z</time></trkpt>
<trkpt lat="48.458917" lon="2.641179"><ele></ele><time>2017-9-18T18:23:25Z</time></trkpt>
<trkpt lat="48.458828" lon="2.64116"><ele></ele><time>2017-9-18T18:23:28Z</time></trkpt>
<trkpt lat="48.458735" lon="2.64115"><ele></ele><time>2017-9-18T18:23:31Z</time></trkpt>
<trkpt lat="48.458641" lon="2.641124"><ele></ele><time>2017-9-18T18:23:34Z</time></trkpt>
<trkpt lat="48.458545" lon="2.641109"><ele></ele><time>2017-9-18T18:23:37Z</time></trkpt>
<trkpt lat="48.458432" lon="2.641121"><ele></ele><time>2017-9-18T18:23:40Z</time></trkpt>
<trkpt lat="48.458328" lon="2.641141"><ele></ele><time>2017-9-18T18:23:43Z</time></trkpt>
<trkpt lat="48.458226" lon="2.641143"><ele></ele><time>2017-9-18T18:23:46Z</time></trkpt>
<trkpt lat="48.458116" lon="2.641121"><ele></ele><time>2017-9-18T18:23:49Z</time></trkpt>
<trkpt lat="48.458005" lon="2.641055"><ele></ele><time>2017-9-18T18:23:52Z</time></trkpt>
<trkpt lat="48.457931" lon="2.640975"><ele></ele><time>2017-9-18T18:23:55Z</time></trkpt>
<trkpt lat="48.45787" lon="2.640832"><ele></ele><time>2017-9-18T18:23:58Z</time></trkpt>
<trkpt lat="48.457813" lon="2.640658"><ele></ele><time>2017-9-18T18:24:1Z</time></trkpt>
<trkpt lat="48.45776" lon="2.640527"><ele></ele><time>2017-9-18T18:24:4Z</time></trkpt>
<trkpt lat="48.4577" lon="2.640402"><ele></ele><time>2017-9-18T18:24:7Z</time></trkpt>
<trkpt lat="48.457598" lon="2.640147"><ele></ele><time>2017-9-18T18:24:10Z</time></trkpt>
<trkpt lat="48.457573" lon="2.640008"><ele></ele><time>2017-9-18T18:24:13Z</time></trkpt>
<trkpt lat="48.457561" lon="2.639858"><ele></ele><time>2017-9-18T18:24:16Z</time></trkpt>
<trkpt lat="48.457609" lon="2.639714"><ele></ele><time>2017-9-18T18:24:19Z</time></trkpt>
<trkpt lat="48.457616" lon="2.639571"><ele></ele><time>2017-9-18T18:24:22Z</time></trkpt>
<trkpt lat="48.457679" lon="2.639448"><ele></ele><time>2017-9-18T18:24:25Z</time></trkpt>
<trkpt lat="48.4577" lon="2.639279"><ele></ele><time>2017-9-18T18:24:28Z</time></trkpt>
<trkpt lat="48.457742" lon="2.639123"><ele></ele><time>2017-9-18T18:24:31Z</time></trkpt>
<trkpt lat="48.457787" lon="2.638923"><ele></ele><time>2017-9-18T18:24:34Z</time></trkpt>
<trkpt lat="48.457795" lon="2.638776"><ele></ele><time>2017-9-18T18:24:37Z</time></trkpt>
<trkpt lat="48.457759" lon="2.638633"><ele></ele><time>2017-9-18T18:24:40Z</time></trkpt>
<trkpt lat="48.45768" lon="2.638519"><ele></ele><time>2017-9-18T18:24:43Z</time></trkpt>
<trkpt lat="48.457574" lon="2.638482"><ele></ele><time>2017-9-18T18:24:46Z</time></trkpt>
<trkpt lat="48.457469" lon="2.638501"><ele></ele><time>2017-9-18T18:24:49Z</time></trkpt>
<trkpt lat="48.457369" lon="2.638537"><ele></ele><time>2017-9-18T18:24:52Z</time></trkpt>
<trkpt lat="48.457262" lon="2.638637"><ele></ele><time>2017-9-18T18:24:55Z</time></trkpt>
<trkpt lat="48.457178" lon="2.638895"><ele></ele><time>2017-9-18T18:24:58Z</time></trkpt>
<trkpt lat="48.457073" lon="2.639092"><ele></ele><time>2017-9-18T18:25:1Z</time></trkpt>
<trkpt lat="48.456997" lon="2.639184"><ele></ele><time>2017-9-18T18:25:4Z</time></trkpt>
<trkpt lat="48.456884" lon="2.639226"><ele></ele><time>2017-9-18T18:25:7Z</time></trkpt>
<trkpt lat="48.456773" lon="2.639258"><ele></ele><time>2017-9-18T18:25:10Z</time></trkpt>
<trkpt lat="48.456667" lon="2.63927"><ele></ele><time>2017-9-18T18:25:13Z</time></trkpt>
<trkpt lat="48.456566" lon="2.639281"><ele></ele><time>2017-9-18T18:25:16Z</time></trkpt>
<trkpt lat="48.45647" lon="2.639245"><ele></ele><time>2017-9-18T18:25:19Z</time></trkpt>
<trkpt lat="48.456374" lon="2.639228"><ele></ele><time>2017-9-18T18:25:22Z</time></trkpt>
<trkpt lat="48.456275" lon="2.639091"><ele></ele><time>2017-9-18T18:25:25Z</time></trkpt>
<trkpt lat="48.456231" lon="2.638957"><ele></ele><time>2017-9-18T18:25:28Z</time></trkpt>
<trkpt lat="48.456163" lon="2.638807"><ele></ele><time>2017-9-18T18:25:31Z</time></trkpt>
<trkpt lat="48.45604" lon="2.638715"><ele></ele><time>2017-9-18T18:25:34Z</time></trkpt>
<trkpt lat="48.455933" lon="2.638718"><ele></ele><time>2017-9-18T18:25:37Z</time></trkpt>
<trkpt lat="48.455827" lon="2.638767"><ele></ele><time>2017-9-18T18:25:40Z</time></trkpt>
<trkpt lat="48.45574" lon="2.638797"><ele></ele><time>2017-9-18T18:25:43Z</time></trkpt>
<trkpt lat="48.455608" lon="2.638776"><ele></ele><time>2017-9-18T18:25:46Z</time></trkpt>
<trkpt lat="48.455514" lon="2.638661"><ele></ele><time>2017-9-18T18:25:49Z</time></trkpt>
<trkpt lat="48.45541" lon="2.638548"><ele></ele><time>2017-9-18T18:25:52Z</time></trkpt>
<trkpt lat="48.455282" lon="2.638499"><ele></ele><time>2017-9-18T18:25:55Z</time></trkpt>
<trkpt lat="48.455188" lon="2.638488"><ele></ele><time>2017-9-18T18:25:58Z</time></trkpt>
<trkpt lat="48.455055" lon="2.638481"><ele></ele><time>2017-9-18T18:26:1Z</time></trkpt>
<trkpt lat="48.454963" lon="2.638469"><ele></ele><time>2017-9-18T18:26:4Z</time></trkpt>
<trkpt lat="48.454801" lon="2.638289"><ele></ele><time>2017-9-18T18:26:7Z</time></trkpt>
<trkpt lat="48.454722" lon="2.63816"><ele></ele><time>2017-9-18T18:26:10Z</time></trkpt>
<trkpt lat="48.454654" lon="2.638023"><ele></ele><time>2017-9-18T18:26:13Z</time></trkpt>
<trkpt lat="48.454561" lon="2.637909"><ele></ele><time>2017-9-18T18:26:16Z</time></trkpt>
<trkpt lat="48.454491" lon="2.637807"><ele></ele><time>2017-9-18T18:26:19Z</time></trkpt>
<trkpt lat="48.454407" lon="2.637665"><ele></ele><time>2017-9-18T18:26:22Z</time></trkpt>
<trkpt lat="48.454378" lon="2.63753"><ele></ele><time>2017-9-18T18:26:25Z</time></trkpt>
<trkpt lat="48.454356" lon="2.637338"><ele></ele><time>2017-9-18T18:26:28Z</time></trkpt>
<trkpt lat="48.454343" lon="2.637165"><ele></ele><time>2017-9-18T18:26:31Z</time></trkpt>
<trkpt lat="48.454322" lon="2.637013"><ele></ele><time>2017-9-18T18:26:34Z</time></trkpt>
<trkpt lat="48.454307" lon="2.636817"><ele></ele><time>2017-9-18T18:26:37Z</time></trkpt>
<trkpt lat="48.454198" lon="2.636681"><ele></ele><time>2017-9-18T18:26:40Z</time></trkpt>
<trkpt lat="48.454125" lon="2.636558"><ele></ele><time>2017-9-18T18:26:43Z</time></trkpt>
<trkpt lat="48.454049" lon="2.636467"><ele></ele><time>2017-9-18T18:26:46Z</time></trkpt>
<trkpt lat="48.45397" lon="2.636398"><ele></ele><time>2017-9-18T18:26:49Z</time></trkpt>
<trkpt lat="48.453866" lon="2.636355"><ele></ele><time>2017-9-18T18:26:52Z</time></trkpt>
<trkpt lat="48.453765" lon="2.636346"><ele></ele><time>2017-9-18T18:26:55Z</time></trkpt>
<trkpt lat="48.453662" lon="2.636375"><ele></ele><time>2017-9-18T18:26:58Z</time></trkpt>
<trkpt lat="48.453568" lon="2.6364"><ele></ele><time>2017-9-18T18:27:1Z</time></trkpt>
<trkpt lat="48.453479" lon="2.636425"><ele></ele><time>2017-9-18T18:27:4Z</time></trkpt>
<trkpt lat="48.453394" lon="2.636472"><ele></ele><time>2017-9-18T18:27:7Z</time></trkpt>
<trkpt lat="48.453271" lon="2.636543"><ele></ele><time>2017-9-18T18:27:10Z</time></trkpt>
<trkpt lat="48.453185" lon="2.636591"><ele></ele><time>2017-9-18T18:27:13Z</time></trkpt>
<trkpt lat="48.453058" lon="2.636638"><ele></ele><time>2017-9-18T18:27:16Z</time></trkpt>
<trkpt lat="48.452937" lon="2.63661"><ele></ele><time>2017-9-18T18:27:19Z</time></trkpt>
<trkpt lat="48.452747" lon="2.636378"><ele></ele><time>2017-9-18T18:27:22Z</time></trkpt>
<trkpt lat="48.452692" lon="2.636223"><ele></ele><time>2017-9-18T18:27:25Z</time></trkpt>
<trkpt lat="48.452568" lon="2.636105"><ele></ele><time>2017-9-18T18:27:28Z</time></trkpt>
<trkpt lat="48.452473" lon="2.636075"><ele></ele><time>2017-9-18T18:27:31Z</time></trkpt>
<trkpt lat="48.452381" lon="2.636062"><ele></ele><time>2017-9-18T18:27:34Z</time></trkpt>
<trkpt lat="48.452291" lon="2.636069"><ele></ele><time>2017-9-18T18:27:37Z</time></trkpt>
<trkpt lat="48.452187" lon="2.636082"><ele></ele><time>2017-9-18T18:27:40Z</time></trkpt>
<trkpt lat="48.452084" lon="2.636035"><ele></ele><time>2017-9-18T18:27:43Z</time></trkpt>
<trkpt lat="48.452017" lon="2.63593"><ele></ele><time>2017-9-18T18:27:46Z</time></trkpt>
<trkpt lat="48.451968" lon="2.635803"><ele></ele><time>2017-9-18T18:27:49Z</time></trkpt>
<trkpt lat="48.451963" lon="2.635586"><ele></ele><time>2017-9-18T18:27:52Z</time></trkpt>
<trkpt lat="48.451983" lon="2.635389"><ele></ele><time>2017-9-18T18:27:55Z</time></trkpt>
<trkpt lat="48.452" lon="2.635243"><ele></ele><time>2017-9-18T18:27:58Z</time></trkpt>
<trkpt lat="48.452024" lon="2.635063"><ele></ele><time>2017-9-18T18:28:1Z</time></trkpt>
<trkpt lat="48.452051" lon="2.634862"><ele></ele><time>2017-9-18T18:28:4Z</time></trkpt>
<trkpt lat="48.45205" lon="2.634648"><ele></ele><time>2017-9-18T18:28:7Z</time></trkpt>
<trkpt lat="48.452049" lon="2.634501"><ele></ele><time>2017-9-18T18:28:10Z</time></trkpt>
<trkpt lat="48.452066" lon="2.634291"><ele></ele><time>2017-9-18T18:28:13Z</time></trkpt>
<trkpt lat="48.452057" lon="2.634105"><ele></ele><time>2017-9-18T18:28:16Z</time></trkpt>
<trkpt lat="48.452071" lon="2.633959"><ele></ele><time>2017-9-18T18:28:19Z</time></trkpt>
<trkpt lat="48.452104" lon="2.633796"><ele></ele><time>2017-9-18T18:28:22Z</time></trkpt>
<trkpt lat="48.452148" lon="2.633675"><ele></ele><time>2017-9-18T18:28:25Z</time></trkpt>
<trkpt lat="48.452069" lon="2.633748"><ele></ele><time>2017-9-18T18:28:28Z</time></trkpt>
<trkpt lat="48.452022" lon="2.634119"><ele></ele><time>2017-9-18T18:28:31Z</time></trkpt>
<trkpt lat="48.452027" lon="2.634295"><ele></ele><time>2017-9-18T18:28:34Z</time></trkpt>
<trkpt lat="48.452028" lon="2.634463"><ele></ele><time>2017-9-18T18:28:37Z</time></trkpt>
<trkpt lat="48.452013" lon="2.634647"><ele></ele><time>2017-9-18T18:28:40Z</time></trkpt>
<trkpt lat="48.451984" lon="2.634824"><ele></ele><time>2017-9-18T18:28:43Z</time></trkpt>
<trkpt lat="48.451964" lon="2.634984"><ele></ele><time>2017-9-18T18:28:46Z</time></trkpt>
<trkpt lat="48.451916" lon="2.635134"><ele></ele><time>2017-9-18T18:28:49Z</time></trkpt>
<trkpt lat="48.451845" lon="2.635273"><ele></ele><time>2017-9-18T18:28:52Z</time></trkpt>
<trkpt lat="48.451774" lon="2.635416"><ele></ele><time>2017-9-18T18:28:55Z</time></trkpt>
<trkpt lat="48.45175" lon="2.63556"><ele></ele><time>2017-9-18T18:28:58Z</time></trkpt>
<trkpt lat="48.451746" lon="2.635699"><ele></ele><time>2017-9-18T18:29:1Z</time></trkpt>
<trkpt lat="48.451791" lon="2.635898"><ele></ele><time>2017-9-18T18:29:4Z</time></trkpt>
<trkpt lat="48.4518" lon="2.636066"><ele></ele><time>2017-9-18T18:29:7Z</time></trkpt>
<trkpt lat="48.45172" lon="2.636175"><ele></ele><time>2017-9-18T18:29:10Z</time></trkpt>
<trkpt lat="48.451614" lon="2.636266"><ele></ele><time>2017-9-18T18:29:13Z</time></trkpt>
<trkpt lat="48.451501" lon="2.636334"><ele></ele><time>2017-9-18T18:29:16Z</time></trkpt>
<trkpt lat="48.451399" lon="2.636419"><ele></ele><time>2017-9-18T18:29:19Z</time></trkpt>
<trkpt lat="48.451229" lon="2.636704"><ele></ele><time>2017-9-18T18:29:22Z</time></trkpt>
<trkpt lat="48.451166" lon="2.636854"><ele></ele><time>2017-9-18T18:29:25Z</time></trkpt>
<trkpt lat="48.451106" lon="2.636967"><ele></ele><time>2017-9-18T18:29:28Z</time></trkpt>
<trkpt lat="48.451042" lon="2.637104"><ele></ele><time>2017-9-18T18:29:31Z</time></trkpt>
<trkpt lat="48.451001" lon="2.637264"><ele></ele><time>2017-9-18T18:29:34Z</time></trkpt>
<trkpt lat="48.450972" lon="2.637448"><ele></ele><time>2017-9-18T18:29:37Z</time></trkpt>
<trkpt lat="48.450939" lon="2.63759"><ele></ele><time>2017-9-18T18:29:40Z</time></trkpt>
<trkpt lat="48.450932" lon="2.637743"><ele></ele><time>2017-9-18T18:29:43Z</time></trkpt>
<trkpt lat="48.45092" lon="2.6379"><ele></ele><time>2017-9-18T18:29:46Z</time></trkpt>
<trkpt lat="48.450906" lon="2.638035"><ele></ele><time>2017-9-18T18:29:49Z</time></trkpt>
<trkpt lat="48.450911" lon="2.638221"><ele></ele><time>2017-9-18T18:29:52Z</time></trkpt>
<trkpt lat="48.450924" lon="2.638405"><ele></ele><time>2017-9-18T18:29:55Z</time></trkpt>
<trkpt lat="48.450928" lon="2.638609"><ele></ele><time>2017-9-18T18:29:58Z</time></trkpt>
<trkpt lat="48.450935" lon="2.638757"><ele></ele><time>2017-9-18T18:30:1Z</time></trkpt>
<trkpt lat="48.450945" lon="2.638895"><ele></ele><time>2017-9-18T18:30:4Z</time></trkpt>
<trkpt lat="48.450962" lon="2.639045"><ele></ele><time>2017-9-18T18:30:7Z</time></trkpt>
<trkpt lat="48.450971" lon="2.639195"><ele></ele><time>2017-9-18T18:30:10Z</time></trkpt>
<trkpt lat="48.450981" lon="2.639358"><ele></ele><time>2017-9-18T18:30:13Z</time></trkpt>
<trkpt lat="48.451002" lon="2.639541"><ele></ele><time>2017-9-18T18:30:16Z</time></trkpt>
<trkpt lat="48.451028" lon="2.639681"><ele></ele><time>2017-9-18T18:30:19Z</time></trkpt>
<trkpt lat="48.451062" lon="2.639822"><ele></ele><time>2017-9-18T18:30:22Z</time></trkpt>
<trkpt lat="48.451076" lon="2.639989"><ele></ele><time>2017-9-18T18:30:25Z</time></trkpt>
<trkpt lat="48.451057" lon="2.640189"><ele></ele><time>2017-9-18T18:30:28Z</time></trkpt>
<trkpt lat="48.451025" lon="2.640389"><ele></ele><time>2017-9-18T18:30:31Z</time></trkpt>
<trkpt lat="48.450927" lon="2.640743"><ele></ele><time>2017-9-18T18:30:34Z</time></trkpt>
<trkpt lat="48.450865" lon="2.640876"><ele></ele><time>2017-9-18T18:30:37Z</time></trkpt>
<trkpt lat="48.450809" lon="2.640991"><ele></ele><time>2017-9-18T18:30:40Z</time></trkpt>
<trkpt lat="48.450748" lon="2.641095"><ele></ele><time>2017-9-18T18:30:43Z</time></trkpt>
<trkpt lat="48.450682" lon="2.641198"><ele></ele><time>2017-9-18T18:30:46Z</time></trkpt>
<trkpt lat="48.450606" lon="2.641285"><ele></ele><time>2017-9-18T18:30:49Z</time></trkpt>
<trkpt lat="48.450494" lon="2.641381"><ele></ele><time>2017-9-18T18:30:52Z</time></trkpt>
<trkpt lat="48.450397" lon="2.641476"><ele></ele><time>2017-9-18T18:30:55Z</time></trkpt>
<trkpt lat="48.45029" lon="2.641595"><ele></ele><time>2017-9-18T18:30:58Z</time></trkpt>
<trkpt lat="48.450214" lon="2.641729"><ele></ele><time>2017-9-18T18:31:1Z</time></trkpt>
<trkpt lat="48.450165" lon="2.641875"><ele></ele><time>2017-9-18T18:31:4Z</time></trkpt>
<trkpt lat="48.450081" lon="2.641949"><ele></ele><time>2017-9-18T18:31:7Z</time></trkpt>
<trkpt lat="48.449989" lon="2.642073"><ele></ele><time>2017-9-18T18:31:10Z</time></trkpt>
<trkpt lat="48.449898" lon="2.642203"><ele></ele><time>2017-9-18T18:31:13Z</time></trkpt>
<trkpt lat="48.44981" lon="2.642328"><ele></ele><time>2017-9-18T18:31:16Z</time></trkpt>
<trkpt lat="48.449729" lon="2.642443"><ele></ele><time>2017-9-18T18:31:19Z</time></trkpt>
<trkpt lat="48.449639" lon="2.642583"><ele></ele><time>2017-9-18T18:31:22Z</time></trkpt>
<trkpt lat="48.449543" lon="2.642718"><ele></ele><time>2017-9-18T18:31:25Z</time></trkpt>
<trkpt lat="48.449454" lon="2.642876"><ele></ele><time>2017-9-18T18:31:28Z</time></trkpt>
<trkpt lat="48.449385" lon="2.643031"><ele></ele><time>2017-9-18T18:31:31Z</time></trkpt>
<trkpt lat="48.449368" lon="2.643231"><ele></ele><time>2017-9-18T18:31:34Z</time></trkpt>
<trkpt lat="48.449447" lon="2.643547"><ele></ele><time>2017-9-18T18:31:37Z</time></trkpt>
<trkpt lat="48.449506" lon="2.643654"><ele></ele><time>2017-9-18T18:31:40Z</time></trkpt>
<trkpt lat="48.449557" lon="2.643766"><ele></ele><time>2017-9-18T18:31:43Z</time></trkpt>
<trkpt lat="48.449621" lon="2.643932"><ele></ele><time>2017-9-18T18:31:46Z</time></trkpt>
<trkpt lat="48.449637" lon="2.644074"><ele></ele><time>2017-9-18T18:31:49Z</time></trkpt>
<trkpt lat="48.449649" lon="2.644211"><ele></ele><time>2017-9-18T18:31:52Z</time></trkpt>
<trkpt lat="48.449645" lon="2.644445"><ele></ele><time>2017-9-18T18:31:55Z</time></trkpt>
<trkpt lat="48.449671" lon="2.644624"><ele></ele><time>2017-9-18T18:31:58Z</time></trkpt>
<trkpt lat="48.449674" lon="2.644761"><ele></ele><time>2017-9-18T18:32:1Z</time></trkpt>
<trkpt lat="48.449687" lon="2.644908"><ele></ele><time>2017-9-18T18:32:4Z</time></trkpt>
<trkpt lat="48.449693" lon="2.645088"><ele></ele><time>2017-9-18T18:32:7Z</time></trkpt>
<trkpt lat="48.449703" lon="2.645229"><ele></ele><time>2017-9-18T18:32:10Z</time></trkpt>
<trkpt lat="48.449727" lon="2.645363"><ele></ele><time>2017-9-18T18:32:13Z</time></trkpt>
<trkpt lat="48.449722" lon="2.645586"><ele></ele><time>2017-9-18T18:32:16Z</time></trkpt>
<trkpt lat="48.449705" lon="2.645778"><ele></ele><time>2017-9-18T18:32:19Z</time></trkpt>
<trkpt lat="48.449679" lon="2.645989"><ele></ele><time>2017-9-18T18:32:22Z</time></trkpt>
<trkpt lat="48.449677" lon="2.646135"><ele></ele><time>2017-9-18T18:32:25Z</time></trkpt>
<trkpt lat="48.44967" lon="2.64629"><ele></ele><time>2017-9-18T18:32:28Z</time></trkpt>
<trkpt lat="48.449671" lon="2.646446"><ele></ele><time>2017-9-18T18:32:31Z</time></trkpt>
<trkpt lat="48.449675" lon="2.646597"><ele></ele><time>2017-9-18T18:32:34Z</time></trkpt>
<trkpt lat="48.449666" lon="2.646751"><ele></ele><time>2017-9-18T18:32:37Z</time></trkpt>
<trkpt lat="48.449593" lon="2.646865"><ele></ele><time>2017-9-18T18:32:40Z</time></trkpt>
<trkpt lat="48.449484" lon="2.64687"><ele></ele><time>2017-9-18T18:32:43Z</time></trkpt>
<trkpt lat="48.449263" lon="2.646946"><ele></ele><time>2017-9-18T18:32:46Z</time></trkpt>
<trkpt lat="48.449176" lon="2.647039"><ele></ele><time>2017-9-18T18:32:49Z</time></trkpt>
<trkpt lat="48.449093" lon="2.64719"><ele></ele><time>2017-9-18T18:32:52Z</time></trkpt>
<trkpt lat="48.449046" lon="2.647329"><ele></ele><time>2017-9-18T18:32:55Z</time></trkpt>
<trkpt lat="48.448999" lon="2.647507"><ele></ele><time>2017-9-18T18:32:58Z</time></trkpt>
<trkpt lat="48.448953" lon="2.647664"><ele></ele><time>2017-9-18T18:33:1Z</time></trkpt>
<trkpt lat="48.448866" lon="2.647918"><ele></ele><time>2017-9-18T18:33:4Z</time></trkpt>
<trkpt lat="48.448821" lon="2.648041"><ele></ele><time>2017-9-18T18:33:7Z</time></trkpt>
<trkpt lat="48.448775" lon="2.648165"><ele></ele><time>2017-9-18T18:33:10Z</time></trkpt>
<trkpt lat="48.448074" lon="2.650021"><ele></ele><time>2017-9-18T18:33:13Z</time></trkpt>
<trkpt lat="48.448022" lon="2.650195"><ele></ele><time>2017-9-18T18:33:16Z</time></trkpt>
<trkpt lat="48.447999" lon="2.65033"><ele></ele><time>2017-9-18T18:33:19Z</time></trkpt>
<trkpt lat="48.447925" lon="2.650464"><ele></ele><time>2017-9-18T18:33:22Z</time></trkpt>
<trkpt lat="48.447882" lon="2.650628"><ele></ele><time>2017-9-18T18:33:25Z</time></trkpt>
<trkpt lat="48.447895" lon="2.651005"><ele></ele><time>2017-9-18T18:33:28Z</time></trkpt>
<trkpt lat="48.447943" lon="2.651182"><ele></ele><time>2017-9-18T18:33:31Z</time></trkpt>
<trkpt lat="48.447983" lon="2.651322"><ele></ele><time>2017-9-18T18:33:34Z</time></trkpt>
<trkpt lat="48.448038" lon="2.651495"><ele></ele><time>2017-9-18T18:33:37Z</time></trkpt>
<trkpt lat="48.448086" lon="2.651661"><ele></ele><time>2017-9-18T18:33:40Z</time></trkpt>
<trkpt lat="48.448145" lon="2.651857"><ele></ele><time>2017-9-18T18:33:43Z</time></trkpt>
<trkpt lat="48.448182" lon="2.652014"><ele></ele><time>2017-9-18T18:33:46Z</time></trkpt>
<trkpt lat="48.448236" lon="2.652131"><ele></ele><time>2017-9-18T18:33:49Z</time></trkpt>
<trkpt lat="48.448303" lon="2.652305"><ele></ele><time>2017-9-18T18:33:52Z</time></trkpt>
<trkpt lat="48.448345" lon="2.652458"><ele></ele><time>2017-9-18T18:33:55Z</time></trkpt>
<trkpt lat="48.44841" lon="2.652588"><ele></ele><time>2017-9-18T18:33:58Z</time></trkpt>
<trkpt lat="48.448499" lon="2.652706"><ele></ele><time>2017-9-18T18:34:1Z</time></trkpt>
<trkpt lat="48.448561" lon="2.65282"><ele></ele><time>2017-9-18T18:34:4Z</time></trkpt>
<trkpt lat="48.448633" lon="2.652915"><ele></ele><time>2017-9-18T18:34:7Z</time></trkpt>
<trkpt lat="48.448704" lon="2.653023"><ele></ele><time>2017-9-18T18:34:10Z</time></trkpt>
<trkpt lat="48.448778" lon="2.653118"><ele></ele><time>2017-9-18T18:34:13Z</time></trkpt>
<trkpt lat="48.448835" lon="2.653285"><ele></ele><time>2017-9-18T18:34:16Z</time></trkpt>
<trkpt lat="48.448896" lon="2.653425"><ele></ele><time>2017-9-18T18:34:19Z</time></trkpt>
<trkpt lat="48.448949" lon="2.653589"><ele></ele><time>2017-9-18T18:34:22Z</time></trkpt>
<trkpt lat="48.449012" lon="2.653722"><ele></ele><time>2017-9-18T18:34:25Z</time></trkpt>
<trkpt lat="48.449045" lon="2.653853"><ele></ele><time>2017-9-18T18:34:28Z</time></trkpt>
<trkpt lat="48.449026" lon="2.654027"><ele></ele><time>2017-9-18T18:34:31Z</time></trkpt>
<trkpt lat="48.449003" lon="2.654185"><ele></ele><time>2017-9-18T18:34:34Z</time></trkpt>
<trkpt lat="48.448967" lon="2.654339"><ele></ele><time>2017-9-18T18:34:37Z</time></trkpt>
<trkpt lat="48.448923" lon="2.65456"><ele></ele><time>2017-9-18T18:34:40Z</time></trkpt>
<trkpt lat="48.448895" lon="2.65472"><ele></ele><time>2017-9-18T18:34:43Z</time></trkpt>
<trkpt lat="48.448881" lon="2.654878"><ele></ele><time>2017-9-18T18:34:46Z</time></trkpt>
<trkpt lat="48.448816" lon="2.655218"><ele></ele><time>2017-9-18T18:34:49Z</time></trkpt>
<trkpt lat="48.448771" lon="2.655369"><ele></ele><time>2017-9-18T18:34:52Z</time></trkpt>
<trkpt lat="48.448778" lon="2.655532"><ele></ele><time>2017-9-18T18:34:55Z</time></trkpt>
<trkpt lat="48.448731" lon="2.655651"><ele></ele><time>2017-9-18T18:34:58Z</time></trkpt>
<trkpt lat="48.448683" lon="2.655834"><ele></ele><time>2017-9-18T18:35:1Z</time></trkpt>
<trkpt lat="48.448597" lon="2.655985"><ele></ele><time>2017-9-18T18:35:4Z</time></trkpt>
<trkpt lat="48.448553" lon="2.656113"><ele></ele><time>2017-9-18T18:35:7Z</time></trkpt>
<trkpt lat="48.448503" lon="2.656247"><ele></ele><time>2017-9-18T18:35:10Z</time></trkpt>
<trkpt lat="48.448464" lon="2.656429"><ele></ele><time>2017-9-18T18:35:13Z</time></trkpt>
<trkpt lat="48.448422" lon="2.656578"><ele></ele><time>2017-9-18T18:35:16Z</time></trkpt>
<trkpt lat="48.44837" lon="2.656735"><ele></ele><time>2017-9-18T18:35:19Z</time></trkpt>
<trkpt lat="48.448345" lon="2.65691"><ele></ele><time>2017-9-18T18:35:22Z</time></trkpt>
<trkpt lat="48.448311" lon="2.657062"><ele></ele><time>2017-9-18T18:35:25Z</time></trkpt>
<trkpt lat="48.448293" lon="2.657214"><ele></ele><time>2017-9-18T18:35:28Z</time></trkpt>
<trkpt lat="48.448256" lon="2.657389"><ele></ele><time>2017-9-18T18:35:31Z</time></trkpt>
<trkpt lat="48.448184" lon="2.657587"><ele></ele><time>2017-9-18T18:35:34Z</time></trkpt>
<trkpt lat="48.448158" lon="2.657729"><ele></ele><time>2017-9-18T18:35:37Z</time></trkpt>
<trkpt lat="48.448122" lon="2.65786"><ele></ele><time>2017-9-18T18:35:40Z</time></trkpt>
<trkpt lat="48.448061" lon="2.658105"><ele></ele><time>2017-9-18T18:35:43Z</time></trkpt>
<trkpt lat="48.448024" lon="2.658254"><ele></ele><time>2017-9-18T18:35:46Z</time></trkpt>
<trkpt lat="48.447967" lon="2.658381"><ele></ele><time>2017-9-18T18:35:49Z</time></trkpt>
<trkpt lat="48.44793" lon="2.658546"><ele></ele><time>2017-9-18T18:35:52Z</time></trkpt>
<trkpt lat="48.447866" lon="2.658655"><ele></ele><time>2017-9-18T18:35:55Z</time></trkpt>
<trkpt lat="48.447822" lon="2.65885"><ele></ele><time>2017-9-18T18:35:58Z</time></trkpt>
<trkpt lat="48.447785" lon="2.659031"><ele></ele><time>2017-9-18T18:36:1Z</time></trkpt>
<trkpt lat="48.447139" lon="2.660452"><ele></ele><time>2017-9-18T18:36:4Z</time></trkpt>
<trkpt lat="48.447042" lon="2.660518"><ele></ele><time>2017-9-18T18:36:7Z</time></trkpt>
<trkpt lat="48.446937" lon="2.660587"><ele></ele><time>2017-9-18T18:36:10Z</time></trkpt>
<trkpt lat="48.446829" lon="2.660669"><ele></ele><time>2017-9-18T18:36:13Z</time></trkpt>
<trkpt lat="48.446738" lon="2.660714"><ele></ele><time>2017-9-18T18:36:16Z</time></trkpt>
<trkpt lat="48.446622" lon="2.660799"><ele></ele><time>2017-9-18T18:36:19Z</time></trkpt>
<trkpt lat="48.446508" lon="2.660841"><ele></ele><time>2017-9-18T18:36:22Z</time></trkpt>
<trkpt lat="48.446419" lon="2.660897"><ele></ele><time>2017-9-18T18:36:25Z</time></trkpt>
<trkpt lat="48.446294" lon="2.660975"><ele></ele><time>2017-9-18T18:36:28Z</time></trkpt>
<trkpt lat="48.446176" lon="2.661038"><ele></ele><time>2017-9-18T18:36:31Z</time></trkpt>
<trkpt lat="48.446089" lon="2.661103"><ele></ele><time>2017-9-18T18:36:34Z</time></trkpt>
<trkpt lat="48.445993" lon="2.661169"><ele></ele><time>2017-9-18T18:36:37Z</time></trkpt>
<trkpt lat="48.445903" lon="2.661203"><ele></ele><time>2017-9-18T18:36:40Z</time></trkpt>
<trkpt lat="48.445659" lon="2.661341"><ele></ele><time>2017-9-18T18:36:43Z</time></trkpt>
<trkpt lat="48.445553" lon="2.66139"><ele></ele><time>2017-9-18T18:36:46Z</time></trkpt>
<trkpt lat="48.445451" lon="2.661431"><ele></ele><time>2017-9-18T18:36:49Z</time></trkpt>
<trkpt lat="48.445368" lon="2.6615"><ele></ele><time>2017-9-18T18:36:52Z</time></trkpt>
<trkpt lat="48.445279" lon="2.661567"><ele></ele><time>2017-9-18T18:36:55Z</time></trkpt>
<trkpt lat="48.445203" lon="2.661643"><ele></ele><time>2017-9-18T18:36:58Z</time></trkpt>
<trkpt lat="48.445102" lon="2.661713"><ele></ele><time>2017-9-18T18:37:1Z</time></trkpt>
<trkpt lat="48.445011" lon="2.661754"><ele></ele><time>2017-9-18T18:37:4Z</time></trkpt>
<trkpt lat="48.444901" lon="2.66182"><ele></ele><time>2017-9-18T18:37:7Z</time></trkpt>
<trkpt lat="48.444795" lon="2.661914"><ele></ele><time>2017-9-18T18:37:10Z</time></trkpt>
<trkpt lat="48.44467" lon="2.662036"><ele></ele><time>2017-9-18T18:37:13Z</time></trkpt>
<trkpt lat="48.444608" lon="2.662157"><ele></ele><time>2017-9-18T18:37:16Z</time></trkpt>
<trkpt lat="48.444554" lon="2.662283"><ele></ele><time>2017-9-18T18:37:19Z</time></trkpt>
<trkpt lat="48.444494" lon="2.662434"><ele></ele><time>2017-9-18T18:37:22Z</time></trkpt>
<trkpt lat="48.444422" lon="2.662569"><ele></ele><time>2017-9-18T18:37:25Z</time></trkpt>
<trkpt lat="48.444313" lon="2.662718"><ele></ele><time>2017-9-18T18:37:28Z</time></trkpt>
<trkpt lat="48.444226" lon="2.662871"><ele></ele><time>2017-9-18T18:37:31Z</time></trkpt>
<trkpt lat="48.444162" lon="2.663025"><ele></ele><time>2017-9-18T18:37:34Z</time></trkpt>
<trkpt lat="48.444047" lon="2.663334"><ele></ele><time>2017-9-18T18:37:37Z</time></trkpt>
<trkpt lat="48.444024" lon="2.663486"><ele></ele><time>2017-9-18T18:37:40Z</time></trkpt>
<trkpt lat="48.443977" lon="2.663612"><ele></ele><time>2017-9-18T18:37:43Z</time></trkpt>
<trkpt lat="48.443983" lon="2.663755"><ele></ele><time>2017-9-18T18:37:46Z</time></trkpt>
<trkpt lat="48.444009" lon="2.663888"><ele></ele><time>2017-9-18T18:37:49Z</time></trkpt>
<trkpt lat="48.443988" lon="2.664048"><ele></ele><time>2017-9-18T18:37:52Z</time></trkpt>
<trkpt lat="48.443984" lon="2.66419"><ele></ele><time>2017-9-18T18:37:55Z</time></trkpt>
<trkpt lat="48.443987" lon="2.664332"><ele></ele><time>2017-9-18T18:37:58Z</time></trkpt>
<trkpt lat="48.443991" lon="2.664469"><ele></ele><time>2017-9-18T18:38:1Z</time></trkpt>
<trkpt lat="48.443985" lon="2.664772"><ele></ele><time>2017-9-18T18:38:4Z</time></trkpt>
<trkpt lat="48.443964" lon="2.664923"><ele></ele><time>2017-9-18T18:38:7Z</time></trkpt>
<trkpt lat="48.443957" lon="2.665066"><ele></ele><time>2017-9-18T18:38:10Z</time></trkpt>
<trkpt lat="48.443932" lon="2.665216"><ele></ele><time>2017-9-18T18:38:13Z</time></trkpt>
<trkpt lat="48.443912" lon="2.665386"><ele></ele><time>2017-9-18T18:38:16Z</time></trkpt>
<trkpt lat="48.443904" lon="2.665567"><ele></ele><time>2017-9-18T18:38:19Z</time></trkpt>
<trkpt lat="48.443907" lon="2.66571"><ele></ele><time>2017-9-18T18:38:22Z</time></trkpt>
<trkpt lat="48.443888" lon="2.665904"><ele></ele><time>2017-9-18T18:38:25Z</time></trkpt>
<trkpt lat="48.44381" lon="2.666056"><ele></ele><time>2017-9-18T18:38:28Z</time></trkpt>
<trkpt lat="48.443796" lon="2.666245"><ele></ele><time>2017-9-18T18:38:31Z</time></trkpt>
<trkpt lat="48.443747" lon="2.66638"><ele></ele><time>2017-9-18T18:38:34Z</time></trkpt>
<trkpt lat="48.443723" lon="2.666557"><ele></ele><time>2017-9-18T18:38:37Z</time></trkpt>
<trkpt lat="48.443672" lon="2.666721"><ele></ele><time>2017-9-18T18:38:40Z</time></trkpt>
<trkpt lat="48.443619" lon="2.666902"><ele></ele><time>2017-9-18T18:38:43Z</time></trkpt>
<trkpt lat="48.44356" lon="2.667071"><ele></ele><time>2017-9-18T18:38:46Z</time></trkpt>
<trkpt lat="48.443519" lon="2.667224"><ele></ele><time>2017-9-18T18:38:49Z</time></trkpt>
<trkpt lat="48.443468" lon="2.667365"><ele></ele><time>2017-9-18T18:38:52Z</time></trkpt>
<trkpt lat="48.443413" lon="2.667501"><ele></ele><time>2017-9-18T18:38:55Z</time></trkpt>
<trkpt lat="48.44334" lon="2.667644"><ele></ele><time>2017-9-18T18:38:58Z</time></trkpt>
<trkpt lat="48.443289" lon="2.667791"><ele></ele><time>2017-9-18T18:39:1Z</time></trkpt>
<trkpt lat="48.44322" lon="2.668063"><ele></ele><time>2017-9-18T18:39:4Z</time></trkpt>
<trkpt lat="48.443244" lon="2.668256"><ele></ele><time>2017-9-18T18:39:7Z</time></trkpt>
<trkpt lat="48.443269" lon="2.668406"><ele></ele><time>2017-9-18T18:39:10Z</time></trkpt>
<trkpt lat="48.443281" lon="2.668543"><ele></ele><time>2017-9-18T18:39:13Z</time></trkpt>
<trkpt lat="48.443366" lon="2.668654"><ele></ele><time>2017-9-18T18:39:16Z</time></trkpt>
<trkpt lat="48.443464" lon="2.668726"><ele></ele><time>2017-9-18T18:39:19Z</time></trkpt>
<trkpt lat="48.443571" lon="2.668774"><ele></ele><time>2017-9-18T18:39:22Z</time></trkpt>
<trkpt lat="48.443683" lon="2.668767"><ele></ele><time>2017-9-18T18:39:25Z</time></trkpt>
<trkpt lat="48.44377" lon="2.668837"><ele></ele><time>2017-9-18T18:39:28Z</time></trkpt>
<trkpt lat="48.443793" lon="2.668988"><ele></ele><time>2017-9-18T18:39:31Z</time></trkpt>
<trkpt lat="48.443786" lon="2.669131"><ele></ele><time>2017-9-18T18:39:34Z</time></trkpt>
<trkpt lat="48.443778" lon="2.66944"><ele></ele><time>2017-9-18T18:39:37Z</time></trkpt>
<trkpt lat="48.443786" lon="2.669585"><ele></ele><time>2017-9-18T18:39:40Z</time></trkpt>
<trkpt lat="48.443791" lon="2.66972"><ele></ele><time>2017-9-18T18:39:43Z</time></trkpt>
<trkpt lat="48.443809" lon="2.669906"><ele></ele><time>2017-9-18T18:39:46Z</time></trkpt>
<trkpt lat="48.443829" lon="2.670082"><ele></ele><time>2017-9-18T18:39:49Z</time></trkpt>
<trkpt lat="48.443825" lon="2.670297"><ele></ele><time>2017-9-18T18:39:52Z</time></trkpt>
<trkpt lat="48.443829" lon="2.67051"><ele></ele><time>2017-9-18T18:39:55Z</time></trkpt>
<trkpt lat="48.443833" lon="2.67066"><ele></ele><time>2017-9-18T18:39:58Z</time></trkpt>
<trkpt lat="48.443839" lon="2.670807"><ele></ele><time>2017-9-18T18:40:1Z</time></trkpt>
<trkpt lat="48.44387" lon="2.671122"><ele></ele><time>2017-9-18T18:40:4Z</time></trkpt>
<trkpt lat="48.443871" lon="2.671263"><ele></ele><time>2017-9-18T18:40:7Z</time></trkpt>
<trkpt lat="48.443876" lon="2.671407"><ele></ele><time>2017-9-18T18:40:10Z</time></trkpt>
<trkpt lat="48.44388" lon="2.67155"><ele></ele><time>2017-9-18T18:40:13Z</time></trkpt>
<trkpt lat="48.443881" lon="2.671695"><ele></ele><time>2017-9-18T18:40:16Z</time></trkpt>
<trkpt lat="48.443821" lon="2.671869"><ele></ele><time>2017-9-18T18:40:19Z</time></trkpt>
<trkpt lat="48.443761" lon="2.671972"><ele></ele><time>2017-9-18T18:40:22Z</time></trkpt>
<trkpt lat="48.443677" lon="2.672111"><ele></ele><time>2017-9-18T18:40:25Z</time></trkpt>
<trkpt lat="48.443627" lon="2.672235"><ele></ele><time>2017-9-18T18:40:28Z</time></trkpt>
<trkpt lat="48.443573" lon="2.672348"><ele></ele><time>2017-9-18T18:40:31Z</time></trkpt>
<trkpt lat="48.443517" lon="2.672496"><ele></ele><time>2017-9-18T18:40:34Z</time></trkpt>
<trkpt lat="48.443457" lon="2.672624"><ele></ele><time>2017-9-18T18:40:37Z</time></trkpt>
<trkpt lat="48.443397" lon="2.672765"><ele></ele><time>2017-9-18T18:40:40Z</time></trkpt>
<trkpt lat="48.443319" lon="2.672883"><ele></ele><time>2017-9-18T18:40:43Z</time></trkpt>
<trkpt lat="48.443225" lon="2.672977"><ele></ele><time>2017-9-18T18:40:46Z</time></trkpt>
<trkpt lat="48.44315" lon="2.673196"><ele></ele><time>2017-9-18T18:40:49Z</time></trkpt>
<trkpt lat="48.443101" lon="2.673315"><ele></ele><time>2017-9-18T18:40:52Z</time></trkpt>
<trkpt lat="48.443053" lon="2.67347"><ele></ele><time>2017-9-18T18:40:55Z</time></trkpt>
<trkpt lat="48.443024" lon="2.673627"><ele></ele><time>2017-9-18T18:40:58Z</time></trkpt>
<trkpt lat="48.442927" lon="2.673767"><ele></ele><time>2017-9-18T18:41:1Z</time></trkpt>
<trkpt lat="48.44282" lon="2.673859"><ele></ele><time>2017-9-18T18:41:4Z</time></trkpt>
<trkpt lat="48.442725" lon="2.67379"><ele></ele><time>2017-9-18T18:41:7Z</time></trkpt>
<trkpt lat="48.442605" lon="2.673839"><ele></ele><time>2017-9-18T18:41:10Z</time></trkpt>
<trkpt lat="48.442422" lon="2.674125"><ele></ele><time>2017-9-18T18:41:13Z</time></trkpt>
<trkpt lat="48.442345" lon="2.674296"><ele></ele><time>2017-9-18T18:41:16Z</time></trkpt>
<trkpt lat="48.4423" lon="2.674421"><ele></ele><time>2017-9-18T18:41:19Z</time></trkpt>
<trkpt lat="48.442272" lon="2.67458"><ele></ele><time>2017-9-18T18:41:22Z</time></trkpt>
<trkpt lat="48.442265" lon="2.674736"><ele></ele><time>2017-9-18T18:41:25Z</time></trkpt>
<trkpt lat="48.442257" lon="2.674941"><ele></ele><time>2017-9-18T18:41:28Z</time></trkpt>
<trkpt lat="48.442267" lon="2.675101"><ele></ele><time>2017-9-18T18:41:31Z</time></trkpt>
<trkpt lat="48.44226" lon="2.675262"><ele></ele><time>2017-9-18T18:41:34Z</time></trkpt>
<trkpt lat="48.442248" lon="2.675461"><ele></ele><time>2017-9-18T18:41:37Z</time></trkpt>
<trkpt lat="48.442179" lon="2.675647"><ele></ele><time>2017-9-18T18:41:40Z</time></trkpt>
<trkpt lat="48.442111" lon="2.675809"><ele></ele><time>2017-9-18T18:41:43Z</time></trkpt>
<trkpt lat="48.442058" lon="2.675928"><ele></ele><time>2017-9-18T18:41:46Z</time></trkpt>
<trkpt lat="48.44194" lon="2.675985"><ele></ele><time>2017-9-18T18:41:49Z</time></trkpt>
<trkpt lat="48.441809" lon="2.676055"><ele></ele><time>2017-9-18T18:41:52Z</time></trkpt>
<trkpt lat="48.441715" lon="2.676172"><ele></ele><time>2017-9-18T18:41:55Z</time></trkpt>
<trkpt lat="48.441646" lon="2.676312"><ele></ele><time>2017-9-18T18:41:58Z</time></trkpt>
<trkpt lat="48.441603" lon="2.676459"><ele></ele><time>2017-9-18T18:42:1Z</time></trkpt>
<trkpt lat="48.44155" lon="2.676579"><ele></ele><time>2017-9-18T18:42:4Z</time></trkpt>
<trkpt lat="48.441457" lon="2.676724"><ele></ele><time>2017-9-18T18:42:7Z</time></trkpt>
<trkpt lat="48.441377" lon="2.676841"><ele></ele><time>2017-9-18T18:42:10Z</time></trkpt>
<trkpt lat="48.441277" lon="2.676892"><ele></ele><time>2017-9-18T18:42:13Z</time></trkpt>
<trkpt lat="48.441235" lon="2.677018"><ele></ele><time>2017-9-18T18:42:16Z</time></trkpt>
<trkpt lat="48.441249" lon="2.677158"><ele></ele><time>2017-9-18T18:42:19Z</time></trkpt>
<trkpt lat="48.441299" lon="2.677288"><ele></ele><time>2017-9-18T18:42:22Z</time></trkpt>
<trkpt lat="48.441344" lon="2.677429"><ele></ele><time>2017-9-18T18:42:25Z</time></trkpt>
<trkpt lat="48.441412" lon="2.677847"><ele></ele><time>2017-9-18T18:42:28Z</time></trkpt>
<trkpt lat="48.441372" lon="2.678013"><ele></ele><time>2017-9-18T18:42:31Z</time></trkpt>
<trkpt lat="48.441368" lon="2.678173"><ele></ele><time>2017-9-18T18:42:34Z</time></trkpt>
<trkpt lat="48.4413" lon="2.678302"><ele></ele><time>2017-9-18T18:42:37Z</time></trkpt>
<trkpt lat="48.441283" lon="2.678454"><ele></ele><time>2017-9-18T18:42:40Z</time></trkpt>
<trkpt lat="48.441298" lon="2.678623"><ele></ele><time>2017-9-18T18:42:43Z</time></trkpt>
<trkpt lat="48.441239" lon="2.67873"><ele></ele><time>2017-9-18T18:42:46Z</time></trkpt>
<trkpt lat="48.44117" lon="2.678823"><ele></ele><time>2017-9-18T18:42:49Z</time></trkpt>
<trkpt lat="48.441128" lon="2.67899"><ele></ele><time>2017-9-18T18:42:52Z</time></trkpt>
<trkpt lat="48.441114" lon="2.67914"><ele></ele><time>2017-9-18T18:42:55Z</time></trkpt>
<trkpt lat="48.441126" lon="2.679289"><ele></ele><time>2017-9-18T18:42:58Z</time></trkpt>
<trkpt lat="48.44111" lon="2.679459"><ele></ele><time>2017-9-18T18:43:1Z</time></trkpt>
<trkpt lat="48.441115" lon="2.679614"><ele></ele><time>2017-9-18T18:43:4Z</time></trkpt>
<trkpt lat="48.441116" lon="2.679801"><ele></ele><time>2017-9-18T18:43:7Z</time></trkpt>
<trkpt lat="48.441132" lon="2.679941"><ele></ele><time>2017-9-18T18:43:10Z</time></trkpt>
<trkpt lat="48.441192" lon="2.680292"><ele></ele><time>2017-9-18T18:43:13Z</time></trkpt>
<trkpt lat="48.441144" lon="2.680445"><ele></ele><time>2017-9-18T18:43:16Z</time></trkpt>
<trkpt lat="48.441079" lon="2.680543"><ele></ele><time>2017-9-18T18:43:19Z</time></trkpt>
<trkpt lat="48.44099" lon="2.680609"><ele></ele><time>2017-9-18T18:43:22Z</time></trkpt>
<trkpt lat="48.440889" lon="2.680616"><ele></ele><time>2017-9-18T18:43:25Z</time></trkpt>
<trkpt lat="48.440817" lon="2.680716"><ele></ele><time>2017-9-18T18:43:28Z</time></trkpt>
<trkpt lat="48.440775" lon="2.680887"><ele></ele><time>2017-9-18T18:43:31Z</time></trkpt>
<trkpt lat="48.440729" lon="2.681042"><ele></ele><time>2017-9-18T18:43:34Z</time></trkpt>
<trkpt lat="48.440667" lon="2.681177"><ele></ele><time>2017-9-18T18:43:37Z</time></trkpt>
<trkpt lat="48.440595" lon="2.681315"><ele></ele><time>2017-9-18T18:43:40Z</time></trkpt>
<trkpt lat="48.440505" lon="2.681421"><ele></ele><time>2017-9-18T18:43:43Z</time></trkpt>
<trkpt lat="48.440477" lon="2.68156"><ele></ele><time>2017-9-18T18:43:46Z</time></trkpt>
<trkpt lat="48.440397" lon="2.681642"><ele></ele><time>2017-9-18T18:43:49Z</time></trkpt>
<trkpt lat="48.440318" lon="2.681722"><ele></ele><time>2017-9-18T18:43:52Z</time></trkpt>
<trkpt lat="48.440337" lon="2.681872"><ele></ele><time>2017-9-18T18:43:55Z</time></trkpt>
<trkpt lat="48.440294" lon="2.681994"><ele></ele><time>2017-9-18T18:43:58Z</time></trkpt>
<trkpt lat="48.440244" lon="2.682128"><ele></ele><time>2017-9-18T18:44:1Z</time></trkpt>
<trkpt lat="48.440197" lon="2.682466"><ele></ele><time>2017-9-18T18:44:4Z</time></trkpt>
<trkpt lat="48.440196" lon="2.682619"><ele></ele><time>2017-9-18T18:44:7Z</time></trkpt>
<trkpt lat="48.440183" lon="2.682784"><ele></ele><time>2017-9-18T18:44:10Z</time></trkpt>
<trkpt lat="48.44013" lon="2.682924"><ele></ele><time>2017-9-18T18:44:13Z</time></trkpt>
<trkpt lat="48.440036" lon="2.683048"><ele></ele><time>2017-9-18T18:44:16Z</time></trkpt>
<trkpt lat="48.43996" lon="2.683146"><ele></ele><time>2017-9-18T18:44:19Z</time></trkpt>
<trkpt lat="48.439895" lon="2.683287"><ele></ele><time>2017-9-18T18:44:22Z</time></trkpt>
<trkpt lat="48.439845" lon="2.683403"><ele></ele><time>2017-9-18T18:44:25Z</time></trkpt>
<trkpt lat="48.439772" lon="2.683513"><ele></ele><time>2017-9-18T18:44:28Z</time></trkpt>
<trkpt lat="48.439685" lon="2.683633"><ele></ele><time>2017-9-18T18:44:31Z</time></trkpt>
<trkpt lat="48.439599" lon="2.683713"><ele></ele><time>2017-9-18T18:44:34Z</time></trkpt>
<trkpt lat="48.439515" lon="2.683815"><ele></ele><time>2017-9-18T18:44:37Z</time></trkpt>
<trkpt lat="48.439485" lon="2.683952"><ele></ele><time>2017-9-18T18:44:40Z</time></trkpt>
<trkpt lat="48.439434" lon="2.684223"><ele></ele><time>2017-9-18T18:44:43Z</time></trkpt>
<trkpt lat="48.439347" lon="2.684267"><ele></ele><time>2017-9-18T18:44:46Z</time></trkpt>
<trkpt lat="48.439254" lon="2.684329"><ele></ele><time>2017-9-18T18:44:49Z</time></trkpt>
<trkpt lat="48.439231" lon="2.684467"><ele></ele><time>2017-9-18T18:44:52Z</time></trkpt>
<trkpt lat="48.439266" lon="2.684611"><ele></ele><time>2017-9-18T18:44:55Z</time></trkpt>
<trkpt lat="48.439278" lon="2.684798"><ele></ele><time>2017-9-18T18:44:58Z</time></trkpt>
<trkpt lat="48.439297" lon="2.68494"><ele></ele><time>2017-9-18T18:45:1Z</time></trkpt>
<trkpt lat="48.439277" lon="2.68508"><ele></ele><time>2017-9-18T18:45:4Z</time></trkpt>
<trkpt lat="48.439257" lon="2.685236"><ele></ele><time>2017-9-18T18:45:7Z</time></trkpt>
<trkpt lat="48.439311" lon="2.68535"><ele></ele><time>2017-9-18T18:45:10Z</time></trkpt>
<trkpt lat="48.439339" lon="2.685488"><ele></ele><time>2017-9-18T18:45:13Z</time></trkpt>
<trkpt lat="48.439347" lon="2.685631"><ele></ele><time>2017-9-18T18:45:16Z</time></trkpt>
<trkpt lat="48.439362" lon="2.685787"><ele></ele><time>2017-9-18T18:45:19Z</time></trkpt>
<trkpt lat="48.439425" lon="2.685928"><ele></ele><time>2017-9-18T18:45:22Z</time></trkpt>
<trkpt lat="48.439498" lon="2.686017"><ele></ele><time>2017-9-18T18:45:25Z</time></trkpt>
<trkpt lat="48.439643" lon="2.686294"><ele></ele><time>2017-9-18T18:45:28Z</time></trkpt>
<trkpt lat="48.439699" lon="2.686416"><ele></ele><time>2017-9-18T18:45:31Z</time></trkpt>
<trkpt lat="48.43975" lon="2.686571"><ele></ele><time>2017-9-18T18:45:34Z</time></trkpt>
<trkpt lat="48.439788" lon="2.686724"><ele></ele><time>2017-9-18T18:45:37Z</time></trkpt>
<trkpt lat="48.439807" lon="2.686928"><ele></ele><time>2017-9-18T18:45:40Z</time></trkpt>
<trkpt lat="48.439808" lon="2.687065"><ele></ele><time>2017-9-18T18:45:43Z</time></trkpt>
<trkpt lat="48.43984" lon="2.687225"><ele></ele><time>2017-9-18T18:45:46Z</time></trkpt>
<trkpt lat="48.439854" lon="2.687398"><ele></ele><time>2017-9-18T18:45:49Z</time></trkpt>
<trkpt lat="48.439846" lon="2.687586"><ele></ele><time>2017-9-18T18:45:52Z</time></trkpt>
<trkpt lat="48.439818" lon="2.687726"><ele></ele><time>2017-9-18T18:45:55Z</time></trkpt>
<trkpt lat="48.439812" lon="2.68789"><ele></ele><time>2017-9-18T18:45:58Z</time></trkpt>
<trkpt lat="48.439886" lon="2.687998"><ele></ele><time>2017-9-18T18:46:1Z</time></trkpt>
<trkpt lat="48.439981" lon="2.688066"><ele></ele><time>2017-9-18T18:46:4Z</time></trkpt>
<trkpt lat="48.440075" lon="2.687974"><ele></ele><time>2017-9-18T18:46:7Z</time></trkpt>
<trkpt lat="48.440131" lon="2.687827"><ele></ele><time>2017-9-18T18:46:10Z</time></trkpt>
<trkpt lat="48.440204" lon="2.687711"><ele></ele><time>2017-9-18T18:46:13Z</time></trkpt>
<trkpt lat="48.440306" lon="2.68776"><ele></ele><time>2017-9-18T18:46:16Z</time></trkpt>
<trkpt lat="48.440405" lon="2.687759"><ele></ele><time>2017-9-18T18:46:19Z</time></trkpt>
<trkpt lat="48.440572" lon="2.687643"><ele></ele><time>2017-9-18T18:46:22Z</time></trkpt>
<trkpt lat="48.440649" lon="2.687529"><ele></ele><time>2017-9-18T18:46:25Z</time></trkpt>
<trkpt lat="48.440726" lon="2.687456"><ele></ele><time>2017-9-18T18:46:28Z</time></trkpt>
<trkpt lat="48.440815" lon="2.687496"><ele></ele><time>2017-9-18T18:46:31Z</time></trkpt>
<trkpt lat="48.440889" lon="2.687591"><ele></ele><time>2017-9-18T18:46:34Z</time></trkpt>
<trkpt lat="48.440951" lon="2.68775"><ele></ele><time>2017-9-18T18:46:37Z</time></trkpt>
<trkpt lat="48.440942" lon="2.687945"><ele></ele><time>2017-9-18T18:46:40Z</time></trkpt>
<trkpt lat="48.440942" lon="2.688117"><ele></ele><time>2017-9-18T18:46:43Z</time></trkpt>
<trkpt lat="48.440994" lon="2.688246"><ele></ele><time>2017-9-18T18:46:46Z</time></trkpt>
<trkpt lat="48.441036" lon="2.688381"><ele></ele><time>2017-9-18T18:46:49Z</time></trkpt>
<trkpt lat="48.440973" lon="2.68828"><ele></ele><time>2017-9-18T18:46:52Z</time></trkpt>
<trkpt lat="48.440803" lon="2.688363"><ele></ele><time>2017-9-18T18:46:55Z</time></trkpt>
<trkpt lat="48.440715" lon="2.6884"><ele></ele><time>2017-9-18T18:46:58Z</time></trkpt>
<trkpt lat="48.440625" lon="2.688445"><ele></ele><time>2017-9-18T18:47:1Z</time></trkpt>
<trkpt lat="48.440519" lon="2.688503"><ele></ele><time>2017-9-18T18:47:4Z</time></trkpt>
<trkpt lat="48.440417" lon="2.688504"><ele></ele><time>2017-9-18T18:47:7Z</time></trkpt>
<trkpt lat="48.440306" lon="2.688478"><ele></ele><time>2017-9-18T18:47:10Z</time></trkpt>
<trkpt lat="48.440211" lon="2.688451"><ele></ele><time>2017-9-18T18:47:13Z</time></trkpt>
<trkpt lat="48.440126" lon="2.688399"><ele></ele><time>2017-9-18T18:47:16Z</time></trkpt>
<trkpt lat="48.440044" lon="2.688325"><ele></ele><time>2017-9-18T18:47:19Z</time></trkpt>
<trkpt lat="48.439851" lon="2.688209"><ele></ele><time>2017-9-18T18:47:22Z</time></trkpt>
<trkpt lat="48.439734" lon="2.688191"><ele></ele><time>2017-9-18T18:47:25Z</time></trkpt>
<trkpt lat="48.439625" lon="2.688233"><ele></ele><time>2017-9-18T18:47:28Z</time></trkpt>
<trkpt lat="48.439528" lon="2.688283"><ele></ele><time>2017-9-18T18:47:31Z</time></trkpt>
<trkpt lat="48.439443" lon="2.688343"><ele></ele><time>2017-9-18T18:47:34Z</time></trkpt>
<trkpt lat="48.439398" lon="2.68854"><ele></ele><time>2017-9-18T18:47:37Z</time></trkpt>
<trkpt lat="48.43939" lon="2.688686"><ele></ele><time>2017-9-18T18:47:40Z</time></trkpt>
<trkpt lat="48.439423" lon="2.688821"><ele></ele><time>2017-9-18T18:47:43Z</time></trkpt>
<trkpt lat="48.439452" lon="2.689003"><ele></ele><time>2017-9-18T18:47:46Z</time></trkpt>
<trkpt lat="48.439481" lon="2.689147"><ele></ele><time>2017-9-18T18:47:49Z</time></trkpt>
<trkpt lat="48.439477" lon="2.6893"><ele></ele><time>2017-9-18T18:47:52Z</time></trkpt>
<trkpt lat="48.439457" lon="2.689487"><ele></ele><time>2017-9-18T18:47:55Z</time></trkpt>
<trkpt lat="48.439379" lon="2.689561"><ele></ele><time>2017-9-18T18:47:58Z</time></trkpt>
<trkpt lat="48.439281" lon="2.689536"><ele></ele><time>2017-9-18T18:48:1Z</time></trkpt>
<trkpt lat="48.43918" lon="2.689476"><ele></ele><time>2017-9-18T18:48:4Z</time></trkpt>
<trkpt lat="48.439078" lon="2.68941"><ele></ele><time>2017-9-18T18:48:7Z</time></trkpt>
<trkpt lat="48.438868" lon="2.68927"><ele></ele><time>2017-9-18T18:48:10Z</time></trkpt>
<trkpt lat="48.438751" lon="2.689275"><ele></ele><time>2017-9-18T18:48:13Z</time></trkpt>
<trkpt lat="48.438644" lon="2.689322"><ele></ele><time>2017-9-18T18:48:16Z</time></trkpt>
<trkpt lat="48.438546" lon="2.689364"><ele></ele><time>2017-9-18T18:48:19Z</time></trkpt>
<trkpt lat="48.438459" lon="2.689399"><ele></ele><time>2017-9-18T18:48:22Z</time></trkpt>
<trkpt lat="48.438373" lon="2.689441"><ele></ele><time>2017-9-18T18:48:25Z</time></trkpt>
<trkpt lat="48.43826" lon="2.689457"><ele></ele><time>2017-9-18T18:48:28Z</time></trkpt>
<trkpt lat="48.438173" lon="2.689505"><ele></ele><time>2017-9-18T18:48:31Z</time></trkpt>
<trkpt lat="48.438085" lon="2.689565"><ele></ele><time>2017-9-18T18:48:34Z</time></trkpt>
<trkpt lat="48.437996" lon="2.689632"><ele></ele><time>2017-9-18T18:48:37Z</time></trkpt>
<trkpt lat="48.437896" lon="2.689696"><ele></ele><time>2017-9-18T18:48:40Z</time></trkpt>
<trkpt lat="48.437803" lon="2.689747"><ele></ele><time>2017-9-18T18:48:43Z</time></trkpt>
<trkpt lat="48.437712" lon="2.689784"><ele></ele><time>2017-9-18T18:48:46Z</time></trkpt>
<trkpt lat="48.437622" lon="2.689852"><ele></ele><time>2017-9-18T18:48:49Z</time></trkpt>
<trkpt lat="48.437531" lon="2.689887"><ele></ele><time>2017-9-18T18:48:52Z</time></trkpt>
<trkpt lat="48.43742" lon="2.689967"><ele></ele><time>2017-9-18T18:48:55Z</time></trkpt>
<trkpt lat="48.437339" lon="2.690051"><ele></ele><time>2017-9-18T18:48:58Z</time></trkpt>
<trkpt lat="48.437242" lon="2.690256"><ele></ele><time>2017-9-18T18:49:1Z</time></trkpt>
<trkpt lat="48.437199" lon="2.69039"><ele></ele><time>2017-9-18T18:49:4Z</time></trkpt>
<trkpt lat="48.43707" lon="2.69067"><ele></ele><time>2017-9-18T18:49:7Z</time></trkpt>
<trkpt lat="48.436968" lon="2.690766"><ele></ele><time>2017-9-18T18:49:10Z</time></trkpt>
<trkpt lat="48.436855" lon="2.690844"><ele></ele><time>2017-9-18T18:49:13Z</time></trkpt>
<trkpt lat="48.436743" lon="2.690941"><ele></ele><time>2017-9-18T18:49:16Z</time></trkpt>
<trkpt lat="48.436658" lon="2.691071"><ele></ele><time>2017-9-18T18:49:19Z</time></trkpt>
<trkpt lat="48.436577" lon="2.691201"><ele></ele><time>2017-9-18T18:49:22Z</time></trkpt>
<trkpt lat="48.436579" lon="2.691369"><ele></ele><time>2017-9-18T18:49:25Z</time></trkpt>
<trkpt lat="48.436524" lon="2.691505"><ele></ele><time>2017-9-18T18:49:28Z</time></trkpt>
<trkpt lat="48.436417" lon="2.691515"><ele></ele><time>2017-9-18T18:49:31Z</time></trkpt>
<trkpt lat="48.436315" lon="2.691558"><ele></ele><time>2017-9-18T18:49:34Z</time></trkpt>
<trkpt lat="48.436226" lon="2.69162"><ele></ele><time>2017-9-18T18:49:37Z</time></trkpt>
<trkpt lat="48.436142" lon="2.691739"><ele></ele><time>2017-9-18T18:49:40Z</time></trkpt>
<trkpt lat="48.436063" lon="2.691863"><ele></ele><time>2017-9-18T18:49:43Z</time></trkpt>
<trkpt lat="48.436013" lon="2.692002"><ele></ele><time>2017-9-18T18:49:46Z</time></trkpt>
<trkpt lat="48.435918" lon="2.692092"><ele></ele><time>2017-9-18T18:49:49Z</time></trkpt>
<trkpt lat="48.43584" lon="2.692188"><ele></ele><time>2017-9-18T18:49:52Z</time></trkpt>
<trkpt lat="48.435791" lon="2.692309"><ele></ele><time>2017-9-18T18:49:55Z</time></trkpt>
<trkpt lat="48.435705" lon="2.692392"><ele></ele><time>2017-9-18T18:49:58Z</time></trkpt>
<trkpt lat="48.435596" lon="2.692452"><ele></ele><time>2017-9-18T18:50:1Z</time></trkpt>
<trkpt lat="48.435395" lon="2.692374"><ele></ele><time>2017-9-18T18:50:4Z</time></trkpt>
<trkpt lat="48.435299" lon="2.692393"><ele></ele><time>2017-9-18T18:50:7Z</time></trkpt>
<trkpt lat="48.435203" lon="2.69234"><ele></ele><time>2017-9-18T18:50:10Z</time></trkpt>
<trkpt lat="48.435106" lon="2.692353"><ele></ele><time>2017-9-18T18:50:13Z</time></trkpt>
<trkpt lat="48.435008" lon="2.692377"><ele></ele><time>2017-9-18T18:50:16Z</time></trkpt>
<trkpt lat="48.434905" lon="2.692406"><ele></ele><time>2017-9-18T18:50:19Z</time></trkpt>
<trkpt lat="48.434801" lon="2.692456"><ele></ele><time>2017-9-18T18:50:22Z</time></trkpt>
<trkpt lat="48.434682" lon="2.692494"><ele></ele><time>2017-9-18T18:50:25Z</time></trkpt>
<trkpt lat="48.434575" lon="2.692533"><ele></ele><time>2017-9-18T18:50:28Z</time></trkpt>
<trkpt lat="48.43445" lon="2.69253"><ele></ele><time>2017-9-18T18:50:31Z</time></trkpt>
<trkpt lat="48.434342" lon="2.69251"><ele></ele><time>2017-9-18T18:50:34Z</time></trkpt>
<trkpt lat="48.434227" lon="2.692511"><ele></ele><time>2017-9-18T18:50:37Z</time></trkpt>
<trkpt lat="48.434109" lon="2.692507"><ele></ele><time>2017-9-18T18:50:40Z</time></trkpt>
<trkpt lat="48.433996" lon="2.692449"><ele></ele><time>2017-9-18T18:50:43Z</time></trkpt>
<trkpt lat="48.433859" lon="2.692432"><ele></ele><time>2017-9-18T18:50:46Z</time></trkpt>
<trkpt lat="48.433746" lon="2.692431"><ele></ele><time>2017-9-18T18:50:49Z</time></trkpt>
<trkpt lat="48.433635" lon="2.692419"><ele></ele><time>2017-9-18T18:50:52Z</time></trkpt>
<trkpt lat="48.433428" lon="2.692377"><ele></ele><time>2017-9-18T18:50:55Z</time></trkpt>
<trkpt lat="48.433333" lon="2.69235"><ele></ele><time>2017-9-18T18:50:58Z</time></trkpt>
<trkpt lat="48.433239" lon="2.692314"><ele></ele><time>2017-9-18T18:51:1Z</time></trkpt>
<trkpt lat="48.433148" lon="2.692271"><ele></ele><time>2017-9-18T18:51:4Z</time></trkpt>
<trkpt lat="48.433042" lon="2.692226"><ele></ele><time>2017-9-18T18:51:7Z</time></trkpt>
<trkpt lat="48.43293" lon="2.692192"><ele></ele><time>2017-9-18T18:51:10Z</time></trkpt>
<trkpt lat="48.432835" lon="2.692156"><ele></ele><time>2017-9-18T18:51:13Z</time></trkpt>
<trkpt lat="48.432697" lon="2.692159"><ele></ele><time>2017-9-18T18:51:16Z</time></trkpt>
<trkpt lat="48.432604" lon="2.692213"><ele></ele><time>2017-9-18T18:51:19Z</time></trkpt>
<trkpt lat="48.432519" lon="2.692313"><ele></ele><time>2017-9-18T18:51:22Z</time></trkpt>
<trkpt lat="48.432426" lon="2.692357"><ele></ele><time>2017-9-18T18:51:25Z</time></trkpt>
<trkpt lat="48.432331" lon="2.692301"><ele></ele><time>2017-9-18T18:51:28Z</time></trkpt>
<trkpt lat="48.432247" lon="2.69219"><ele></ele><time>2017-9-18T18:51:31Z</time></trkpt>
<trkpt lat="48.432197" lon="2.692077"><ele></ele><time>2017-9-18T18:51:34Z</time></trkpt>
<trkpt lat="48.432125" lon="2.691931"><ele></ele><time>2017-9-18T18:51:37Z</time></trkpt>
<trkpt lat="48.431988" lon="2.691702"><ele></ele><time>2017-9-18T18:51:40Z</time></trkpt>
<trkpt lat="48.431937" lon="2.691581"><ele></ele><time>2017-9-18T18:51:43Z</time></trkpt>
<trkpt lat="48.43187" lon="2.691474"><ele></ele><time>2017-9-18T18:51:46Z</time></trkpt>
<trkpt lat="48.431777" lon="2.691326"><ele></ele><time>2017-9-18T18:51:49Z</time></trkpt>
<trkpt lat="48.431721" lon="2.691219"><ele></ele><time>2017-9-18T18:51:52Z</time></trkpt>
<trkpt lat="48.431659" lon="2.69108"><ele></ele><time>2017-9-18T18:51:55Z</time></trkpt>
<trkpt lat="48.431592" lon="2.690931"><ele></ele><time>2017-9-18T18:51:58Z</time></trkpt>
<trkpt lat="48.43153" lon="2.690768"><ele></ele><time>2017-9-18T18:52:1Z</time></trkpt>
<trkpt lat="48.431484" lon="2.6906"><ele></ele><time>2017-9-18T18:52:4Z</time></trkpt>
<trkpt lat="48.431435" lon="2.690444"><ele></ele><time>2017-9-18T18:52:7Z</time></trkpt>
<trkpt lat="48.431396" lon="2.690297"><ele></ele><time>2017-9-18T18:52:10Z</time></trkpt>
<trkpt lat="48.431349" lon="2.690119"><ele></ele><time>2017-9-18T18:52:13Z</time></trkpt>
<trkpt lat="48.431312" lon="2.689935"><ele></ele><time>2017-9-18T18:52:16Z</time></trkpt>
<trkpt lat="48.431269" lon="2.68973"><ele></ele><time>2017-9-18T18:52:19Z</time></trkpt>
<trkpt lat="48.431254" lon="2.689568"><ele></ele><time>2017-9-18T18:52:22Z</time></trkpt>
<trkpt lat="48.431234" lon="2.689403"><ele></ele><time>2017-9-18T18:52:25Z</time></trkpt>
<trkpt lat="48.431221" lon="2.689245"><ele></ele><time>2017-9-18T18:52:28Z</time></trkpt>
<trkpt lat="48.431242" lon="2.68906"><ele></ele><time>2017-9-18T18:52:31Z</time></trkpt>
<trkpt lat="48.431261" lon="2.688917"><ele></ele><time>2017-9-18T18:52:34Z</time></trkpt>
<trkpt lat="48.431281" lon="2.688775"><ele></ele><time>2017-9-18T18:52:37Z</time></trkpt>
<trkpt lat="48.431301" lon="2.688611"><ele></ele><time>2017-9-18T18:52:40Z</time></trkpt>
<trkpt lat="48.431332" lon="2.68845"><ele></ele><time>2017-9-18T18:52:43Z</time></trkpt>
<trkpt lat="48.431387" lon="2.688182"><ele></ele><time>2017-9-18T18:52:46Z</time></trkpt>
<trkpt lat="48.431421" lon="2.688053"><ele></ele><time>2017-9-18T18:52:49Z</time></trkpt>
<trkpt lat="48.431488" lon="2.687928"><ele></ele><time>2017-9-18T18:52:52Z</time></trkpt>
<trkpt lat="48.431381" lon="2.687947"><ele></ele><time>2017-9-18T18:52:55Z</time></trkpt>
<trkpt lat="48.431296" lon="2.688035"><ele></ele><time>2017-9-18T18:52:58Z</time></trkpt>
<trkpt lat="48.431205" lon="2.688071"><ele></ele><time>2017-9-18T18:53:1Z</time></trkpt>
<trkpt lat="48.431112" lon="2.688091"><ele></ele><time>2017-9-18T18:53:4Z</time></trkpt>
<trkpt lat="48.431021" lon="2.688106"><ele></ele><time>2017-9-18T18:53:7Z</time></trkpt>
<trkpt lat="48.430972" lon="2.68799"><ele></ele><time>2017-9-18T18:53:10Z</time></trkpt>
<trkpt lat="48.430901" lon="2.687834"><ele></ele><time>2017-9-18T18:53:13Z</time></trkpt>
<trkpt lat="48.430853" lon="2.687555"><ele></ele><time>2017-9-18T18:53:16Z</time></trkpt>
<trkpt lat="48.430867" lon="2.68742"><ele></ele><time>2017-9-18T18:53:19Z</time></trkpt>
<trkpt lat="48.430843" lon="2.687285"><ele></ele><time>2017-9-18T18:53:22Z</time></trkpt>
<trkpt lat="48.430857" lon="2.687129"><ele></ele><time>2017-9-18T18:53:25Z</time></trkpt>
<trkpt lat="48.430891" lon="2.686975"><ele></ele><time>2017-9-18T18:53:28Z</time></trkpt>
<trkpt lat="48.430899" lon="2.686829"><ele></ele><time>2017-9-18T18:53:31Z</time></trkpt>
<trkpt lat="48.430922" lon="2.68667"><ele></ele><time>2017-9-18T18:53:34Z</time></trkpt>
<trkpt lat="48.430992" lon="2.68651"><ele></ele><time>2017-9-18T18:53:37Z</time></trkpt>
<trkpt lat="48.431033" lon="2.686367"><ele></ele><time>2017-9-18T18:53:40Z</time></trkpt>
<trkpt lat="48.431082" lon="2.686244"><ele></ele><time>2017-9-18T18:53:43Z</time></trkpt>
<trkpt lat="48.431108" lon="2.686111"><ele></ele><time>2017-9-18T18:53:46Z</time></trkpt>
<trkpt lat="48.431121" lon="2.68597"><ele></ele><time>2017-9-18T18:53:49Z</time></trkpt>
<trkpt lat="48.431216" lon="2.685907"><ele></ele><time>2017-9-18T18:53:52Z</time></trkpt>
<trkpt lat="48.431308" lon="2.6858"><ele></ele><time>2017-9-18T18:53:55Z</time></trkpt>
<trkpt lat="48.431356" lon="2.685608"><ele></ele><time>2017-9-18T18:53:58Z</time></trkpt>
<trkpt lat="48.431401" lon="2.685475"><ele></ele><time>2017-9-18T18:54:1Z</time></trkpt>
<trkpt lat="48.431471" lon="2.68533"><ele></ele><time>2017-9-18T18:54:4Z</time></trkpt>
<trkpt lat="48.431508" lon="2.685205"><ele></ele><time>2017-9-18T18:54:7Z</time></trkpt>
<trkpt lat="48.43159" lon="2.684928"><ele></ele><time>2017-9-18T18:54:10Z</time></trkpt>
<trkpt lat="48.431629" lon="2.68478"><ele></ele><time>2017-9-18T18:54:13Z</time></trkpt>
<trkpt lat="48.431659" lon="2.684652"><ele></ele><time>2017-9-18T18:54:16Z</time></trkpt>
<trkpt lat="48.43173" lon="2.684499"><ele></ele><time>2017-9-18T18:54:19Z</time></trkpt>
<trkpt lat="48.431735" lon="2.684347"><ele></ele><time>2017-9-18T18:54:22Z</time></trkpt>
<trkpt lat="48.431811" lon="2.684211"><ele></ele><time>2017-9-18T18:54:25Z</time></trkpt>
<trkpt lat="48.431873" lon="2.684092"><ele></ele><time>2017-9-18T18:54:28Z</time></trkpt>
<trkpt lat="48.431932" lon="2.683978"><ele></ele><time>2017-9-18T18:54:31Z</time></trkpt>
<trkpt lat="48.432034" lon="2.683846"><ele></ele><time>2017-9-18T18:54:34Z</time></trkpt>
<trkpt lat="48.432104" lon="2.683732"><ele></ele><time>2017-9-18T18:54:37Z</time></trkpt>
<trkpt lat="48.4322" lon="2.683663"><ele></ele><time>2017-9-18T18:54:40Z</time></trkpt>
<trkpt lat="48.43229" lon="2.683558"><ele></ele><time>2017-9-18T18:54:43Z</time></trkpt>
<trkpt lat="48.432303" lon="2.683416"><ele></ele><time>2017-9-18T18:54:46Z</time></trkpt>
<trkpt lat="48.432354" lon="2.683263"><ele></ele><time>2017-9-18T18:54:49Z</time></trkpt>
<trkpt lat="48.432402" lon="2.683096"><ele></ele><time>2017-9-18T18:54:52Z</time></trkpt>
<trkpt lat="48.432434" lon="2.682969"><ele></ele><time>2017-9-18T18:54:55Z</time></trkpt>
<trkpt lat="48.432472" lon="2.682799"><ele></ele><time>2017-9-18T18:54:58Z</time></trkpt>
<trkpt lat="48.43249" lon="2.682666"><ele></ele><time>2017-9-18T18:55:1Z</time></trkpt>
<trkpt lat="48.432529" lon="2.682483"><ele></ele><time>2017-9-18T18:55:4Z</time></trkpt>
<trkpt lat="48.43261" lon="2.682379"><ele></ele><time>2017-9-18T18:55:7Z</time></trkpt>
<trkpt lat="48.432623" lon="2.682214"><ele></ele><time>2017-9-18T18:55:10Z</time></trkpt>
<trkpt lat="48.432653" lon="2.682024"><ele></ele><time>2017-9-18T18:55:13Z</time></trkpt>
<trkpt lat="48.432679" lon="2.681712"><ele></ele><time>2017-9-18T18:55:16Z</time></trkpt>
<trkpt lat="48.432641" lon="2.681559"><ele></ele><time>2017-9-18T18:55:19Z</time></trkpt>
<trkpt lat="48.432593" lon="2.681424"><ele></ele><time>2017-9-18T18:55:22Z</time></trkpt>
<trkpt lat="48.432538" lon="2.681268"><ele></ele><time>2017-9-18T18:55:25Z</time></trkpt>
<trkpt lat="48.432468" lon="2.681144"><ele></ele><time>2017-9-18T18:55:28Z</time></trkpt>
<trkpt lat="48.43239" lon="2.680969"><ele></ele><time>2017-9-18T18:55:31Z</time></trkpt>
<trkpt lat="48.432319" lon="2.680836"><ele></ele><time>2017-9-18T18:55:34Z</time></trkpt>
<trkpt lat="48.432265" lon="2.680724"><ele></ele><time>2017-9-18T18:55:37Z</time></trkpt>
<trkpt lat="48.432205" lon="2.680581"><ele></ele><time>2017-9-18T18:55:40Z</time></trkpt>
<trkpt lat="48.432132" lon="2.680454"><ele></ele><time>2017-9-18T18:55:43Z</time></trkpt>
<trkpt lat="48.432077" lon="2.680318"><ele></ele><time>2017-9-18T18:55:46Z</time></trkpt>
<trkpt lat="48.432012" lon="2.680196"><ele></ele><time>2017-9-18T18:55:49Z</time></trkpt>
<trkpt lat="48.431927" lon="2.680105"><ele></ele><time>2017-9-18T18:55:52Z</time></trkpt>
<trkpt lat="48.431848" lon="2.680015"><ele></ele><time>2017-9-18T18:55:55Z</time></trkpt>
<trkpt lat="48.431745" lon="2.679911"><ele></ele><time>2017-9-18T18:55:58Z</time></trkpt>
<trkpt lat="48.431637" lon="2.679815"><ele></ele><time>2017-9-18T18:56:1Z</time></trkpt>
<trkpt lat="48.431557" lon="2.679693"><ele></ele><time>2017-9-18T18:56:4Z</time></trkpt>
<trkpt lat="48.431454" lon="2.679634"><ele></ele><time>2017-9-18T18:56:7Z</time></trkpt>
<trkpt lat="48.431344" lon="2.679599"><ele></ele><time>2017-9-18T18:56:10Z</time></trkpt>
<trkpt lat="48.431248" lon="2.679494"><ele></ele><time>2017-9-18T18:56:13Z</time></trkpt>
<trkpt lat="48.431068" lon="2.679286"><ele></ele><time>2017-9-18T18:56:16Z</time></trkpt>
<trkpt lat="48.430955" lon="2.679173"><ele></ele><time>2017-9-18T18:56:19Z</time></trkpt>
<trkpt lat="48.43086" lon="2.679064"><ele></ele><time>2017-9-18T18:56:22Z</time></trkpt>
<trkpt lat="48.430762" lon="2.678974"><ele></ele><time>2017-9-18T18:56:25Z</time></trkpt>
<trkpt lat="48.430682" lon="2.678873"><ele></ele><time>2017-9-18T18:56:28Z</time></trkpt>
<trkpt lat="48.430558" lon="2.678779"><ele></ele><time>2017-9-18T18:56:31Z</time></trkpt>
<trkpt lat="48.430477" lon="2.678666"><ele></ele><time>2017-9-18T18:56:34Z</time></trkpt>
<trkpt lat="48.430398" lon="2.678595"><ele></ele><time>2017-9-18T18:56:37Z</time></trkpt>
<trkpt lat="48.430308" lon="2.678544"><ele></ele><time>2017-9-18T18:56:40Z</time></trkpt>
<trkpt lat="48.430221" lon="2.678593"><ele></ele><time>2017-9-18T18:56:43Z</time></trkpt>
<trkpt lat="48.430128" lon="2.678487"><ele></ele><time>2017-9-18T18:56:46Z</time></trkpt>
<trkpt lat="48.430077" lon="2.678352"><ele></ele><time>2017-9-18T18:56:49Z</time></trkpt>
<trkpt lat="48.430032" lon="2.678219"><ele></ele><time>2017-9-18T18:56:52Z</time></trkpt>
<trkpt lat="48.429941" lon="2.678107"><ele></ele><time>2017-9-18T18:56:55Z</time></trkpt>
<trkpt lat="48.429799" lon="2.677904"><ele></ele><time>2017-9-18T18:56:58Z</time></trkpt>
<trkpt lat="48.429707" lon="2.677844"><ele></ele><time>2017-9-18T18:57:1Z</time></trkpt>
<trkpt lat="48.429636" lon="2.677721"><ele></ele><time>2017-9-18T18:57:4Z</time></trkpt>
<trkpt lat="48.429531" lon="2.677714"><ele></ele><time>2017-9-18T18:57:7Z</time></trkpt>
<trkpt lat="48.429439" lon="2.677682"><ele></ele><time>2017-9-18T18:57:10Z</time></trkpt>
<trkpt lat="48.429345" lon="2.677618"><ele></ele><time>2017-9-18T18:57:13Z</time></trkpt>
<trkpt lat="48.429263" lon="2.677535"><ele></ele><time>2017-9-18T18:57:16Z</time></trkpt>
<trkpt lat="48.429186" lon="2.677384"><ele></ele><time>2017-9-18T18:57:19Z</time></trkpt>
<trkpt lat="48.42912" lon="2.677282"><ele></ele><time>2017-9-18T18:57:22Z</time></trkpt>
<trkpt lat="48.429057" lon="2.677171"><ele></ele><time>2017-9-18T18:57:25Z</time></trkpt>
<trkpt lat="48.42899" lon="2.677066"><ele></ele><time>2017-9-18T18:57:28Z</time></trkpt>
<trkpt lat="48.428912" lon="2.676956"><ele></ele><time>2017-9-18T18:57:31Z</time></trkpt>
<trkpt lat="48.428852" lon="2.676831"><ele></ele><time>2017-9-18T18:57:34Z</time></trkpt>
<trkpt lat="48.428778" lon="2.67669"><ele></ele><time>2017-9-18T18:57:37Z</time></trkpt>
<trkpt lat="48.428732" lon="2.676564"><ele></ele><time>2017-9-18T18:57:40Z</time></trkpt>
<trkpt lat="48.42862" lon="2.676341"><ele></ele><time>2017-9-18T18:57:43Z</time></trkpt>
<trkpt lat="48.428535" lon="2.676245"><ele></ele><time>2017-9-18T18:57:46Z</time></trkpt>
<trkpt lat="48.42848" lon="2.676116"><ele></ele><time>2017-9-18T18:57:49Z</time></trkpt>
<trkpt lat="48.428413" lon="2.675976"><ele></ele><time>2017-9-18T18:57:52Z</time></trkpt>
<trkpt lat="48.428366" lon="2.675855"><ele></ele><time>2017-9-18T18:57:55Z</time></trkpt>
<trkpt lat="48.428324" lon="2.67572"><ele></ele><time>2017-9-18T18:57:58Z</time></trkpt>
<trkpt lat="48.428272" lon="2.675446"><ele></ele><time>2017-9-18T18:58:1Z</time></trkpt>
<trkpt lat="48.428267" lon="2.675309"><ele></ele><time>2017-9-18T18:58:4Z</time></trkpt>
<trkpt lat="48.428229" lon="2.675159"><ele></ele><time>2017-9-18T18:58:7Z</time></trkpt>
<trkpt lat="48.428177" lon="2.675014"><ele></ele><time>2017-9-18T18:58:10Z</time></trkpt>
<trkpt lat="48.428126" lon="2.674886"><ele></ele><time>2017-9-18T18:58:13Z</time></trkpt>
<trkpt lat="48.428054" lon="2.67462"><ele></ele><time>2017-9-18T18:58:16Z</time></trkpt>
<trkpt lat="48.428091" lon="2.67449"><ele></ele><time>2017-9-18T18:58:19Z</time></trkpt>
<trkpt lat="48.42805" lon="2.67435"><ele></ele><time>2017-9-18T18:58:22Z</time></trkpt>
<trkpt lat="48.427983" lon="2.674255"><ele></ele><time>2017-9-18T18:58:25Z</time></trkpt>
<trkpt lat="48.42793" lon="2.674143"><ele></ele><time>2017-9-18T18:58:28Z</time></trkpt>
<trkpt lat="48.427759" lon="2.674032"><ele></ele><time>2017-9-18T18:58:31Z</time></trkpt>
<trkpt lat="48.427702" lon="2.673923"><ele></ele><time>2017-9-18T18:58:34Z</time></trkpt>
<trkpt lat="48.427596" lon="2.673699"><ele></ele><time>2017-9-18T18:58:37Z</time></trkpt>
<trkpt lat="48.427522" lon="2.673618"><ele></ele><time>2017-9-18T18:58:40Z</time></trkpt>
<trkpt lat="48.427466" lon="2.673503"><ele></ele><time>2017-9-18T18:58:43Z</time></trkpt>
<trkpt lat="48.427332" lon="2.673286"><ele></ele><time>2017-9-18T18:58:46Z</time></trkpt>
<trkpt lat="48.427184" lon="2.673124"><ele></ele><time>2017-9-18T18:58:49Z</time></trkpt>
<trkpt lat="48.427091" lon="2.673069"><ele></ele><time>2017-9-18T18:58:52Z</time></trkpt>
<trkpt lat="48.427022" lon="2.67297"><ele></ele><time>2017-9-18T18:58:55Z</time></trkpt>
<trkpt lat="48.42685" lon="2.672851"><ele></ele><time>2017-9-18T18:58:58Z</time></trkpt>
<trkpt lat="48.426856" lon="2.67269"><ele></ele><time>2017-9-18T18:59:1Z</time></trkpt>
<trkpt lat="48.426901" lon="2.672538"><ele></ele><time>2017-9-18T18:59:4Z</time></trkpt>
<trkpt lat="48.426918" lon="2.6724"><ele></ele><time>2017-9-18T18:59:7Z</time></trkpt>
<trkpt lat="48.42693" lon="2.672243"><ele></ele><time>2017-9-18T18:59:10Z</time></trkpt>
<trkpt lat="48.426943" lon="2.672047"><ele></ele><time>2017-9-18T18:59:13Z</time></trkpt>
<trkpt lat="48.42697" lon="2.671872"><ele></ele><time>2017-9-18T18:59:16Z</time></trkpt>
<trkpt lat="48.427011" lon="2.67168"><ele></ele><time>2017-9-18T18:59:19Z</time></trkpt>
<trkpt lat="48.427074" lon="2.671506"><ele></ele><time>2017-9-18T18:59:22Z</time></trkpt>
<trkpt lat="48.427118" lon="2.671336"><ele></ele><time>2017-9-18T18:59:25Z</time></trkpt>
<trkpt lat="48.427164" lon="2.671203"><ele></ele><time>2017-9-18T18:59:28Z</time></trkpt>
<trkpt lat="48.427248" lon="2.670822"><ele></ele><time>2017-9-18T18:59:31Z</time></trkpt>
<trkpt lat="48.427283" lon="2.670687"><ele></ele><time>2017-9-18T18:59:34Z</time></trkpt>
<trkpt lat="48.427321" lon="2.670547"><ele></ele><time>2017-9-18T18:59:37Z</time></trkpt>
<trkpt lat="48.427367" lon="2.670367"><ele></ele><time>2017-9-18T18:59:40Z</time></trkpt>
<trkpt lat="48.427386" lon="2.670214"><ele></ele><time>2017-9-18T18:59:43Z</time></trkpt>
<trkpt lat="48.427417" lon="2.670071"><ele></ele><time>2017-9-18T18:59:46Z</time></trkpt>
<trkpt lat="48.427433" lon="2.669934"><ele></ele><time>2017-9-18T18:59:49Z</time></trkpt>
<trkpt lat="48.427453" lon="2.669785"><ele></ele><time>2017-9-18T18:59:52Z</time></trkpt>
<trkpt lat="48.427508" lon="2.669642"><ele></ele><time>2017-9-18T18:59:55Z</time></trkpt>
<trkpt lat="48.427532" lon="2.669502"><ele></ele><time>2017-9-18T18:59:58Z</time></trkpt>
<trkpt lat="48.427555" lon="2.66935"><ele></ele><time>2017-9-18T19:0:1Z</time></trkpt>
<trkpt lat="48.427615" lon="2.669173"><ele></ele><time>2017-9-18T19:0:4Z</time></trkpt>
<trkpt lat="48.427647" lon="2.669031"><ele></ele><time>2017-9-18T19:0:7Z</time></trkpt>
<trkpt lat="48.427681" lon="2.668891"><ele></ele><time>2017-9-18T19:0:10Z</time></trkpt>
<trkpt lat="48.427717" lon="2.668764"><ele></ele><time>2017-9-18T19:0:13Z</time></trkpt>
<trkpt lat="48.427755" lon="2.668637"><ele></ele><time>2017-9-18T19:0:16Z</time></trkpt>
<trkpt lat="48.4278" lon="2.668494"><ele></ele><time>2017-9-18T19:0:19Z</time></trkpt>
<trkpt lat="48.427836" lon="2.668324"><ele></ele><time>2017-9-18T19:0:22Z</time></trkpt>
<trkpt lat="48.427867" lon="2.668171"><ele></ele><time>2017-9-18T19:0:25Z</time></trkpt>
<trkpt lat="48.427897" lon="2.668035"><ele></ele><time>2017-9-18T19:0:28Z</time></trkpt>
<trkpt lat="48.427929" lon="2.667883"><ele></ele><time>2017-9-18T19:0:31Z</time></trkpt>
<trkpt lat="48.427954" lon="2.667728"><ele></ele><time>2017-9-18T19:0:34Z</time></trkpt>
<trkpt lat="48.427993" lon="2.667574"><ele></ele><time>2017-9-18T19:0:37Z</time></trkpt>
<trkpt lat="48.428023" lon="2.667428"><ele></ele><time>2017-9-18T19:0:40Z</time></trkpt>
<trkpt lat="48.42806" lon="2.667304"><ele></ele><time>2017-9-18T19:0:43Z</time></trkpt>
<trkpt lat="48.42812" lon="2.667156"><ele></ele><time>2017-9-18T19:0:46Z</time></trkpt>
<trkpt lat="48.428199" lon="2.666864"><ele></ele><time>2017-9-18T19:0:49Z</time></trkpt>
<trkpt lat="48.428147" lon="2.666718"><ele></ele><time>2017-9-18T19:0:52Z</time></trkpt>
<trkpt lat="48.428042" lon="2.666741"><ele></ele><time>2017-9-18T19:0:55Z</time></trkpt>
<trkpt lat="48.427939" lon="2.66674"><ele></ele><time>2017-9-18T19:0:58Z</time></trkpt>
<trkpt lat="48.427833" lon="2.666756"><ele></ele><time>2017-9-18T19:1:1Z</time></trkpt>
<trkpt lat="48.427724" lon="2.666816"><ele></ele><time>2017-9-18T19:1:4Z</time></trkpt>
<trkpt lat="48.427613" lon="2.666871"><ele></ele><time>2017-9-18T19:1:7Z</time></trkpt>
<trkpt lat="48.4275" lon="2.666921"><ele></ele><time>2017-9-18T19:1:10Z</time></trkpt>
<trkpt lat="48.427381" lon="2.666974"><ele></ele><time>2017-9-18T19:1:13Z</time></trkpt>
<trkpt lat="48.427264" lon="2.667046"><ele></ele><time>2017-9-18T19:1:16Z</time></trkpt>
<trkpt lat="48.427158" lon="2.667126"><ele></ele><time>2017-9-18T19:1:19Z</time></trkpt>
<trkpt lat="48.427047" lon="2.66717"><ele></ele><time>2017-9-18T19:1:22Z</time></trkpt>
<trkpt lat="48.426944" lon="2.667228"><ele></ele><time>2017-9-18T19:1:25Z</time></trkpt>
<trkpt lat="48.426863" lon="2.667288"><ele></ele><time>2017-9-18T19:1:28Z</time></trkpt>
<trkpt lat="48.426777" lon="2.667346"><ele></ele><time>2017-9-18T19:1:31Z</time></trkpt>
<trkpt lat="48.426651" lon="2.66742"><ele></ele><time>2017-9-18T19:1:34Z</time></trkpt>
<trkpt lat="48.426547" lon="2.667472"><ele></ele><time>2017-9-18T19:1:37Z</time></trkpt>
<trkpt lat="48.426441" lon="2.667525"><ele></ele><time>2017-9-18T19:1:40Z</time></trkpt>
<trkpt lat="48.426346" lon="2.667584"><ele></ele><time>2017-9-18T19:1:43Z</time></trkpt>
<trkpt lat="48.426148" lon="2.667702"><ele></ele><time>2017-9-18T19:1:46Z</time></trkpt>
<trkpt lat="48.426031" lon="2.667748"><ele></ele><time>2017-9-18T19:1:49Z</time></trkpt>
<trkpt lat="48.425927" lon="2.667797"><ele></ele><time>2017-9-18T19:1:52Z</time></trkpt>
<trkpt lat="48.425832" lon="2.667809"><ele></ele><time>2017-9-18T19:1:55Z</time></trkpt>
<trkpt lat="48.425733" lon="2.66792"><ele></ele><time>2017-9-18T19:1:58Z</time></trkpt>
<trkpt lat="48.425649" lon="2.667991"><ele></ele><time>2017-9-18T19:2:1Z</time></trkpt>
<trkpt lat="48.425548" lon="2.66808"><ele></ele><time>2017-9-18T19:2:4Z</time></trkpt>
<trkpt lat="48.425433" lon="2.668137"><ele></ele><time>2017-9-18T19:2:7Z</time></trkpt>
<trkpt lat="48.425319" lon="2.66821"><ele></ele><time>2017-9-18T19:2:10Z</time></trkpt>
<trkpt lat="48.425238" lon="2.668279"><ele></ele><time>2017-9-18T19:2:13Z</time></trkpt>
<trkpt lat="48.425142" lon="2.668347"><ele></ele><time>2017-9-18T19:2:16Z</time></trkpt>
<trkpt lat="48.425051" lon="2.668397"><ele></ele><time>2017-9-18T19:2:19Z</time></trkpt>
<trkpt lat="48.424943" lon="2.668449"><ele></ele><time>2017-9-18T19:2:22Z</time></trkpt>
<trkpt lat="48.424851" lon="2.668522"><ele></ele><time>2017-9-18T19:2:25Z</time></trkpt>
<trkpt lat="48.424769" lon="2.668597"><ele></ele><time>2017-9-18T19:2:28Z</time></trkpt>
<trkpt lat="48.424684" lon="2.668669"><ele></ele><time>2017-9-18T19:2:31Z</time></trkpt>
<trkpt lat="48.424593" lon="2.66873"><ele></ele><time>2017-9-18T19:2:34Z</time></trkpt>
<trkpt lat="48.424476" lon="2.668814"><ele></ele><time>2017-9-18T19:2:37Z</time></trkpt>
<trkpt lat="48.424379" lon="2.668881"><ele></ele><time>2017-9-18T19:2:40Z</time></trkpt>
<trkpt lat="48.424291" lon="2.66893"><ele></ele><time>2017-9-18T19:2:43Z</time></trkpt>
<trkpt lat="48.424204" lon="2.668986"><ele></ele><time>2017-9-18T19:2:46Z</time></trkpt>
<trkpt lat="48.424104" lon="2.669064"><ele></ele><time>2017-9-18T19:2:49Z</time></trkpt>
<trkpt lat="48.423985" lon="2.669154"><ele></ele><time>2017-9-18T19:2:52Z</time></trkpt>
<trkpt lat="48.42381" lon="2.669296"><ele></ele><time>2017-9-18T19:2:55Z</time></trkpt>
<trkpt lat="48.423723" lon="2.669359"><ele></ele><time>2017-9-18T19:2:58Z</time></trkpt>
<trkpt lat="48.423628" lon="2.669413"><ele></ele><time>2017-9-18T19:3:1Z</time></trkpt>
<trkpt lat="48.423542" lon="2.669483"><ele></ele><time>2017-9-18T19:3:4Z</time></trkpt>
<trkpt lat="48.423458" lon="2.669541"><ele></ele><time>2017-9-18T19:3:7Z</time></trkpt>
<trkpt lat="48.423353" lon="2.669582"><ele></ele><time>2017-9-18T19:3:10Z</time></trkpt>
<trkpt lat="48.423264" lon="2.669667"><ele></ele><time>2017-9-18T19:3:13Z</time></trkpt>
<trkpt lat="48.423179" lon="2.669744"><ele></ele><time>2017-9-18T19:3:16Z</time></trkpt>
<trkpt lat="48.42309" lon="2.669807"><ele></ele><time>2017-9-18T19:3:19Z</time></trkpt>
<trkpt lat="48.423002" lon="2.669872"><ele></ele><time>2017-9-18T19:3:22Z</time></trkpt>
<trkpt lat="48.422902" lon="2.669934"><ele></ele><time>2017-9-18T19:3:25Z</time></trkpt>
<trkpt lat="48.422826" lon="2.670014"><ele></ele><time>2017-9-18T19:3:28Z</time></trkpt>
<trkpt lat="48.422741" lon="2.670106"><ele></ele><time>2017-9-18T19:3:31Z</time></trkpt>
<trkpt lat="48.422648" lon="2.670166"><ele></ele><time>2017-9-18T19:3:34Z</time></trkpt>
<trkpt lat="48.422562" lon="2.670228"><ele></ele><time>2017-9-18T19:3:37Z</time></trkpt>
<trkpt lat="48.422484" lon="2.670304"><ele></ele><time>2017-9-18T19:3:40Z</time></trkpt>
<trkpt lat="48.422384" lon="2.670388"><ele></ele><time>2017-9-18T19:3:43Z</time></trkpt>
<trkpt lat="48.422295" lon="2.670463"><ele></ele><time>2017-9-18T19:3:46Z</time></trkpt>
<trkpt lat="48.422206" lon="2.670524"><ele></ele><time>2017-9-18T19:3:49Z</time></trkpt>
<trkpt lat="48.422109" lon="2.670633"><ele></ele><time>2017-9-18T19:3:52Z</time></trkpt>
<trkpt lat="48.421974" lon="2.670724"><ele></ele><time>2017-9-18T19:3:55Z</time></trkpt>
<trkpt lat="48.421872" lon="2.670794"><ele></ele><time>2017-9-18T19:3:58Z</time></trkpt>
<trkpt lat="48.421775" lon="2.670879"><ele></ele><time>2017-9-18T19:4:1Z</time></trkpt>
<trkpt lat="48.421694" lon="2.670953"><ele></ele><time>2017-9-18T19:4:4Z</time></trkpt>
<trkpt lat="48.421604" lon="2.671021"><ele></ele><time>2017-9-18T19:4:7Z</time></trkpt>
<trkpt lat="48.421522" lon="2.671091"><ele></ele><time>2017-9-18T19:4:10Z</time></trkpt>
<trkpt lat="48.42143" lon="2.671164"><ele></ele><time>2017-9-18T19:4:13Z</time></trkpt>
<trkpt lat="48.421341" lon="2.671232"><ele></ele><time>2017-9-18T19:4:16Z</time></trkpt>
<trkpt lat="48.421144" lon="2.671421"><ele></ele><time>2017-9-18T19:4:19Z</time></trkpt>
<trkpt lat="48.421045" lon="2.671505"><ele></ele><time>2017-9-18T19:4:22Z</time></trkpt>
<trkpt lat="48.420952" lon="2.67157"><ele></ele><time>2017-9-18T19:4:25Z</time></trkpt>
<trkpt lat="48.420856" lon="2.671651"><ele></ele><time>2017-9-18T19:4:28Z</time></trkpt>
<trkpt lat="48.420765" lon="2.671726"><ele></ele><time>2017-9-18T19:4:31Z</time></trkpt>
<trkpt lat="48.420674" lon="2.671803"><ele></ele><time>2017-9-18T19:4:34Z</time></trkpt>
<trkpt lat="48.420553" lon="2.671868"><ele></ele><time>2017-9-18T19:4:37Z</time></trkpt>
<trkpt lat="48.420452" lon="2.67195"><ele></ele><time>2017-9-18T19:4:40Z</time></trkpt>
<trkpt lat="48.420366" lon="2.672029"><ele></ele><time>2017-9-18T19:4:43Z</time></trkpt>
<trkpt lat="48.420268" lon="2.672109"><ele></ele><time>2017-9-18T19:4:46Z</time></trkpt>
<trkpt lat="48.420169" lon="2.672183"><ele></ele><time>2017-9-18T19:4:49Z</time></trkpt>
<trkpt lat="48.420046" lon="2.672268"><ele></ele><time>2017-9-18T19:4:52Z</time></trkpt>
<trkpt lat="48.419932" lon="2.672369"><ele></ele><time>2017-9-18T19:4:55Z</time></trkpt>
<trkpt lat="48.419841" lon="2.672441"><ele></ele><time>2017-9-18T19:4:58Z</time></trkpt>
<trkpt lat="48.419736" lon="2.672533"><ele></ele><time>2017-9-18T19:5:1Z</time></trkpt>
<trkpt lat="48.419648" lon="2.672611"><ele></ele><time>2017-9-18T19:5:4Z</time></trkpt>
<trkpt lat="48.419563" lon="2.672678"><ele></ele><time>2017-9-18T19:5:7Z</time></trkpt>
<trkpt lat="48.419454" lon="2.672774"><ele></ele><time>2017-9-18T19:5:10Z</time></trkpt>
<trkpt lat="48.419362" lon="2.672836"><ele></ele><time>2017-9-18T19:5:13Z</time></trkpt>
<trkpt lat="48.419266" lon="2.672892"><ele></ele><time>2017-9-18T19:5:16Z</time></trkpt>
<trkpt lat="48.419141" lon="2.67293"><ele></ele><time>2017-9-18T19:5:19Z</time></trkpt>
<trkpt lat="48.419017" lon="2.672987"><ele></ele><time>2017-9-18T19:5:22Z</time></trkpt>
<trkpt lat="48.418915" lon="2.673007"><ele></ele><time>2017-9-18T19:5:25Z</time></trkpt>
<trkpt lat="48.418815" lon="2.67307"><ele></ele><time>2017-9-18T19:5:28Z</time></trkpt>
<trkpt lat="48.418607" lon="2.673184"><ele></ele><time>2017-9-18T19:5:31Z</time></trkpt>
<trkpt lat="48.418514" lon="2.673284"><ele></ele><time>2017-9-18T19:5:34Z</time></trkpt>
<trkpt lat="48.418474" lon="2.673416"><ele></ele><time>2017-9-18T19:5:37Z</time></trkpt>
<trkpt lat="48.418404" lon="2.673555"><ele></ele><time>2017-9-18T19:5:40Z</time></trkpt>
<trkpt lat="48.418314" lon="2.673642"><ele></ele><time>2017-9-18T19:5:43Z</time></trkpt>
<trkpt lat="48.418216" lon="2.673744"><ele></ele><time>2017-9-18T19:5:46Z</time></trkpt>
<trkpt lat="48.418148" lon="2.673854"><ele></ele><time>2017-9-18T19:5:49Z</time></trkpt>
<trkpt lat="48.41807" lon="2.673999"><ele></ele><time>2017-9-18T19:5:52Z</time></trkpt>
<trkpt lat="48.41802" lon="2.674157"><ele></ele><time>2017-9-18T19:5:55Z</time></trkpt>
<trkpt lat="48.417975" lon="2.674291"><ele></ele><time>2017-9-18T19:5:58Z</time></trkpt>
<trkpt lat="48.417974" lon="2.674129"><ele></ele><time>2017-9-18T19:6:1Z</time></trkpt>
<trkpt lat="48.418002" lon="2.673992"><ele></ele><time>2017-9-18T19:6:4Z</time></trkpt>
<trkpt lat="48.418047" lon="2.673822"><ele></ele><time>2017-9-18T19:6:7Z</time></trkpt>
<trkpt lat="48.418103" lon="2.673653"><ele></ele><time>2017-9-18T19:6:10Z</time></trkpt>
<trkpt lat="48.418147" lon="2.673507"><ele></ele><time>2017-9-18T19:6:13Z</time></trkpt>
<trkpt lat="48.418195" lon="2.673346"><ele></ele><time>2017-9-18T19:6:16Z</time></trkpt>
<trkpt lat="48.418101" lon="2.673016"><ele></ele><time>2017-9-18T19:6:19Z</time></trkpt>
<trkpt lat="48.418087" lon="2.672874"><ele></ele><time>2017-9-18T19:6:22Z</time></trkpt>
<trkpt lat="48.418073" lon="2.672717"><ele></ele><time>2017-9-18T19:6:25Z</time></trkpt>
<trkpt lat="48.418053" lon="2.672581"><ele></ele><time>2017-9-18T19:6:28Z</time></trkpt>
<trkpt lat="48.418044" lon="2.672437"><ele></ele><time>2017-9-18T19:6:31Z</time></trkpt>
<trkpt lat="48.418044" lon="2.672287"><ele></ele><time>2017-9-18T19:6:34Z</time></trkpt>
<trkpt lat="48.418016" lon="2.672108"><ele></ele><time>2017-9-18T19:6:37Z</time></trkpt>
<trkpt lat="48.418007" lon="2.671972"><ele></ele><time>2017-9-18T19:6:40Z</time></trkpt>
<trkpt lat="48.417983" lon="2.671768"><ele></ele><time>2017-9-18T19:6:43Z</time></trkpt>
<trkpt lat="48.417973" lon="2.671632"><ele></ele><time>2017-9-18T19:6:46Z</time></trkpt>
<trkpt lat="48.417952" lon="2.671489"><ele></ele><time>2017-9-18T19:6:49Z</time></trkpt>
<trkpt lat="48.417935" lon="2.671288"><ele></ele><time>2017-9-18T19:6:52Z</time></trkpt>
<trkpt lat="48.417917" lon="2.67114"><ele></ele><time>2017-9-18T19:6:55Z</time></trkpt>
<trkpt lat="48.417904" lon="2.670934"><ele></ele><time>2017-9-18T19:6:58Z</time></trkpt>
<trkpt lat="48.417888" lon="2.670794"><ele></ele><time>2017-9-18T19:7:1Z</time></trkpt>
<trkpt lat="48.417873" lon="2.670637"><ele></ele><time>2017-9-18T19:7:4Z</time></trkpt>
<trkpt lat="48.417854" lon="2.670454"><ele></ele><time>2017-9-18T19:7:7Z</time></trkpt>
<trkpt lat="48.417827" lon="2.670245"><ele></ele><time>2017-9-18T19:7:10Z</time></trkpt>
<trkpt lat="48.417808" lon="2.670025"><ele></ele><time>2017-9-18T19:7:13Z</time></trkpt>
<trkpt lat="48.417776" lon="2.669772"><ele></ele><time>2017-9-18T19:7:16Z</time></trkpt>
<trkpt lat="48.417737" lon="2.66953"><ele></ele><time>2017-9-18T19:7:19Z</time></trkpt>
<trkpt lat="48.417702" lon="2.669279"><ele></ele><time>2017-9-18T19:7:22Z</time></trkpt>
<trkpt lat="48.417685" lon="2.669145"><ele></ele><time>2017-9-18T19:7:25Z</time></trkpt>
<trkpt lat="48.417666" lon="2.668992"><ele></ele><time>2017-9-18T19:7:28Z</time></trkpt>
<trkpt lat="48.417643" lon="2.668846"><ele></ele><time>2017-9-18T19:7:31Z</time></trkpt>
<trkpt lat="48.417632" lon="2.66869"><ele></ele><time>2017-9-18T19:7:34Z</time></trkpt>
<trkpt lat="48.41761" lon="2.668532"><ele></ele><time>2017-9-18T19:7:37Z</time></trkpt>
<trkpt lat="48.417567" lon="2.668253"><ele></ele><time>2017-9-18T19:7:40Z</time></trkpt>
<trkpt lat="48.417536" lon="2.668052"><ele></ele><time>2017-9-18T19:7:43Z</time></trkpt>
<trkpt lat="48.417493" lon="2.667888"><ele></ele><time>2017-9-18T19:7:46Z</time></trkpt>
<trkpt lat="48.417458" lon="2.667736"><ele></ele><time>2017-9-18T19:7:49Z</time></trkpt>
<trkpt lat="48.417393" lon="2.667608"><ele></ele><time>2017-9-18T19:7:52Z</time></trkpt>
<trkpt lat="48.417361" lon="2.667476"><ele></ele><time>2017-9-18T19:7:55Z</time></trkpt>
<trkpt lat="48.41734" lon="2.667342"><ele></ele><time>2017-9-18T19:7:58Z</time></trkpt>
<trkpt lat="48.417298" lon="2.667204"><ele></ele><time>2017-9-18T19:8:1Z</time></trkpt>
<trkpt lat="48.417246" lon="2.667089"><ele></ele><time>2017-9-18T19:8:4Z</time></trkpt>
<trkpt lat="48.41723" lon="2.66695"><ele></ele><time>2017-9-18T19:8:7Z</time></trkpt>
<trkpt lat="48.41719" lon="2.666822"><ele></ele><time>2017-9-18T19:8:10Z</time></trkpt>
<trkpt lat="48.417139" lon="2.666671"><ele></ele><time>2017-9-18T19:8:13Z</time></trkpt>
<trkpt lat="48.417108" lon="2.666532"><ele></ele><time>2017-9-18T19:8:16Z</time></trkpt>
<trkpt lat="48.417032" lon="2.666246"><ele></ele><time>2017-9-18T19:8:19Z</time></trkpt>
<trkpt lat="48.416992" lon="2.666108"><ele></ele><time>2017-9-18T19:8:22Z</time></trkpt>
<trkpt lat="48.41691" lon="2.665801"><ele></ele><time>2017-9-18T19:8:25Z</time></trkpt>
<trkpt lat="48.416866" lon="2.665629"><ele></ele><time>2017-9-18T19:8:28Z</time></trkpt>
<trkpt lat="48.416823" lon="2.665468"><ele></ele><time>2017-9-18T19:8:31Z</time></trkpt>
<trkpt lat="48.416777" lon="2.665308"><ele></ele><time>2017-9-18T19:8:34Z</time></trkpt>
<trkpt lat="48.41671" lon="2.665127"><ele></ele><time>2017-9-18T19:8:37Z</time></trkpt>
<trkpt lat="48.416666" lon="2.664992"><ele></ele><time>2017-9-18T19:8:40Z</time></trkpt>
<trkpt lat="48.416622" lon="2.66487"><ele></ele><time>2017-9-18T19:8:43Z</time></trkpt>
<trkpt lat="48.416573" lon="2.664735"><ele></ele><time>2017-9-18T19:8:46Z</time></trkpt>
<trkpt lat="48.41652" lon="2.664591"><ele></ele><time>2017-9-18T19:8:49Z</time></trkpt>
<trkpt lat="48.416439" lon="2.664445"><ele></ele><time>2017-9-18T19:8:52Z</time></trkpt>
<trkpt lat="48.416368" lon="2.664323"><ele></ele><time>2017-9-18T19:8:55Z</time></trkpt>
<trkpt lat="48.4163" lon="2.664219"><ele></ele><time>2017-9-18T19:8:58Z</time></trkpt>
<trkpt lat="48.416214" lon="2.664062"><ele></ele><time>2017-9-18T19:9:1Z</time></trkpt>
<trkpt lat="48.41614" lon="2.663945"><ele></ele><time>2017-9-18T19:9:4Z</time></trkpt>
<trkpt lat="48.41606" lon="2.663811"><ele></ele><time>2017-9-18T19:9:7Z</time></trkpt>
<trkpt lat="48.415983" lon="2.66366"><ele></ele><time>2017-9-18T19:9:10Z</time></trkpt>
<trkpt lat="48.415928" lon="2.663539"><ele></ele><time>2017-9-18T19:9:13Z</time></trkpt>
<trkpt lat="48.41586" lon="2.663408"><ele></ele><time>2017-9-18T19:9:16Z</time></trkpt>
<trkpt lat="48.415779" lon="2.663267"><ele></ele><time>2017-9-18T19:9:19Z</time></trkpt>
<trkpt lat="48.415693" lon="2.663135"><ele></ele><time>2017-9-18T19:9:22Z</time></trkpt>
<trkpt lat="48.415602" lon="2.662999"><ele></ele><time>2017-9-18T19:9:25Z</time></trkpt>
<trkpt lat="48.415437" lon="2.662742"><ele></ele><time>2017-9-18T19:9:28Z</time></trkpt>
<trkpt lat="48.415375" lon="2.66263"><ele></ele><time>2017-9-18T19:9:31Z</time></trkpt>
<trkpt lat="48.415308" lon="2.66252"><ele></ele><time>2017-9-18T19:9:34Z</time></trkpt>
<trkpt lat="48.41522" lon="2.662365"><ele></ele><time>2017-9-18T19:9:37Z</time></trkpt>
<trkpt lat="48.41514" lon="2.662211"><ele></ele><time>2017-9-18T19:9:40Z</time></trkpt>
<trkpt lat="48.415063" lon="2.662073"><ele></ele><time>2017-9-18T19:9:43Z</time></trkpt>
<trkpt lat="48.414981" lon="2.661947"><ele></ele><time>2017-9-18T19:9:46Z</time></trkpt>
<trkpt lat="48.4149" lon="2.661824"><ele></ele><time>2017-9-18T19:9:49Z</time></trkpt>
<trkpt lat="48.414816" lon="2.661692"><ele></ele><time>2017-9-18T19:9:52Z</time></trkpt>
<trkpt lat="48.414731" lon="2.661564"><ele></ele><time>2017-9-18T19:9:55Z</time></trkpt>
<trkpt lat="48.414642" lon="2.66145"><ele></ele><time>2017-9-18T19:9:58Z</time></trkpt>
<trkpt lat="48.414544" lon="2.661271"><ele></ele><time>2017-9-18T19:10:1Z</time></trkpt>
<trkpt lat="48.414486" lon="2.661167"><ele></ele><time>2017-9-18T19:10:4Z</time></trkpt>
<trkpt lat="48.41441" lon="2.661017"><ele></ele><time>2017-9-18T19:10:7Z</time></trkpt>
<trkpt lat="48.414347" lon="2.660913"><ele></ele><time>2017-9-18T19:10:10Z</time></trkpt>
<trkpt lat="48.414265" lon="2.660788"><ele></ele><time>2017-9-18T19:10:13Z</time></trkpt>
<trkpt lat="48.414199" lon="2.660685"><ele></ele><time>2017-9-18T19:10:16Z</time></trkpt>
<trkpt lat="48.414121" lon="2.66056"><ele></ele><time>2017-9-18T19:10:19Z</time></trkpt>
<trkpt lat="48.414041" lon="2.66042"><ele></ele><time>2017-9-18T19:10:22Z</time></trkpt>
<trkpt lat="48.413974" lon="2.660285"><ele></ele><time>2017-9-18T19:10:25Z</time></trkpt>
<trkpt lat="48.413887" lon="2.660142"><ele></ele><time>2017-9-18T19:10:28Z</time></trkpt>
<trkpt lat="48.413723" lon="2.659875"><ele></ele><time>2017-9-18T19:10:31Z</time></trkpt>
<trkpt lat="48.41366" lon="2.659769"><ele></ele><time>2017-9-18T19:10:34Z</time></trkpt>
<trkpt lat="48.413579" lon="2.659648"><ele></ele><time>2017-9-18T19:10:37Z</time></trkpt>
<trkpt lat="48.413504" lon="2.65952"><ele></ele><time>2017-9-18T19:10:40Z</time></trkpt>
<trkpt lat="48.413453" lon="2.659375"><ele></ele><time>2017-9-18T19:10:43Z</time></trkpt>
<trkpt lat="48.413397" lon="2.659241"><ele></ele><time>2017-9-18T19:10:46Z</time></trkpt>
<trkpt lat="48.41333" lon="2.659098"><ele></ele><time>2017-9-18T19:10:49Z</time></trkpt>
<trkpt lat="48.413272" lon="2.658972"><ele></ele><time>2017-9-18T19:10:52Z</time></trkpt>
<trkpt lat="48.413205" lon="2.658852"><ele></ele><time>2017-9-18T19:10:55Z</time></trkpt>
<trkpt lat="48.41316" lon="2.658686"><ele></ele><time>2017-9-18T19:10:58Z</time></trkpt>
<trkpt lat="48.413171" lon="2.658531"><ele></ele><time>2017-9-18T19:11:1Z</time></trkpt>
<trkpt lat="48.413194" lon="2.658387"><ele></ele><time>2017-9-18T19:11:4Z</time></trkpt>
<trkpt lat="48.413224" lon="2.658165"><ele></ele><time>2017-9-18T19:11:7Z</time></trkpt>
<trkpt lat="48.413291" lon="2.658036"><ele></ele><time>2017-9-18T19:11:10Z</time></trkpt>
<trkpt lat="48.413354" lon="2.657886"><ele></ele><time>2017-9-18T19:11:13Z</time></trkpt>
<trkpt lat="48.413404" lon="2.657768"><ele></ele><time>2017-9-18T19:11:16Z</time></trkpt>
<trkpt lat="48.413449" lon="2.657644"><ele></ele><time>2017-9-18T19:11:19Z</time></trkpt>
<trkpt lat="48.413563" lon="2.657593"><ele></ele><time>2017-9-18T19:11:22Z</time></trkpt>
<trkpt lat="48.413722" lon="2.657309"><ele></ele><time>2017-9-18T19:11:25Z</time></trkpt>
<trkpt lat="48.413798" lon="2.657207"><ele></ele><time>2017-9-18T19:11:28Z</time></trkpt>
<trkpt lat="48.413908" lon="2.657135"><ele></ele><time>2017-9-18T19:11:31Z</time></trkpt>
<trkpt lat="48.414011" lon="2.657073"><ele></ele><time>2017-9-18T19:11:34Z</time></trkpt>
<trkpt lat="48.414102" lon="2.657005"><ele></ele><time>2017-9-18T19:11:37Z</time></trkpt>
<trkpt lat="48.414189" lon="2.656938"><ele></ele><time>2017-9-18T19:11:40Z</time></trkpt>
<trkpt lat="48.414289" lon="2.656852"><ele></ele><time>2017-9-18T19:11:43Z</time></trkpt>
<trkpt lat="48.414386" lon="2.656822"><ele></ele><time>2017-9-18T19:11:46Z</time></trkpt>
<trkpt lat="48.414502" lon="2.65682"><ele></ele><time>2017-9-18T19:11:49Z</time></trkpt>
<trkpt lat="48.414588" lon="2.656897"><ele></ele><time>2017-9-18T19:11:52Z</time></trkpt>
<trkpt lat="48.414698" lon="2.656856"><ele></ele><time>2017-9-18T19:11:55Z</time></trkpt>
<trkpt lat="48.414779" lon="2.656793"><ele></ele><time>2017-9-18T19:11:58Z</time></trkpt>
<trkpt lat="48.415001" lon="2.656874"><ele></ele><time>2017-9-18T19:12:1Z</time></trkpt>
<trkpt lat="48.415073" lon="2.656991"><ele></ele><time>2017-9-18T19:12:4Z</time></trkpt>
<trkpt lat="48.415129" lon="2.657141"><ele></ele><time>2017-9-18T19:12:7Z</time></trkpt>
<trkpt lat="48.415167" lon="2.657293"><ele></ele><time>2017-9-18T19:12:10Z</time></trkpt>
<trkpt lat="48.415235" lon="2.657457"><ele></ele><time>2017-9-18T19:12:13Z</time></trkpt>
<trkpt lat="48.415298" lon="2.657556"><ele></ele><time>2017-9-18T19:12:16Z</time></trkpt>
<trkpt lat="48.415383" lon="2.657693"><ele></ele><time>2017-9-18T19:12:19Z</time></trkpt>
<trkpt lat="48.415451" lon="2.657785"><ele></ele><time>2017-9-18T19:12:22Z</time></trkpt>
<trkpt lat="48.415525" lon="2.657882"><ele></ele><time>2017-9-18T19:12:25Z</time></trkpt>
<trkpt lat="48.415597" lon="2.65802"><ele></ele><time>2017-9-18T19:12:28Z</time></trkpt>
<trkpt lat="48.415639" lon="2.658166"><ele></ele><time>2017-9-18T19:12:31Z</time></trkpt>
<trkpt lat="48.415795" lon="2.65832"><ele></ele><time>2017-9-18T19:12:34Z</time></trkpt>
<trkpt lat="48.415898" lon="2.658367"><ele></ele><time>2017-9-18T19:12:37Z</time></trkpt>
<trkpt lat="48.415988" lon="2.658396"><ele></ele><time>2017-9-18T19:12:40Z</time></trkpt>
<trkpt lat="48.416121" lon="2.658466"><ele></ele><time>2017-9-18T19:12:43Z</time></trkpt>
<trkpt lat="48.416243" lon="2.6585"><ele></ele><time>2017-9-18T19:12:46Z</time></trkpt>
<trkpt lat="48.416369" lon="2.658553"><ele></ele><time>2017-9-18T19:12:49Z</time></trkpt>
<trkpt lat="48.416489" lon="2.658591"><ele></ele><time>2017-9-18T19:12:52Z</time></trkpt>
<trkpt lat="48.416577" lon="2.658635"><ele></ele><time>2017-9-18T19:12:55Z</time></trkpt>
<trkpt lat="48.416663" lon="2.658686"><ele></ele><time>2017-9-18T19:12:58Z</time></trkpt>
<trkpt lat="48.416782" lon="2.65875"><ele></ele><time>2017-9-18T19:13:1Z</time></trkpt>
<trkpt lat="48.416883" lon="2.658802"><ele></ele><time>2017-9-18T19:13:4Z</time></trkpt>
<trkpt lat="48.417002" lon="2.658798"><ele></ele><time>2017-9-18T19:13:7Z</time></trkpt>
<trkpt lat="48.417112" lon="2.658719"><ele></ele><time>2017-9-18T19:13:10Z</time></trkpt>
<trkpt lat="48.417213" lon="2.658595"><ele></ele><time>2017-9-18T19:13:13Z</time></trkpt>
<trkpt lat="48.417307" lon="2.658455"><ele></ele><time>2017-9-18T19:13:16Z</time></trkpt>
<trkpt lat="48.417381" lon="2.658326"><ele></ele><time>2017-9-18T19:13:19Z</time></trkpt>
<trkpt lat="48.417425" lon="2.658204"><ele></ele><time>2017-9-18T19:13:22Z</time></trkpt>
<trkpt lat="48.417514" lon="2.658043"><ele></ele><time>2017-9-18T19:13:25Z</time></trkpt>
<trkpt lat="48.417581" lon="2.657935"><ele></ele><time>2017-9-18T19:13:28Z</time></trkpt>
<trkpt lat="48.417641" lon="2.657818"><ele></ele><time>2017-9-18T19:13:31Z</time></trkpt>
<trkpt lat="48.417702" lon="2.657704"><ele></ele><time>2017-9-18T19:13:34Z</time></trkpt>
<trkpt lat="48.417777" lon="2.657541"><ele></ele><time>2017-9-18T19:13:37Z</time></trkpt>
<trkpt lat="48.417942" lon="2.657245"><ele></ele><time>2017-9-18T19:13:40Z</time></trkpt>
<trkpt lat="48.418031" lon="2.657115"><ele></ele><time>2017-9-18T19:13:43Z</time></trkpt>
<trkpt lat="48.418096" lon="2.657006"><ele></ele><time>2017-9-18T19:13:46Z</time></trkpt>
<trkpt lat="48.418193" lon="2.656912"><ele></ele><time>2017-9-18T19:13:49Z</time></trkpt>
<trkpt lat="48.418288" lon="2.656844"><ele></ele><time>2017-9-18T19:13:52Z</time></trkpt>
<trkpt lat="48.418182" lon="2.656912"><ele></ele><time>2017-9-18T19:13:55Z</time></trkpt>
<trkpt lat="48.418095" lon="2.657"><ele></ele><time>2017-9-18T19:13:58Z</time></trkpt>
<trkpt lat="48.417999" lon="2.657113"><ele></ele><time>2017-9-18T19:14:1Z</time></trkpt>
<trkpt lat="48.417911" lon="2.657335"><ele></ele><time>2017-9-18T19:14:4Z</time></trkpt>
<trkpt lat="48.417857" lon="2.657456"><ele></ele><time>2017-9-18T19:14:7Z</time></trkpt>
<trkpt lat="48.417779" lon="2.657592"><ele></ele><time>2017-9-18T19:14:10Z</time></trkpt>
<trkpt lat="48.417701" lon="2.657747"><ele></ele><time>2017-9-18T19:14:13Z</time></trkpt>
<trkpt lat="48.41761" lon="2.657854"><ele></ele><time>2017-9-18T19:14:16Z</time></trkpt>
<trkpt lat="48.41755" lon="2.658014"><ele></ele><time>2017-9-18T19:14:19Z</time></trkpt>
<trkpt lat="48.417416" lon="2.658285"><ele></ele><time>2017-9-18T19:14:22Z</time></trkpt>
<trkpt lat="48.417369" lon="2.658414"><ele></ele><time>2017-9-18T19:14:25Z</time></trkpt>
<trkpt lat="48.41729" lon="2.658539"><ele></ele><time>2017-9-18T19:14:28Z</time></trkpt>
<trkpt lat="48.417195" lon="2.658688"><ele></ele><time>2017-9-18T19:14:31Z</time></trkpt>
<trkpt lat="48.417098" lon="2.658827"><ele></ele><time>2017-9-18T19:14:34Z</time></trkpt>
<trkpt lat="48.41702" lon="2.658924"><ele></ele><time>2017-9-18T19:14:37Z</time></trkpt>
<trkpt lat="48.416941" lon="2.65899"><ele></ele><time>2017-9-18T19:14:40Z</time></trkpt>
<trkpt lat="48.41687" lon="2.659092"><ele></ele><time>2017-9-18T19:14:43Z</time></trkpt>
<trkpt lat="48.416796" lon="2.659179"><ele></ele><time>2017-9-18T19:14:46Z</time></trkpt>
<trkpt lat="48.416715" lon="2.659273"><ele></ele><time>2017-9-18T19:14:49Z</time></trkpt>
<trkpt lat="48.416644" lon="2.659379"><ele></ele><time>2017-9-18T19:14:52Z</time></trkpt>
<trkpt lat="48.416568" lon="2.659488"><ele></ele><time>2017-9-18T19:14:55Z</time></trkpt>
<trkpt lat="48.416492" lon="2.659598"><ele></ele><time>2017-9-18T19:14:58Z</time></trkpt>
<trkpt lat="48.416407" lon="2.659745"><ele></ele><time>2017-9-18T19:15:1Z</time></trkpt>
<trkpt lat="48.416313" lon="2.659865"><ele></ele><time>2017-9-18T19:15:4Z</time></trkpt>
<trkpt lat="48.41619" lon="2.660013"><ele></ele><time>2017-9-18T19:15:7Z</time></trkpt>
<trkpt lat="48.416102" lon="2.660117"><ele></ele><time>2017-9-18T19:15:10Z</time></trkpt>
<trkpt lat="48.416016" lon="2.660207"><ele></ele><time>2017-9-18T19:15:13Z</time></trkpt>
<trkpt lat="48.415927" lon="2.660301"><ele></ele><time>2017-9-18T19:15:16Z</time></trkpt>
<trkpt lat="48.415853" lon="2.660395"><ele></ele><time>2017-9-18T19:15:19Z</time></trkpt>
<trkpt lat="48.415796" lon="2.660518"><ele></ele><time>2017-9-18T19:15:22Z</time></trkpt>
<trkpt lat="48.415777" lon="2.660675"><ele></ele><time>2017-9-18T19:15:25Z</time></trkpt>
<trkpt lat="48.415751" lon="2.660834"><ele></ele><time>2017-9-18T19:15:28Z</time></trkpt>
<trkpt lat="48.415704" lon="2.660996"><ele></ele><time>2017-9-18T19:15:31Z</time></trkpt>
<trkpt lat="48.415648" lon="2.661131"><ele></ele><time>2017-9-18T19:15:34Z</time></trkpt>
<trkpt lat="48.415602" lon="2.661262"><ele></ele><time>2017-9-18T19:15:37Z</time></trkpt>
<trkpt lat="48.415516" lon="2.661521"><ele></ele><time>2017-9-18T19:15:40Z</time></trkpt>
<trkpt lat="48.415437" lon="2.661677"><ele></ele><time>2017-9-18T19:15:43Z</time></trkpt>
<trkpt lat="48.415387" lon="2.661796"><ele></ele><time>2017-9-18T19:15:46Z</time></trkpt>
<trkpt lat="48.415318" lon="2.661908"><ele></ele><time>2017-9-18T19:15:49Z</time></trkpt>
<trkpt lat="48.415255" lon="2.662022"><ele></ele><time>2017-9-18T19:15:52Z</time></trkpt>
<trkpt lat="48.415191" lon="2.662131"><ele></ele><time>2017-9-18T19:15:55Z</time></trkpt>
<trkpt lat="48.4151" lon="2.662162"><ele></ele><time>2017-9-18T19:15:58Z</time></trkpt>
<trkpt lat="48.415008" lon="2.662061"><ele></ele><time>2017-9-18T19:16:1Z</time></trkpt>
<trkpt lat="48.414938" lon="2.661948"><ele></ele><time>2017-9-18T19:16:4Z</time></trkpt>
<trkpt lat="48.414855" lon="2.661823"><ele></ele><time>2017-9-18T19:16:7Z</time></trkpt>
<trkpt lat="48.414791" lon="2.661708"><ele></ele><time>2017-9-18T19:16:10Z</time></trkpt>
<trkpt lat="48.414714" lon="2.661578"><ele></ele><time>2017-9-18T19:16:13Z</time></trkpt>
<trkpt lat="48.414639" lon="2.661438"><ele></ele><time>2017-9-18T19:16:16Z</time></trkpt>
<trkpt lat="48.414568" lon="2.661314"><ele></ele><time>2017-9-18T19:16:19Z</time></trkpt>
<trkpt lat="48.414481" lon="2.661169"><ele></ele><time>2017-9-18T19:16:22Z</time></trkpt>
<trkpt lat="48.414396" lon="2.661017"><ele></ele><time>2017-9-18T19:16:25Z</time></trkpt>
<trkpt lat="48.41431" lon="2.660868"><ele></ele><time>2017-9-18T19:16:28Z</time></trkpt>
<trkpt lat="48.414162" lon="2.660609"><ele></ele><time>2017-9-18T19:16:31Z</time></trkpt>
<trkpt lat="48.414096" lon="2.660504"><ele></ele><time>2017-9-18T19:16:34Z</time></trkpt>
<trkpt lat="48.414027" lon="2.660384"><ele></ele><time>2017-9-18T19:16:37Z</time></trkpt>
<trkpt lat="48.413965" lon="2.660266"><ele></ele><time>2017-9-18T19:16:40Z</time></trkpt>
<trkpt lat="48.413897" lon="2.660151"><ele></ele><time>2017-9-18T19:16:43Z</time></trkpt>
<trkpt lat="48.413826" lon="2.660048"><ele></ele><time>2017-9-18T19:16:46Z</time></trkpt>
<trkpt lat="48.413751" lon="2.659928"><ele></ele><time>2017-9-18T19:16:49Z</time></trkpt>
<trkpt lat="48.413689" lon="2.659829"><ele></ele><time>2017-9-18T19:16:52Z</time></trkpt>
<trkpt lat="48.413601" lon="2.659683"><ele></ele><time>2017-9-18T19:16:55Z</time></trkpt>
<trkpt lat="48.413532" lon="2.65956"><ele></ele><time>2017-9-18T19:16:58Z</time></trkpt>
<trkpt lat="48.413459" lon="2.659439"><ele></ele><time>2017-9-18T19:17:1Z</time></trkpt>
<trkpt lat="48.413398" lon="2.659333"><ele></ele><time>2017-9-18T19:17:4Z</time></trkpt>
<trkpt lat="48.413298" lon="2.659207"><ele></ele><time>2017-9-18T19:17:7Z</time></trkpt>
<trkpt lat="48.413227" lon="2.659077"><ele></ele><time>2017-9-18T19:17:10Z</time></trkpt>
<trkpt lat="48.413161" lon="2.658967"><ele></ele><time>2017-9-18T19:17:13Z</time></trkpt>
<trkpt lat="48.413094" lon="2.658857"><ele></ele><time>2017-9-18T19:17:16Z</time></trkpt>
<trkpt lat="48.413025" lon="2.658742"><ele></ele><time>2017-9-18T19:17:19Z</time></trkpt>
<trkpt lat="48.412953" lon="2.658606"><ele></ele><time>2017-9-18T19:17:22Z</time></trkpt>
<trkpt lat="48.41288" lon="2.658493"><ele></ele><time>2017-9-18T19:17:25Z</time></trkpt>
<trkpt lat="48.412814" lon="2.658375"><ele></ele><time>2017-9-18T19:17:28Z</time></trkpt>
<trkpt lat="48.412739" lon="2.658257"><ele></ele><time>2017-9-18T19:17:31Z</time></trkpt>
<trkpt lat="48.412551" lon="2.657956"><ele></ele><time>2017-9-18T19:17:34Z</time></trkpt>
<trkpt lat="48.412442" lon="2.657766"><ele></ele><time>2017-9-18T19:17:37Z</time></trkpt>
<trkpt lat="48.412369" lon="2.657634"><ele></ele><time>2017-9-18T19:17:40Z</time></trkpt>
<trkpt lat="48.412291" lon="2.657484"><ele></ele><time>2017-9-18T19:17:43Z</time></trkpt>
<trkpt lat="48.412227" lon="2.657375"><ele></ele><time>2017-9-18T19:17:46Z</time></trkpt>
<trkpt lat="48.412161" lon="2.657255"><ele></ele><time>2017-9-18T19:17:49Z</time></trkpt>
<trkpt lat="48.412095" lon="2.657136"><ele></ele><time>2017-9-18T19:17:52Z</time></trkpt>
<trkpt lat="48.412019" lon="2.657027"><ele></ele><time>2017-9-18T19:17:55Z</time></trkpt>
<trkpt lat="48.411952" lon="2.656914"><ele></ele><time>2017-9-18T19:17:58Z</time></trkpt>
<trkpt lat="48.411881" lon="2.656804"><ele></ele><time>2017-9-18T19:18:1Z</time></trkpt>
<trkpt lat="48.411794" lon="2.656684"><ele></ele><time>2017-9-18T19:18:4Z</time></trkpt>
<trkpt lat="48.411703" lon="2.656766"><ele></ele><time>2017-9-18T19:18:7Z</time></trkpt>
<trkpt lat="48.411622" lon="2.656843"><ele></ele><time>2017-9-18T19:18:10Z</time></trkpt>
<trkpt lat="48.411617" lon="2.656987"><ele></ele><time>2017-9-18T19:18:13Z</time></trkpt>
<trkpt lat="48.411557" lon="2.657154"><ele></ele><time>2017-9-18T19:18:16Z</time></trkpt>
<trkpt lat="48.411453" lon="2.657301"><ele></ele><time>2017-9-18T19:18:19Z</time></trkpt>
<trkpt lat="48.411311" lon="2.657563"><ele></ele><time>2017-9-18T19:18:22Z</time></trkpt>
<trkpt lat="48.411238" lon="2.65772"><ele></ele><time>2017-9-18T19:18:25Z</time></trkpt>
<trkpt lat="48.41116" lon="2.657887"><ele></ele><time>2017-9-18T19:18:28Z</time></trkpt>
<trkpt lat="48.411102" lon="2.658"><ele></ele><time>2017-9-18T19:18:31Z</time></trkpt>
<trkpt lat="48.411041" lon="2.658106"><ele></ele><time>2017-9-18T19:18:34Z</time></trkpt>
<trkpt lat="48.410965" lon="2.658279"><ele></ele><time>2017-9-18T19:18:37Z</time></trkpt>
<trkpt lat="48.410902" lon="2.658419"><ele></ele><time>2017-9-18T19:18:40Z</time></trkpt>
<trkpt lat="48.410822" lon="2.658566"><ele></ele><time>2017-9-18T19:18:43Z</time></trkpt>
<trkpt lat="48.410754" lon="2.658713"><ele></ele><time>2017-9-18T19:18:46Z</time></trkpt>
<trkpt lat="48.410691" lon="2.658838"><ele></ele><time>2017-9-18T19:18:49Z</time></trkpt>
<trkpt lat="48.410627" lon="2.658969"><ele></ele><time>2017-9-18T19:18:52Z</time></trkpt>
<trkpt lat="48.410555" lon="2.659116"><ele></ele><time>2017-9-18T19:18:55Z</time></trkpt>
<trkpt lat="48.410486" lon="2.659257"><ele></ele><time>2017-9-18T19:18:58Z</time></trkpt>
<trkpt lat="48.410417" lon="2.659372"><ele></ele><time>2017-9-18T19:19:1Z</time></trkpt>
<trkpt lat="48.41034" lon="2.659491"><ele></ele><time>2017-9-18T19:19:4Z</time></trkpt>
<trkpt lat="48.410275" lon="2.659618"><ele></ele><time>2017-9-18T19:19:7Z</time></trkpt>
<trkpt lat="48.410227" lon="2.659738"><ele></ele><time>2017-9-18T19:19:10Z</time></trkpt>
<trkpt lat="48.410168" lon="2.659874"><ele></ele><time>2017-9-18T19:19:13Z</time></trkpt>
<trkpt lat="48.410101" lon="2.660012"><ele></ele><time>2017-9-18T19:19:16Z</time></trkpt>
<trkpt lat="48.410043" lon="2.660132"><ele></ele><time>2017-9-18T19:19:19Z</time></trkpt>
<trkpt lat="48.409916" lon="2.660359"><ele></ele><time>2017-9-18T19:19:22Z</time></trkpt>
<trkpt lat="48.409844" lon="2.660466"><ele></ele><time>2017-9-18T19:19:25Z</time></trkpt>
<trkpt lat="48.409781" lon="2.660566"><ele></ele><time>2017-9-18T19:19:28Z</time></trkpt>
<trkpt lat="48.409727" lon="2.660706"><ele></ele><time>2017-9-18T19:19:31Z</time></trkpt>
<trkpt lat="48.409646" lon="2.660855"><ele></ele><time>2017-9-18T19:19:34Z</time></trkpt>
<trkpt lat="48.409565" lon="2.661004"><ele></ele><time>2017-9-18T19:19:37Z</time></trkpt>
<trkpt lat="48.409481" lon="2.661137"><ele></ele><time>2017-9-18T19:19:40Z</time></trkpt>
<trkpt lat="48.409443" lon="2.661265"><ele></ele><time>2017-9-18T19:19:43Z</time></trkpt>
<trkpt lat="48.409378" lon="2.661374"><ele></ele><time>2017-9-18T19:19:46Z</time></trkpt>
<trkpt lat="48.409293" lon="2.661501"><ele></ele><time>2017-9-18T19:19:49Z</time></trkpt>
<trkpt lat="48.409236" lon="2.661648"><ele></ele><time>2017-9-18T19:19:52Z</time></trkpt>
<trkpt lat="48.409195" lon="2.66179"><ele></ele><time>2017-9-18T19:19:55Z</time></trkpt>
<trkpt lat="48.409125" lon="2.661897"><ele></ele><time>2017-9-18T19:19:58Z</time></trkpt>
<trkpt lat="48.409068" lon="2.662023"><ele></ele><time>2017-9-18T19:20:1Z</time></trkpt>
<trkpt lat="48.408923" lon="2.662263"><ele></ele><time>2017-9-18T19:20:4Z</time></trkpt>
<trkpt lat="48.408821" lon="2.662403"><ele></ele><time>2017-9-18T19:20:7Z</time></trkpt>
<trkpt lat="48.408759" lon="2.662511"><ele></ele><time>2017-9-18T19:20:10Z</time></trkpt>
<trkpt lat="48.408701" lon="2.662629"><ele></ele><time>2017-9-18T19:20:13Z</time></trkpt>
<trkpt lat="48.40863" lon="2.66276"><ele></ele><time>2017-9-18T19:20:16Z</time></trkpt>
<trkpt lat="48.408565" lon="2.662865"><ele></ele><time>2017-9-18T19:20:19Z</time></trkpt>
<trkpt lat="48.4085" lon="2.66299"><ele></ele><time>2017-9-18T19:20:22Z</time></trkpt>
<trkpt lat="48.408464" lon="2.663119"><ele></ele><time>2017-9-18T19:20:25Z</time></trkpt>
<trkpt lat="48.408414" lon="2.663234"><ele></ele><time>2017-9-18T19:20:28Z</time></trkpt>
<trkpt lat="48.408367" lon="2.663354"><ele></ele><time>2017-9-18T19:20:31Z</time></trkpt>
<trkpt lat="48.408304" lon="2.663459"><ele></ele><time>2017-9-18T19:20:34Z</time></trkpt>
<trkpt lat="48.408251" lon="2.66358"><ele></ele><time>2017-9-18T19:20:37Z</time></trkpt>
<trkpt lat="48.408147" lon="2.663734"><ele></ele><time>2017-9-18T19:20:40Z</time></trkpt>
<trkpt lat="48.408088" lon="2.663866"><ele></ele><time>2017-9-18T19:20:43Z</time></trkpt>
<trkpt lat="48.408043" lon="2.663719"><ele></ele><time>2017-9-18T19:20:46Z</time></trkpt>
<trkpt lat="48.408034" lon="2.663353"><ele></ele><time>2017-9-18T19:20:49Z</time></trkpt>
<trkpt lat="48.408042" lon="2.663205"><ele></ele><time>2017-9-18T19:20:52Z</time></trkpt>
<trkpt lat="48.407985" lon="2.66303"><ele></ele><time>2017-9-18T19:20:55Z</time></trkpt>
<trkpt lat="48.407973" lon="2.662875"><ele></ele><time>2017-9-18T19:20:58Z</time></trkpt>
<trkpt lat="48.407968" lon="2.66258"><ele></ele><time>2017-9-18T19:21:1Z</time></trkpt>
<trkpt lat="48.407953" lon="2.662442"><ele></ele><time>2017-9-18T19:21:4Z</time></trkpt>
<trkpt lat="48.407929" lon="2.662205"><ele></ele><time>2017-9-18T19:21:7Z</time></trkpt>
<trkpt lat="48.407911" lon="2.662052"><ele></ele><time>2017-9-18T19:21:10Z</time></trkpt>
<trkpt lat="48.407822" lon="2.661884"><ele></ele><time>2017-9-18T19:21:13Z</time></trkpt>
<trkpt lat="48.407778" lon="2.66169"><ele></ele><time>2017-9-18T19:21:16Z</time></trkpt>
<trkpt lat="48.407737" lon="2.661523"><ele></ele><time>2017-9-18T19:21:19Z</time></trkpt>
<trkpt lat="48.407707" lon="2.661347"><ele></ele><time>2017-9-18T19:21:22Z</time></trkpt>
<trkpt lat="48.407701" lon="2.661155"><ele></ele><time>2017-9-18T19:21:25Z</time></trkpt>
<trkpt lat="48.407671" lon="2.660994"><ele></ele><time>2017-9-18T19:21:28Z</time></trkpt>
<trkpt lat="48.407652" lon="2.660834"><ele></ele><time>2017-9-18T19:21:31Z</time></trkpt>
<trkpt lat="48.407623" lon="2.660695"><ele></ele><time>2017-9-18T19:21:34Z</time></trkpt>
<trkpt lat="48.407574" lon="2.660534"><ele></ele><time>2017-9-18T19:21:37Z</time></trkpt>
<trkpt lat="48.407564" lon="2.660362"><ele></ele><time>2017-9-18T19:21:40Z</time></trkpt>
<trkpt lat="48.407558" lon="2.660222"><ele></ele><time>2017-9-18T19:21:43Z</time></trkpt>
<trkpt lat="48.407524" lon="2.660086"><ele></ele><time>2017-9-18T19:21:46Z</time></trkpt>
<trkpt lat="48.407509" lon="2.659933"><ele></ele><time>2017-9-18T19:21:49Z</time></trkpt>
<trkpt lat="48.407547" lon="2.65976"><ele></ele><time>2017-9-18T19:21:52Z</time></trkpt>
<trkpt lat="48.40756" lon="2.659564"><ele></ele><time>2017-9-18T19:21:55Z</time></trkpt>
<trkpt lat="48.407559" lon="2.659421"><ele></ele><time>2017-9-18T19:21:58Z</time></trkpt>
<trkpt lat="48.407544" lon="2.65925"><ele></ele><time>2017-9-18T19:22:1Z</time></trkpt>
<trkpt lat="48.407566" lon="2.658921"><ele></ele><time>2017-9-18T19:22:4Z</time></trkpt>
<trkpt lat="48.407607" lon="2.658769"><ele></ele><time>2017-9-18T19:22:7Z</time></trkpt>
<trkpt lat="48.407629" lon="2.658632"><ele></ele><time>2017-9-18T19:22:10Z</time></trkpt>
<trkpt lat="48.407671" lon="2.65849"><ele></ele><time>2017-9-18T19:22:13Z</time></trkpt>
<trkpt lat="48.407713" lon="2.658361"><ele></ele><time>2017-9-18T19:22:16Z</time></trkpt>
<trkpt lat="48.407754" lon="2.658211"><ele></ele><time>2017-9-18T19:22:19Z</time></trkpt>
<trkpt lat="48.407795" lon="2.658088"><ele></ele><time>2017-9-18T19:22:22Z</time></trkpt>
<trkpt lat="48.407831" lon="2.65794"><ele></ele><time>2017-9-18T19:22:25Z</time></trkpt>
<trkpt lat="48.407859" lon="2.657806"><ele></ele><time>2017-9-18T19:22:28Z</time></trkpt>
<trkpt lat="48.407856" lon="2.657662"><ele></ele><time>2017-9-18T19:22:31Z</time></trkpt>
<trkpt lat="48.407843" lon="2.657517"><ele></ele><time>2017-9-18T19:22:34Z</time></trkpt>
<trkpt lat="48.407836" lon="2.657374"><ele></ele><time>2017-9-18T19:22:37Z</time></trkpt>
<trkpt lat="48.407901" lon="2.657277"><ele></ele><time>2017-9-18T19:22:40Z</time></trkpt>
<trkpt lat="48.407955" lon="2.657141"><ele></ele><time>2017-9-18T19:22:43Z</time></trkpt>
<trkpt lat="48.407995" lon="2.656951"><ele></ele><time>2017-9-18T19:22:46Z</time></trkpt>
<trkpt lat="48.40803" lon="2.656773"><ele></ele><time>2017-9-18T19:22:49Z</time></trkpt>
<trkpt lat="48.40801" lon="2.656589"><ele></ele><time>2017-9-18T19:22:52Z</time></trkpt>
<trkpt lat="48.407999" lon="2.65645"><ele></ele><time>2017-9-18T19:22:55Z</time></trkpt>
<trkpt lat="48.407985" lon="2.656279"><ele></ele><time>2017-9-18T19:22:58Z</time></trkpt>
<trkpt lat="48.407971" lon="2.656125"><ele></ele><time>2017-9-18T19:23:1Z</time></trkpt>
<trkpt lat="48.40794" lon="2.655979"><ele></ele><time>2017-9-18T19:23:4Z</time></trkpt>
<trkpt lat="48.407944" lon="2.655828"><ele></ele><time>2017-9-18T19:23:7Z</time></trkpt>
<trkpt lat="48.407888" lon="2.655705"><ele></ele><time>2017-9-18T19:23:10Z</time></trkpt>
<trkpt lat="48.40781" lon="2.65559"><ele></ele><time>2017-9-18T19:23:13Z</time></trkpt>
<trkpt lat="48.407737" lon="2.65548"><ele></ele><time>2017-9-18T19:23:16Z</time></trkpt>
<trkpt lat="48.407682" lon="2.655368"><ele></ele><time>2017-9-18T19:23:19Z</time></trkpt>
<trkpt lat="48.407611" lon="2.655184"><ele></ele><time>2017-9-18T19:23:22Z</time></trkpt>
<trkpt lat="48.407629" lon="2.654859"><ele></ele><time>2017-9-18T19:23:25Z</time></trkpt>
<trkpt lat="48.407669" lon="2.654727"><ele></ele><time>2017-9-18T19:23:28Z</time></trkpt>
<trkpt lat="48.407723" lon="2.654536"><ele></ele><time>2017-9-18T19:23:31Z</time></trkpt>
<trkpt lat="48.407785" lon="2.654374"><ele></ele><time>2017-9-18T19:23:34Z</time></trkpt>
<trkpt lat="48.407793" lon="2.654201"><ele></ele><time>2017-9-18T19:23:37Z</time></trkpt>
<trkpt lat="48.407786" lon="2.654008"><ele></ele><time>2017-9-18T19:23:40Z</time></trkpt>
<trkpt lat="48.407768" lon="2.653812"><ele></ele><time>2017-9-18T19:23:43Z</time></trkpt>
<trkpt lat="48.407789" lon="2.653656"><ele></ele><time>2017-9-18T19:23:46Z</time></trkpt>
<trkpt lat="48.407814" lon="2.653495"><ele></ele><time>2017-9-18T19:23:49Z</time></trkpt>
<trkpt lat="48.407836" lon="2.653327"><ele></ele><time>2017-9-18T19:23:52Z</time></trkpt>
<trkpt lat="48.40786" lon="2.653144"><ele></ele><time>2017-9-18T19:23:55Z</time></trkpt>
<trkpt lat="48.407854" lon="2.652939"><ele></ele><time>2017-9-18T19:23:58Z</time></trkpt>
<trkpt lat="48.407852" lon="2.652779"><ele></ele><time>2017-9-18T19:24:1Z</time></trkpt>
<trkpt lat="48.407893" lon="2.652622"><ele></ele><time>2017-9-18T19:24:4Z</time></trkpt>
<trkpt lat="48.407923" lon="2.652467"><ele></ele><time>2017-9-18T19:24:7Z</time></trkpt>
<trkpt lat="48.407916" lon="2.652321"><ele></ele><time>2017-9-18T19:24:10Z</time></trkpt>
<trkpt lat="48.407898" lon="2.652142"><ele></ele><time>2017-9-18T19:24:13Z</time></trkpt>
<trkpt lat="48.407882" lon="2.652004"><ele></ele><time>2017-9-18T19:24:16Z</time></trkpt>
<trkpt lat="48.407933" lon="2.651841"><ele></ele><time>2017-9-18T19:24:19Z</time></trkpt>
<trkpt lat="48.407998" lon="2.651685"><ele></ele><time>2017-9-18T19:24:22Z</time></trkpt>
<trkpt lat="48.407967" lon="2.651534"><ele></ele><time>2017-9-18T19:24:25Z</time></trkpt>
<trkpt lat="48.407884" lon="2.651418"><ele></ele><time>2017-9-18T19:24:28Z</time></trkpt>
<trkpt lat="48.407715" lon="2.651174"><ele></ele><time>2017-9-18T19:24:31Z</time></trkpt>
<trkpt lat="48.407642" lon="2.651092"><ele></ele><time>2017-9-18T19:24:34Z</time></trkpt>
<trkpt lat="48.407572" lon="2.651"><ele></ele><time>2017-9-18T19:24:37Z</time></trkpt>
<trkpt lat="48.407494" lon="2.650922"><ele></ele><time>2017-9-18T19:24:40Z</time></trkpt>
<trkpt lat="48.407402" lon="2.650815"><ele></ele><time>2017-9-18T19:24:43Z</time></trkpt>
<trkpt lat="48.407309" lon="2.650667"><ele></ele><time>2017-9-18T19:24:46Z</time></trkpt>
<trkpt lat="48.407266" lon="2.650546"><ele></ele><time>2017-9-18T19:24:49Z</time></trkpt>
<trkpt lat="48.407222" lon="2.650424"><ele></ele><time>2017-9-18T19:24:52Z</time></trkpt>
<trkpt lat="48.407171" lon="2.65028"><ele></ele><time>2017-9-18T19:24:55Z</time></trkpt>
<trkpt lat="48.407096" lon="2.650178"><ele></ele><time>2017-9-18T19:24:58Z</time></trkpt>
<trkpt lat="48.407036" lon="2.650066"><ele></ele><time>2017-9-18T19:25:1Z</time></trkpt>
<trkpt lat="48.406968" lon="2.649894"><ele></ele><time>2017-9-18T19:25:4Z</time></trkpt>
<trkpt lat="48.406909" lon="2.649717"><ele></ele><time>2017-9-18T19:25:7Z</time></trkpt>
<trkpt lat="48.406853" lon="2.649597"><ele></ele><time>2017-9-18T19:25:10Z</time></trkpt>
<trkpt lat="48.406762" lon="2.649452"><ele></ele><time>2017-9-18T19:25:13Z</time></trkpt>
<trkpt lat="48.406716" lon="2.649314"><ele></ele><time>2017-9-18T19:25:16Z</time></trkpt>
<trkpt lat="48.406677" lon="2.649122"><ele></ele><time>2017-9-18T19:25:19Z</time></trkpt>
<trkpt lat="48.40666" lon="2.648974"><ele></ele><time>2017-9-18T19:25:22Z</time></trkpt>
<trkpt lat="48.406701" lon="2.648821"><ele></ele><time>2017-9-18T19:25:25Z</time></trkpt>
<trkpt lat="48.40668" lon="2.648675"><ele></ele><time>2017-9-18T19:25:28Z</time></trkpt>
<trkpt lat="48.406646" lon="2.648537"><ele></ele><time>2017-9-18T19:25:31Z</time></trkpt>
<trkpt lat="48.406512" lon="2.648306"><ele></ele><time>2017-9-18T19:25:34Z</time></trkpt>
<trkpt lat="48.406443" lon="2.648176"><ele></ele><time>2017-9-18T19:25:37Z</time></trkpt>
<trkpt lat="48.406361" lon="2.648118"><ele></ele><time>2017-9-18T19:25:40Z</time></trkpt>
<trkpt lat="48.406176" lon="2.648056"><ele></ele><time>2017-9-18T19:25:43Z</time></trkpt>
<trkpt lat="48.406089" lon="2.647987"><ele></ele><time>2017-9-18T19:25:46Z</time></trkpt>
<trkpt lat="48.405985" lon="2.647925"><ele></ele><time>2017-9-18T19:25:49Z</time></trkpt>
<trkpt lat="48.405867" lon="2.647883"><ele></ele><time>2017-9-18T19:25:52Z</time></trkpt>
<trkpt lat="48.405751" lon="2.647831"><ele></ele><time>2017-9-18T19:25:55Z</time></trkpt>
<trkpt lat="48.405653" lon="2.6478"><ele></ele><time>2017-9-18T19:25:58Z</time></trkpt>
<trkpt lat="48.40554" lon="2.647764"><ele></ele><time>2017-9-18T19:26:1Z</time></trkpt>
<trkpt lat="48.405421" lon="2.647705"><ele></ele><time>2017-9-18T19:26:4Z</time></trkpt>
<trkpt lat="48.405323" lon="2.647658"><ele></ele><time>2017-9-18T19:26:7Z</time></trkpt>
<trkpt lat="48.405218" lon="2.647678"><ele></ele><time>2017-9-18T19:26:10Z</time></trkpt>
<trkpt lat="48.405125" lon="2.647671"><ele></ele><time>2017-9-18T19:26:13Z</time></trkpt>
<trkpt lat="48.405037" lon="2.647612"><ele></ele><time>2017-9-18T19:26:16Z</time></trkpt>
<trkpt lat="48.404844" lon="2.6475"><ele></ele><time>2017-9-18T19:26:19Z</time></trkpt>
<trkpt lat="48.40476" lon="2.647427"><ele></ele><time>2017-9-18T19:26:22Z</time></trkpt>
<trkpt lat="48.404669" lon="2.647428"><ele></ele><time>2017-9-18T19:26:25Z</time></trkpt>
<trkpt lat="48.404593" lon="2.647353"><ele></ele><time>2017-9-18T19:26:28Z</time></trkpt>
<trkpt lat="48.404513" lon="2.647284"><ele></ele><time>2017-9-18T19:26:31Z</time></trkpt>
<trkpt lat="48.404421" lon="2.647312"><ele></ele><time>2017-9-18T19:26:34Z</time></trkpt>
<trkpt lat="48.40429" lon="2.647118"><ele></ele><time>2017-9-18T19:26:37Z</time></trkpt>
<trkpt lat="48.404318" lon="2.647249"><ele></ele><time>2017-9-18T19:26:40Z</time></trkpt>
<trkpt lat="48.404197" lon="2.647504"><ele></ele><time>2017-9-18T19:26:43Z</time></trkpt>
<trkpt lat="48.404145" lon="2.647628"><ele></ele><time>2017-9-18T19:26:46Z</time></trkpt>
<trkpt lat="48.40406" lon="2.647691"><ele></ele><time>2017-9-18T19:26:49Z</time></trkpt>
<trkpt lat="48.403985" lon="2.647767"><ele></ele><time>2017-9-18T19:26:52Z</time></trkpt>
<trkpt lat="48.404023" lon="2.647943"><ele></ele><time>2017-9-18T19:26:55Z</time></trkpt>
<trkpt lat="48.404065" lon="2.648063"><ele></ele><time>2017-9-18T19:26:58Z</time></trkpt>
<trkpt lat="48.404138" lon="2.648186"><ele></ele><time>2017-9-18T19:27:1Z</time></trkpt>
<trkpt lat="48.404218" lon="2.648313"><ele></ele><time>2017-9-18T19:27:4Z</time></trkpt>
<trkpt lat="48.404246" lon="2.648482"><ele></ele><time>2017-9-18T19:27:7Z</time></trkpt>
<trkpt lat="48.40418" lon="2.648576"><ele></ele><time>2017-9-18T19:27:10Z</time></trkpt>
<trkpt lat="48.404082" lon="2.648573"><ele></ele><time>2017-9-18T19:27:13Z</time></trkpt>
<trkpt lat="48.403972" lon="2.648647"><ele></ele><time>2017-9-18T19:27:16Z</time></trkpt>
<trkpt lat="48.403879" lon="2.648609"><ele></ele><time>2017-9-18T19:27:19Z</time></trkpt>
<trkpt lat="48.403669" lon="2.648524"><ele></ele><time>2017-9-18T19:27:22Z</time></trkpt>
<trkpt lat="48.403617" lon="2.648641"><ele></ele><time>2017-9-18T19:27:25Z</time></trkpt>
<trkpt lat="48.403605" lon="2.648809"><ele></ele><time>2017-9-18T19:27:28Z</time></trkpt>
<trkpt lat="48.403637" lon="2.648958"><ele></ele><time>2017-9-18T19:27:31Z</time></trkpt>
<trkpt lat="48.403607" lon="2.649115"><ele></ele><time>2017-9-18T19:27:34Z</time></trkpt>
<trkpt lat="48.403578" lon="2.649244"><ele></ele><time>2017-9-18T19:27:37Z</time></trkpt>
<trkpt lat="48.403571" lon="2.649428"><ele></ele><time>2017-9-18T19:27:40Z</time></trkpt>
<trkpt lat="48.4036" lon="2.649572"><ele></ele><time>2017-9-18T19:27:43Z</time></trkpt>
<trkpt lat="48.403655" lon="2.649747"><ele></ele><time>2017-9-18T19:27:46Z</time></trkpt>
<trkpt lat="48.403719" lon="2.64989"><ele></ele><time>2017-9-18T19:27:49Z</time></trkpt>
<trkpt lat="48.403758" lon="2.650034"><ele></ele><time>2017-9-18T19:27:52Z</time></trkpt>
<trkpt lat="48.403765" lon="2.650204"><ele></ele><time>2017-9-18T19:27:55Z</time></trkpt>
<trkpt lat="48.403762" lon="2.65035"><ele></ele><time>2017-9-18T19:27:58Z</time></trkpt>
<trkpt lat="48.403703" lon="2.650495"><ele></ele><time>2017-9-18T19:28:1Z</time></trkpt>
<trkpt lat="48.403717" lon="2.650674"><ele></ele><time>2017-9-18T19:28:4Z</time></trkpt>
<trkpt lat="48.403725" lon="2.650843"><ele></ele><time>2017-9-18T19:28:7Z</time></trkpt>
<trkpt lat="48.403761" lon="2.650977"><ele></ele><time>2017-9-18T19:28:10Z</time></trkpt>
<trkpt lat="48.403749" lon="2.651121"><ele></ele><time>2017-9-18T19:28:13Z</time></trkpt>
<trkpt lat="48.403789" lon="2.651469"><ele></ele><time>2017-9-18T19:28:16Z</time></trkpt>
<trkpt lat="48.403842" lon="2.651636"><ele></ele><time>2017-9-18T19:28:19Z</time></trkpt>
<trkpt lat="48.403897" lon="2.651808"><ele></ele><time>2017-9-18T19:28:22Z</time></trkpt>
<trkpt lat="48.40394" lon="2.651957"><ele></ele><time>2017-9-18T19:28:25Z</time></trkpt>
<trkpt lat="48.403976" lon="2.652087"><ele></ele><time>2017-9-18T19:28:28Z</time></trkpt>
<trkpt lat="48.40401" lon="2.652222"><ele></ele><time>2017-9-18T19:28:31Z</time></trkpt>
<trkpt lat="48.404066" lon="2.652351"><ele></ele><time>2017-9-18T19:28:34Z</time></trkpt>
<trkpt lat="48.404124" lon="2.652469"><ele></ele><time>2017-9-18T19:28:37Z</time></trkpt>
<trkpt lat="48.404176" lon="2.652641"><ele></ele><time>2017-9-18T19:28:40Z</time></trkpt>
<trkpt lat="48.404237" lon="2.652807"><ele></ele><time>2017-9-18T19:28:43Z</time></trkpt>
<trkpt lat="48.404297" lon="2.652947"><ele></ele><time>2017-9-18T19:28:46Z</time></trkpt>
<trkpt lat="48.404342" lon="2.653073"><ele></ele><time>2017-9-18T19:28:49Z</time></trkpt>
<trkpt lat="48.404409" lon="2.653232"><ele></ele><time>2017-9-18T19:28:52Z</time></trkpt>
<trkpt lat="48.404459" lon="2.653379"><ele></ele><time>2017-9-18T19:28:55Z</time></trkpt>
<trkpt lat="48.404484" lon="2.653517"><ele></ele><time>2017-9-18T19:28:58Z</time></trkpt>
<trkpt lat="48.404556" lon="2.6536"><ele></ele><time>2017-9-18T19:29:1Z</time></trkpt>
<trkpt lat="48.404664" lon="2.653613"><ele></ele><time>2017-9-18T19:29:4Z</time></trkpt>
<trkpt lat="48.404847" lon="2.653627"><ele></ele><time>2017-9-18T19:29:7Z</time></trkpt>
<trkpt lat="48.404942" lon="2.653635"><ele></ele><time>2017-9-18T19:29:10Z</time></trkpt>
<trkpt lat="48.405133" lon="2.653637"><ele></ele><time>2017-9-18T19:29:13Z</time></trkpt>
<trkpt lat="48.405228" lon="2.653721"><ele></ele><time>2017-9-18T19:29:16Z</time></trkpt>
<trkpt lat="48.405297" lon="2.653815"><ele></ele><time>2017-9-18T19:29:19Z</time></trkpt>
<trkpt lat="48.405368" lon="2.653911"><ele></ele><time>2017-9-18T19:29:22Z</time></trkpt>
<trkpt lat="48.405442" lon="2.654006"><ele></ele><time>2017-9-18T19:29:25Z</time></trkpt>
<trkpt lat="48.405537" lon="2.654024"><ele></ele><time>2017-9-18T19:29:28Z</time></trkpt>
<trkpt lat="48.405617" lon="2.653937"><ele></ele><time>2017-9-18T19:29:31Z</time></trkpt>
<trkpt lat="48.405707" lon="2.653909"><ele></ele><time>2017-9-18T19:29:34Z</time></trkpt>
<trkpt lat="48.405893" lon="2.653873"><ele></ele><time>2017-9-18T19:29:37Z</time></trkpt>
<trkpt lat="48.40598" lon="2.653811"><ele></ele><time>2017-9-18T19:29:40Z</time></trkpt>
<trkpt lat="48.406073" lon="2.653758"><ele></ele><time>2017-9-18T19:29:43Z</time></trkpt>
<trkpt lat="48.406163" lon="2.653759"><ele></ele><time>2017-9-18T19:29:46Z</time></trkpt>
<trkpt lat="48.406192" lon="2.653899"><ele></ele><time>2017-9-18T19:29:49Z</time></trkpt>
<trkpt lat="48.406217" lon="2.654042"><ele></ele><time>2017-9-18T19:29:52Z</time></trkpt>
<trkpt lat="48.406276" lon="2.654189"><ele></ele><time>2017-9-18T19:29:55Z</time></trkpt>
<trkpt lat="48.406385" lon="2.65447"><ele></ele><time>2017-9-18T19:29:58Z</time></trkpt>
<trkpt lat="48.406408" lon="2.654611"><ele></ele><time>2017-9-18T19:30:1Z</time></trkpt>
<trkpt lat="48.406426" lon="2.654755"><ele></ele><time>2017-9-18T19:30:4Z</time></trkpt>
<trkpt lat="48.406453" lon="2.654886"><ele></ele><time>2017-9-18T19:30:7Z</time></trkpt>
<trkpt lat="48.406482" lon="2.655034"><ele></ele><time>2017-9-18T19:30:10Z</time></trkpt>
<trkpt lat="48.406515" lon="2.655216"><ele></ele><time>2017-9-18T19:30:13Z</time></trkpt>
<trkpt lat="48.406478" lon="2.655488"><ele></ele><time>2017-9-18T19:30:16Z</time></trkpt>
<trkpt lat="48.40647" lon="2.655686"><ele></ele><time>2017-9-18T19:30:19Z</time></trkpt>
<trkpt lat="48.406436" lon="2.655882"><ele></ele><time>2017-9-18T19:30:22Z</time></trkpt>
<trkpt lat="48.406369" lon="2.656086"><ele></ele><time>2017-9-18T19:30:25Z</time></trkpt>
<trkpt lat="48.40631" lon="2.656315"><ele></ele><time>2017-9-18T19:30:28Z</time></trkpt>
<trkpt lat="48.406275" lon="2.656445"><ele></ele><time>2017-9-18T19:30:31Z</time></trkpt>
<trkpt lat="48.406202" lon="2.656672"><ele></ele><time>2017-9-18T19:30:34Z</time></trkpt>
<trkpt lat="48.406141" lon="2.656905"><ele></ele><time>2017-9-18T19:30:37Z</time></trkpt>
<trkpt lat="48.4061" lon="2.657139"><ele></ele><time>2017-9-18T19:30:40Z</time></trkpt>
<trkpt lat="48.406051" lon="2.657388"><ele></ele><time>2017-9-18T19:30:43Z</time></trkpt>
<trkpt lat="48.406021" lon="2.657605"><ele></ele><time>2017-9-18T19:30:46Z</time></trkpt>
<trkpt lat="48.405996" lon="2.657829"><ele></ele><time>2017-9-18T19:30:49Z</time></trkpt>
<trkpt lat="48.405954" lon="2.658037"><ele></ele><time>2017-9-18T19:30:52Z</time></trkpt>
<trkpt lat="48.405937" lon="2.658244"><ele></ele><time>2017-9-18T19:30:55Z</time></trkpt>
<trkpt lat="48.405926" lon="2.658429"><ele></ele><time>2017-9-18T19:30:58Z</time></trkpt>
<trkpt lat="48.405911" lon="2.658575"><ele></ele><time>2017-9-18T19:31:1Z</time></trkpt>
<trkpt lat="48.405888" lon="2.658719"><ele></ele><time>2017-9-18T19:31:4Z</time></trkpt>
<trkpt lat="48.405808" lon="2.659104"><ele></ele><time>2017-9-18T19:31:7Z</time></trkpt>
<trkpt lat="48.405762" lon="2.659254"><ele></ele><time>2017-9-18T19:31:10Z</time></trkpt>
<trkpt lat="48.405715" lon="2.659386"><ele></ele><time>2017-9-18T19:31:13Z</time></trkpt>
<trkpt lat="48.405651" lon="2.6595"><ele></ele><time>2017-9-18T19:31:16Z</time></trkpt>
<trkpt lat="48.405594" lon="2.659863"><ele></ele><time>2017-9-18T19:31:19Z</time></trkpt>
<trkpt lat="48.40554" lon="2.66001"><ele></ele><time>2017-9-18T19:31:22Z</time></trkpt>
<trkpt lat="48.405534" lon="2.660203"><ele></ele><time>2017-9-18T19:31:25Z</time></trkpt>
<trkpt lat="48.405514" lon="2.660413"><ele></ele><time>2017-9-18T19:31:28Z</time></trkpt>
<trkpt lat="48.405519" lon="2.66062"><ele></ele><time>2017-9-18T19:31:31Z</time></trkpt>
<trkpt lat="48.405505" lon="2.660776"><ele></ele><time>2017-9-18T19:31:34Z</time></trkpt>
<trkpt lat="48.405473" lon="2.660974"><ele></ele><time>2017-9-18T19:31:37Z</time></trkpt>
<trkpt lat="48.405508" lon="2.661105"><ele></ele><time>2017-9-18T19:31:40Z</time></trkpt>
<trkpt lat="48.405555" lon="2.661272"><ele></ele><time>2017-9-18T19:31:43Z</time></trkpt>
<trkpt lat="48.405578" lon="2.661413"><ele></ele><time>2017-9-18T19:31:46Z</time></trkpt>
<trkpt lat="48.405602" lon="2.661559"><ele></ele><time>2017-9-18T19:31:49Z</time></trkpt>
<trkpt lat="48.405631" lon="2.661693"><ele></ele><time>2017-9-18T19:31:52Z</time></trkpt>
<trkpt lat="48.40566" lon="2.661851"><ele></ele><time>2017-9-18T19:31:55Z</time></trkpt>
<trkpt lat="48.405702" lon="2.662014"><ele></ele><time>2017-9-18T19:31:58Z</time></trkpt>
<trkpt lat="48.405731" lon="2.662192"><ele></ele><time>2017-9-18T19:32:1Z</time></trkpt>
<trkpt lat="48.405748" lon="2.662359"><ele></ele><time>2017-9-18T19:32:4Z</time></trkpt>
<trkpt lat="48.405782" lon="2.662494"><ele></ele><time>2017-9-18T19:32:7Z</time></trkpt>
<trkpt lat="48.405813" lon="2.662641"><ele></ele><time>2017-9-18T19:32:10Z</time></trkpt>
<trkpt lat="48.405867" lon="2.663017"><ele></ele><time>2017-9-18T19:32:13Z</time></trkpt>
<trkpt lat="48.405893" lon="2.663169"><ele></ele><time>2017-9-18T19:32:16Z</time></trkpt>
<trkpt lat="48.405866" lon="2.663319"><ele></ele><time>2017-9-18T19:32:19Z</time></trkpt>
<trkpt lat="48.405854" lon="2.663484"><ele></ele><time>2017-9-18T19:32:22Z</time></trkpt>
<trkpt lat="48.405851" lon="2.663647"><ele></ele><time>2017-9-18T19:32:25Z</time></trkpt>
<trkpt lat="48.405822" lon="2.663794"><ele></ele><time>2017-9-18T19:32:28Z</time></trkpt>
<trkpt lat="48.405705" lon="2.663883"><ele></ele><time>2017-9-18T19:32:31Z</time></trkpt>
<trkpt lat="48.405615" lon="2.663942"><ele></ele><time>2017-9-18T19:32:34Z</time></trkpt>
<trkpt lat="48.405511" lon="2.664069"><ele></ele><time>2017-9-18T19:32:37Z</time></trkpt>
<trkpt lat="48.405457" lon="2.66419"><ele></ele><time>2017-9-18T19:32:40Z</time></trkpt>
<trkpt lat="48.405386" lon="2.664329"><ele></ele><time>2017-9-18T19:32:43Z</time></trkpt>
<trkpt lat="48.405323" lon="2.66444"><ele></ele><time>2017-9-18T19:32:46Z</time></trkpt>
<trkpt lat="48.405286" lon="2.664614"><ele></ele><time>2017-9-18T19:32:49Z</time></trkpt>
<trkpt lat="48.405268" lon="2.664777"><ele></ele><time>2017-9-18T19:32:52Z</time></trkpt>
<trkpt lat="48.40525" lon="2.664949"><ele></ele><time>2017-9-18T19:32:55Z</time></trkpt>
<trkpt lat="48.405213" lon="2.665111"><ele></ele><time>2017-9-18T19:32:58Z</time></trkpt>
<trkpt lat="48.405213" lon="2.665273"><ele></ele><time>2017-9-18T19:33:1Z</time></trkpt>
<trkpt lat="48.405196" lon="2.665495"><ele></ele><time>2017-9-18T19:33:4Z</time></trkpt>
<trkpt lat="48.405178" lon="2.665681"><ele></ele><time>2017-9-18T19:33:7Z</time></trkpt>
<trkpt lat="48.405136" lon="2.665883"><ele></ele><time>2017-9-18T19:33:10Z</time></trkpt>
<trkpt lat="48.405124" lon="2.666054"><ele></ele><time>2017-9-18T19:33:13Z</time></trkpt>
<trkpt lat="48.405069" lon="2.66641"><ele></ele><time>2017-9-18T19:33:16Z</time></trkpt>
<trkpt lat="48.405022" lon="2.666695"><ele></ele><time>2017-9-18T19:33:19Z</time></trkpt>
<trkpt lat="48.405004" lon="2.66685"><ele></ele><time>2017-9-18T19:33:22Z</time></trkpt>
<trkpt lat="48.404971" lon="2.667031"><ele></ele><time>2017-9-18T19:33:25Z</time></trkpt>
<trkpt lat="48.404957" lon="2.667191"><ele></ele><time>2017-9-18T19:33:28Z</time></trkpt>
<trkpt lat="48.404938" lon="2.667339"><ele></ele><time>2017-9-18T19:33:31Z</time></trkpt>
<trkpt lat="48.404928" lon="2.66749"><ele></ele><time>2017-9-18T19:33:34Z</time></trkpt>
<trkpt lat="48.404928" lon="2.667627"><ele></ele><time>2017-9-18T19:33:37Z</time></trkpt>
<trkpt lat="48.404978" lon="2.66774"><ele></ele><time>2017-9-18T19:33:40Z</time></trkpt>
<trkpt lat="48.405025" lon="2.667895"><ele></ele><time>2017-9-18T19:33:43Z</time></trkpt>
<trkpt lat="48.405062" lon="2.668042"><ele></ele><time>2017-9-18T19:33:46Z</time></trkpt>
<trkpt lat="48.405118" lon="2.66818"><ele></ele><time>2017-9-18T19:33:49Z</time></trkpt>
<trkpt lat="48.405149" lon="2.668318"><ele></ele><time>2017-9-18T19:33:52Z</time></trkpt>
<trkpt lat="48.405197" lon="2.668441"><ele></ele><time>2017-9-18T19:33:55Z</time></trkpt>
<trkpt lat="48.405227" lon="2.668581"><ele></ele><time>2017-9-18T19:33:58Z</time></trkpt>
<trkpt lat="48.405282" lon="2.668745"><ele></ele><time>2017-9-18T19:34:1Z</time></trkpt>
<trkpt lat="48.405317" lon="2.668937"><ele></ele><time>2017-9-18T19:34:4Z</time></trkpt>
<trkpt lat="48.405356" lon="2.669085"><ele></ele><time>2017-9-18T19:34:7Z</time></trkpt>
<trkpt lat="48.405376" lon="2.669269"><ele></ele><time>2017-9-18T19:34:10Z</time></trkpt>
<trkpt lat="48.405401" lon="2.6694"><ele></ele><time>2017-9-18T19:34:13Z</time></trkpt>
<trkpt lat="48.405444" lon="2.669581"><ele></ele><time>2017-9-18T19:34:16Z</time></trkpt>
<trkpt lat="48.405523" lon="2.669791"><ele></ele><time>2017-9-18T19:34:19Z</time></trkpt>
<trkpt lat="48.405571" lon="2.669962"><ele></ele><time>2017-9-18T19:34:22Z</time></trkpt>
<trkpt lat="48.405651" lon="2.670302"><ele></ele><time>2017-9-18T19:34:25Z</time></trkpt>
<trkpt lat="48.405689" lon="2.670455"><ele></ele><time>2017-9-18T19:34:28Z</time></trkpt>
<trkpt lat="48.405747" lon="2.670649"><ele></ele><time>2017-9-18T19:34:31Z</time></trkpt>
<trkpt lat="48.40579" lon="2.670812"><ele></ele><time>2017-9-18T19:34:34Z</time></trkpt>
<trkpt lat="48.405837" lon="2.670942"><ele></ele><time>2017-9-18T19:34:37Z</time></trkpt>
<trkpt lat="48.405885" lon="2.67108"><ele></ele><time>2017-9-18T19:34:40Z</time></trkpt>
<trkpt lat="48.405912" lon="2.671227"><ele></ele><time>2017-9-18T19:34:43Z</time></trkpt>
<trkpt lat="48.405953" lon="2.671358"><ele></ele><time>2017-9-18T19:34:46Z</time></trkpt>
<trkpt lat="48.405988" lon="2.671519"><ele></ele><time>2017-9-18T19:34:49Z</time></trkpt>
<trkpt lat="48.405985" lon="2.671681"><ele></ele><time>2017-9-18T19:34:52Z</time></trkpt>
<trkpt lat="48.405949" lon="2.671828"><ele></ele><time>2017-9-18T19:34:55Z</time></trkpt>
<trkpt lat="48.405934" lon="2.672016"><ele></ele><time>2017-9-18T19:34:58Z</time></trkpt>
<trkpt lat="48.405921" lon="2.672154"><ele></ele><time>2017-9-18T19:35:1Z</time></trkpt>
<trkpt lat="48.405913" lon="2.672294"><ele></ele><time>2017-9-18T19:35:4Z</time></trkpt>
<trkpt lat="48.405895" lon="2.672437"><ele></ele><time>2017-9-18T19:35:7Z</time></trkpt>
<trkpt lat="48.405882" lon="2.672573"><ele></ele><time>2017-9-18T19:35:10Z</time></trkpt>
<trkpt lat="48.405864" lon="2.672738"><ele></ele><time>2017-9-18T19:35:13Z</time></trkpt>
<trkpt lat="48.40585" lon="2.6729"><ele></ele><time>2017-9-18T19:35:16Z</time></trkpt>
<trkpt lat="48.405838" lon="2.67306"><ele></ele><time>2017-9-18T19:35:19Z</time></trkpt>
<trkpt lat="48.405831" lon="2.673209"><ele></ele><time>2017-9-18T19:35:22Z</time></trkpt>
<trkpt lat="48.405801" lon="2.673522"><ele></ele><time>2017-9-18T19:35:25Z</time></trkpt>
<trkpt lat="48.405789" lon="2.673681"><ele></ele><time>2017-9-18T19:35:28Z</time></trkpt>
<trkpt lat="48.405769" lon="2.673842"><ele></ele><time>2017-9-18T19:35:31Z</time></trkpt>
<trkpt lat="48.405753" lon="2.674005"><ele></ele><time>2017-9-18T19:35:34Z</time></trkpt>
<trkpt lat="48.405739" lon="2.67416"><ele></ele><time>2017-9-18T19:35:37Z</time></trkpt>
<trkpt lat="48.405726" lon="2.674317"><ele></ele><time>2017-9-18T19:35:40Z</time></trkpt>
<trkpt lat="48.40571" lon="2.674469"><ele></ele><time>2017-9-18T19:35:43Z</time></trkpt>
<trkpt lat="48.405697" lon="2.674614"><ele></ele><time>2017-9-18T19:35:46Z</time></trkpt>
<trkpt lat="48.40568" lon="2.674749"><ele></ele><time>2017-9-18T19:35:49Z</time></trkpt>
<trkpt lat="48.405675" lon="2.674887"><ele></ele><time>2017-9-18T19:35:52Z</time></trkpt>
<trkpt lat="48.405662" lon="2.675031"><ele></ele><time>2017-9-18T19:35:55Z</time></trkpt>
<trkpt lat="48.405658" lon="2.675228"><ele></ele><time>2017-9-18T19:35:58Z</time></trkpt>
<trkpt lat="48.405627" lon="2.67538"><ele></ele><time>2017-9-18T19:36:1Z</time></trkpt>
<trkpt lat="48.405602" lon="2.675574"><ele></ele><time>2017-9-18T19:36:4Z</time></trkpt>
<trkpt lat="48.40559" lon="2.675805"><ele></ele><time>2017-9-18T19:36:7Z</time></trkpt>
<trkpt lat="48.405574" lon="2.675986"><ele></ele><time>2017-9-18T19:36:10Z</time></trkpt>
<trkpt lat="48.405562" lon="2.67613"><ele></ele><time>2017-9-18T19:36:13Z</time></trkpt>
<trkpt lat="48.405545" lon="2.676388"><ele></ele><time>2017-9-18T19:36:16Z</time></trkpt>
<trkpt lat="48.405512" lon="2.676583"><ele></ele><time>2017-9-18T19:36:19Z</time></trkpt>
<trkpt lat="48.405528" lon="2.676742"><ele></ele><time>2017-9-18T19:36:22Z</time></trkpt>
<trkpt lat="48.405593" lon="2.676878"><ele></ele><time>2017-9-18T19:36:25Z</time></trkpt>
<trkpt lat="48.405698" lon="2.676974"><ele></ele><time>2017-9-18T19:36:28Z</time></trkpt>
<trkpt lat="48.405792" lon="2.677049"><ele></ele><time>2017-9-18T19:36:31Z</time></trkpt>
<trkpt lat="48.40599" lon="2.677219"><ele></ele><time>2017-9-18T19:36:34Z</time></trkpt>
<trkpt lat="48.406087" lon="2.677291"><ele></ele><time>2017-9-18T19:36:37Z</time></trkpt>
<trkpt lat="48.406185" lon="2.677359"><ele></ele><time>2017-9-18T19:36:40Z</time></trkpt>
<trkpt lat="48.406316" lon="2.677472"><ele></ele><time>2017-9-18T19:36:43Z</time></trkpt>
<trkpt lat="48.406413" lon="2.677537"><ele></ele><time>2017-9-18T19:36:46Z</time></trkpt>
<trkpt lat="48.406514" lon="2.677607"><ele></ele><time>2017-9-18T19:36:49Z</time></trkpt>
<trkpt lat="48.406621" lon="2.677686"><ele></ele><time>2017-9-18T19:36:52Z</time></trkpt>
<trkpt lat="48.406706" lon="2.677741"><ele></ele><time>2017-9-18T19:36:55Z</time></trkpt>
<trkpt lat="48.406816" lon="2.677829"><ele></ele><time>2017-9-18T19:36:58Z</time></trkpt>
<trkpt lat="48.40692" lon="2.677916"><ele></ele><time>2017-9-18T19:37:1Z</time></trkpt>
<trkpt lat="48.407012" lon="2.677982"><ele></ele><time>2017-9-18T19:37:4Z</time></trkpt>
<trkpt lat="48.407126" lon="2.67808"><ele></ele><time>2017-9-18T19:37:7Z</time></trkpt>
<trkpt lat="48.407226" lon="2.678144"><ele></ele><time>2017-9-18T19:37:10Z</time></trkpt>
<trkpt lat="48.407325" lon="2.678218"><ele></ele><time>2017-9-18T19:37:13Z</time></trkpt>
<trkpt lat="48.407394" lon="2.678319"><ele></ele><time>2017-9-18T19:37:16Z</time></trkpt>
<trkpt lat="48.407415" lon="2.678469"><ele></ele><time>2017-9-18T19:37:19Z</time></trkpt>
<trkpt lat="48.407466" lon="2.678586"><ele></ele><time>2017-9-18T19:37:22Z</time></trkpt>
<trkpt lat="48.407544" lon="2.678747"><ele></ele><time>2017-9-18T19:37:25Z</time></trkpt>
<trkpt lat="48.407624" lon="2.679012"><ele></ele><time>2017-9-18T19:37:28Z</time></trkpt>
<trkpt lat="48.407686" lon="2.679134"><ele></ele><time>2017-9-18T19:37:31Z</time></trkpt>
<trkpt lat="48.407763" lon="2.679266"><ele></ele><time>2017-9-18T19:37:34Z</time></trkpt>
<trkpt lat="48.407856" lon="2.67941"><ele></ele><time>2017-9-18T19:37:37Z</time></trkpt>
<trkpt lat="48.407929" lon="2.679595"><ele></ele><time>2017-9-18T19:37:40Z</time></trkpt>
<trkpt lat="48.407991" lon="2.679719"><ele></ele><time>2017-9-18T19:37:43Z</time></trkpt>
<trkpt lat="48.408064" lon="2.679847"><ele></ele><time>2017-9-18T19:37:46Z</time></trkpt>
<trkpt lat="48.408125" lon="2.679982"><ele></ele><time>2017-9-18T19:37:49Z</time></trkpt>
<trkpt lat="48.408193" lon="2.680124"><ele></ele><time>2017-9-18T19:37:52Z</time></trkpt>
<trkpt lat="48.408239" lon="2.680261"><ele></ele><time>2017-9-18T19:37:55Z</time></trkpt>
<trkpt lat="48.408306" lon="2.680392"><ele></ele><time>2017-9-18T19:37:58Z</time></trkpt>
<trkpt lat="48.408365" lon="2.6805"><ele></ele><time>2017-9-18T19:38:1Z</time></trkpt>
<trkpt lat="48.408428" lon="2.680599"><ele></ele><time>2017-9-18T19:38:4Z</time></trkpt>
<trkpt lat="48.408533" lon="2.680726"><ele></ele><time>2017-9-18T19:38:7Z</time></trkpt>
<trkpt lat="48.408599" lon="2.680818"><ele></ele><time>2017-9-18T19:38:10Z</time></trkpt>
<trkpt lat="48.408691" lon="2.680984"><ele></ele><time>2017-9-18T19:38:13Z</time></trkpt>
<trkpt lat="48.408777" lon="2.681123"><ele></ele><time>2017-9-18T19:38:16Z</time></trkpt>
<trkpt lat="48.408869" lon="2.681313"><ele></ele><time>2017-9-18T19:38:19Z</time></trkpt>
<trkpt lat="48.408921" lon="2.681495"><ele></ele><time>2017-9-18T19:38:22Z</time></trkpt>
<trkpt lat="48.408938" lon="2.681751"><ele></ele><time>2017-9-18T19:38:25Z</time></trkpt>
<trkpt lat="48.408981" lon="2.681917"><ele></ele><time>2017-9-18T19:38:28Z</time></trkpt>
<trkpt lat="48.40915" lon="2.681819"><ele></ele><time>2017-9-18T19:38:31Z</time></trkpt>
<trkpt lat="48.40922" lon="2.681918"><ele></ele><time>2017-9-18T19:38:34Z</time></trkpt>
<trkpt lat="48.409318" lon="2.681934"><ele></ele><time>2017-9-18T19:38:37Z</time></trkpt>
<trkpt lat="48.409386" lon="2.681835"><ele></ele><time>2017-9-18T19:38:40Z</time></trkpt>
<trkpt lat="48.409449" lon="2.681714"><ele></ele><time>2017-9-18T19:38:43Z</time></trkpt>
<trkpt lat="48.409514" lon="2.681582"><ele></ele><time>2017-9-18T19:38:46Z</time></trkpt>
<trkpt lat="48.409637" lon="2.681361"><ele></ele><time>2017-9-18T19:38:49Z</time></trkpt>
<trkpt lat="48.409711" lon="2.681244"><ele></ele><time>2017-9-18T19:38:52Z</time></trkpt>
<trkpt lat="48.409784" lon="2.681147"><ele></ele><time>2017-9-18T19:38:55Z</time></trkpt>
<trkpt lat="48.409882" lon="2.68107"><ele></ele><time>2017-9-18T19:38:58Z</time></trkpt>
<trkpt lat="48.409968" lon="2.680926"><ele></ele><time>2017-9-18T19:39:1Z</time></trkpt>
<trkpt lat="48.410087" lon="2.680784"><ele></ele><time>2017-9-18T19:39:4Z</time></trkpt>
<trkpt lat="48.410202" lon="2.680735"><ele></ele><time>2017-9-18T19:39:7Z</time></trkpt>
<trkpt lat="48.410258" lon="2.680587"><ele></ele><time>2017-9-18T19:39:10Z</time></trkpt>
<trkpt lat="48.41032" lon="2.680458"><ele></ele><time>2017-9-18T19:39:13Z</time></trkpt>
<trkpt lat="48.410368" lon="2.680343"><ele></ele><time>2017-9-18T19:39:16Z</time></trkpt>
<trkpt lat="48.410446" lon="2.680244"><ele></ele><time>2017-9-18T19:39:19Z</time></trkpt>
<trkpt lat="48.410513" lon="2.680123"><ele></ele><time>2017-9-18T19:39:22Z</time></trkpt>
<trkpt lat="48.410615" lon="2.680096"><ele></ele><time>2017-9-18T19:39:25Z</time></trkpt>
<trkpt lat="48.410705" lon="2.680026"><ele></ele><time>2017-9-18T19:39:28Z</time></trkpt>
<trkpt lat="48.410791" lon="2.679913"><ele></ele><time>2017-9-18T19:39:31Z</time></trkpt>
<trkpt lat="48.410861" lon="2.679772"><ele></ele><time>2017-9-18T19:39:34Z</time></trkpt>
<trkpt lat="48.41094" lon="2.679658"><ele></ele><time>2017-9-18T19:39:37Z</time></trkpt>
<trkpt lat="48.410999" lon="2.679531"><ele></ele><time>2017-9-18T19:39:40Z</time></trkpt>
<trkpt lat="48.411067" lon="2.679399"><ele></ele><time>2017-9-18T19:39:43Z</time></trkpt>
<trkpt lat="48.411209" lon="2.679154"><ele></ele><time>2017-9-18T19:39:46Z</time></trkpt>
<trkpt lat="48.411258" lon="2.678956"><ele></ele><time>2017-9-18T19:39:49Z</time></trkpt>
<trkpt lat="48.41132" lon="2.678833"><ele></ele><time>2017-9-18T19:39:52Z</time></trkpt>
<trkpt lat="48.411373" lon="2.678705"><ele></ele><time>2017-9-18T19:39:55Z</time></trkpt>
<trkpt lat="48.411428" lon="2.67857"><ele></ele><time>2017-9-18T19:39:58Z</time></trkpt>
<trkpt lat="48.411499" lon="2.678469"><ele></ele><time>2017-9-18T19:40:1Z</time></trkpt>
<trkpt lat="48.41158" lon="2.67834"><ele></ele><time>2017-9-18T19:40:4Z</time></trkpt>
<trkpt lat="48.411677" lon="2.678224"><ele></ele><time>2017-9-18T19:40:7Z</time></trkpt>
<trkpt lat="48.411742" lon="2.678085"><ele></ele><time>2017-9-18T19:40:10Z</time></trkpt>
<trkpt lat="48.411823" lon="2.678017"><ele></ele><time>2017-9-18T19:40:13Z</time></trkpt>
<trkpt lat="48.411913" lon="2.677903"><ele></ele><time>2017-9-18T19:40:16Z</time></trkpt>
<trkpt lat="48.411984" lon="2.677803"><ele></ele><time>2017-9-18T19:40:19Z</time></trkpt>
<trkpt lat="48.412054" lon="2.677679"><ele></ele><time>2017-9-18T19:40:22Z</time></trkpt>
<trkpt lat="48.412134" lon="2.677589"><ele></ele><time>2017-9-18T19:40:25Z</time></trkpt>
<trkpt lat="48.412191" lon="2.677451"><ele></ele><time>2017-9-18T19:40:28Z</time></trkpt>
<trkpt lat="48.412284" lon="2.677354"><ele></ele><time>2017-9-18T19:40:31Z</time></trkpt>
<trkpt lat="48.412451" lon="2.677189"><ele></ele><time>2017-9-18T19:40:34Z</time></trkpt>
<trkpt lat="48.412528" lon="2.677116"><ele></ele><time>2017-9-18T19:40:37Z</time></trkpt>
<trkpt lat="48.412591" lon="2.676991"><ele></ele><time>2017-9-18T19:40:40Z</time></trkpt>
<trkpt lat="48.412641" lon="2.676866"><ele></ele><time>2017-9-18T19:40:43Z</time></trkpt>
<trkpt lat="48.412688" lon="2.676732"><ele></ele><time>2017-9-18T19:40:46Z</time></trkpt>
<trkpt lat="48.412741" lon="2.676578"><ele></ele><time>2017-9-18T19:40:49Z</time></trkpt>
<trkpt lat="48.412816" lon="2.676458"><ele></ele><time>2017-9-18T19:40:52Z</time></trkpt>
<trkpt lat="48.412861" lon="2.676292"><ele></ele><time>2017-9-18T19:40:55Z</time></trkpt>
<trkpt lat="48.412951" lon="2.676198"><ele></ele><time>2017-9-18T19:40:58Z</time></trkpt>
<trkpt lat="48.413022" lon="2.676106"><ele></ele><time>2017-9-18T19:41:1Z</time></trkpt>
<trkpt lat="48.413098" lon="2.676023"><ele></ele><time>2017-9-18T19:41:4Z</time></trkpt>
<trkpt lat="48.413176" lon="2.675949"><ele></ele><time>2017-9-18T19:41:7Z</time></trkpt>
<trkpt lat="48.41325" lon="2.67585"><ele></ele><time>2017-9-18T19:41:10Z</time></trkpt>
<trkpt lat="48.413325" lon="2.675761"><ele></ele><time>2017-9-18T19:41:13Z</time></trkpt>
<trkpt lat="48.413373" lon="2.675646"><ele></ele><time>2017-9-18T19:41:16Z</time></trkpt>
<trkpt lat="48.41343" lon="2.675536"><ele></ele><time>2017-9-18T19:41:19Z</time></trkpt>
<trkpt lat="48.413582" lon="2.675341"><ele></ele><time>2017-9-18T19:41:22Z</time></trkpt>
<trkpt lat="48.413666" lon="2.675251"><ele></ele><time>2017-9-18T19:41:25Z</time></trkpt>
<trkpt lat="48.413727" lon="2.675145"><ele></ele><time>2017-9-18T19:41:28Z</time></trkpt>
<trkpt lat="48.413806" lon="2.675042"><ele></ele><time>2017-9-18T19:41:31Z</time></trkpt>
<trkpt lat="48.41388" lon="2.674932"><ele></ele><time>2017-9-18T19:41:34Z</time></trkpt>
<trkpt lat="48.413942" lon="2.674827"><ele></ele><time>2017-9-18T19:41:37Z</time></trkpt>
<trkpt lat="48.414009" lon="2.674719"><ele></ele><time>2017-9-18T19:41:40Z</time></trkpt>
<trkpt lat="48.414083" lon="2.674594"><ele></ele><time>2017-9-18T19:41:43Z</time></trkpt>
<trkpt lat="48.414139" lon="2.674481"><ele></ele><time>2017-9-18T19:41:46Z</time></trkpt>
<trkpt lat="48.414132" lon="2.674333"><ele></ele><time>2017-9-18T19:41:49Z</time></trkpt>
<trkpt lat="48.414207" lon="2.674219"><ele></ele><time>2017-9-18T19:41:52Z</time></trkpt>
<trkpt lat="48.414289" lon="2.674093"><ele></ele><time>2017-9-18T19:41:55Z</time></trkpt>
<trkpt lat="48.414394" lon="2.674079"><ele></ele><time>2017-9-18T19:41:58Z</time></trkpt>
<trkpt lat="48.414469" lon="2.673952"><ele></ele><time>2017-9-18T19:42:1Z</time></trkpt>
<trkpt lat="48.414535" lon="2.673848"><ele></ele><time>2017-9-18T19:42:4Z</time></trkpt>
<trkpt lat="48.414623" lon="2.673772"><ele></ele><time>2017-9-18T19:42:7Z</time></trkpt>
<trkpt lat="48.414788" lon="2.673662"><ele></ele><time>2017-9-18T19:42:10Z</time></trkpt>
<trkpt lat="48.414882" lon="2.673639"><ele></ele><time>2017-9-18T19:42:13Z</time></trkpt>
<trkpt lat="48.414967" lon="2.673591"><ele></ele><time>2017-9-18T19:42:16Z</time></trkpt>
<trkpt lat="48.415159" lon="2.673597"><ele></ele><time>2017-9-18T19:42:19Z</time></trkpt>
<trkpt lat="48.415256" lon="2.673612"><ele></ele><time>2017-9-18T19:42:22Z</time></trkpt>
<trkpt lat="48.415347" lon="2.67363"><ele></ele><time>2017-9-18T19:42:25Z</time></trkpt>
<trkpt lat="48.415443" lon="2.673627"><ele></ele><time>2017-9-18T19:42:28Z</time></trkpt>
<trkpt lat="48.415543" lon="2.673647"><ele></ele><time>2017-9-18T19:42:31Z</time></trkpt>
<trkpt lat="48.415636" lon="2.673606"><ele></ele><time>2017-9-18T19:42:34Z</time></trkpt>
<trkpt lat="48.415729" lon="2.673631"><ele></ele><time>2017-9-18T19:42:37Z</time></trkpt>
<trkpt lat="48.415821" lon="2.673647"><ele></ele><time>2017-9-18T19:42:40Z</time></trkpt>
<trkpt lat="48.416005" lon="2.673687"><ele></ele><time>2017-9-18T19:42:43Z</time></trkpt>
<trkpt lat="48.416096" lon="2.673642"><ele></ele><time>2017-9-18T19:42:46Z</time></trkpt>
<trkpt lat="48.41619" lon="2.673641"><ele></ele><time>2017-9-18T19:42:49Z</time></trkpt>
<trkpt lat="48.416286" lon="2.673649"><ele></ele><time>2017-9-18T19:42:52Z</time></trkpt>
<trkpt lat="48.416381" lon="2.673656"><ele></ele><time>2017-9-18T19:42:55Z</time></trkpt>
<trkpt lat="48.416489" lon="2.67363"><ele></ele><time>2017-9-18T19:42:58Z</time></trkpt>
<trkpt lat="48.416585" lon="2.673622"><ele></ele><time>2017-9-18T19:43:1Z</time></trkpt>
<trkpt lat="48.416688" lon="2.673556"><ele></ele><time>2017-9-18T19:43:4Z</time></trkpt>
<trkpt lat="48.41687" lon="2.673488"><ele></ele><time>2017-9-18T19:43:7Z</time></trkpt>
<trkpt lat="48.416968" lon="2.673445"><ele></ele><time>2017-9-18T19:43:10Z</time></trkpt>
<trkpt lat="48.417064" lon="2.673383"><ele></ele><time>2017-9-18T19:43:13Z</time></trkpt>
<trkpt lat="48.417153" lon="2.67335"><ele></ele><time>2017-9-18T19:43:16Z</time></trkpt>
<trkpt lat="48.417269" lon="2.673309"><ele></ele><time>2017-9-18T19:43:19Z</time></trkpt>
<trkpt lat="48.417364" lon="2.673276"><ele></ele><time>2017-9-18T19:43:22Z</time></trkpt>
<trkpt lat="48.417466" lon="2.67328"><ele></ele><time>2017-9-18T19:43:25Z</time></trkpt>
<trkpt lat="48.417579" lon="2.673276"><ele></ele><time>2017-9-18T19:43:28Z</time></trkpt>
<trkpt lat="48.417699" lon="2.67326"><ele></ele><time>2017-9-18T19:43:31Z</time></trkpt>
<trkpt lat="48.417809" lon="2.673243"><ele></ele><time>2017-9-18T19:43:34Z</time></trkpt>
<trkpt lat="48.417918" lon="2.673241"><ele></ele><time>2017-9-18T19:43:37Z</time></trkpt>
<trkpt lat="48.41801" lon="2.673219"><ele></ele><time>2017-9-18T19:43:40Z</time></trkpt>
<trkpt lat="48.418099" lon="2.673269"><ele></ele><time>2017-9-18T19:43:43Z</time></trkpt>
<trkpt lat="48.418179" lon="2.673344"><ele></ele><time>2017-9-18T19:43:46Z</time></trkpt>
<trkpt lat="48.418067" lon="2.673499"><ele></ele><time>2017-9-18T19:43:49Z</time></trkpt>
<trkpt lat="48.418027" lon="2.673648"><ele></ele><time>2017-9-18T19:43:52Z</time></trkpt>
<trkpt lat="48.417957" lon="2.673832"><ele></ele><time>2017-9-18T19:43:55Z</time></trkpt>
<trkpt lat="48.417873" lon="2.674104"><ele></ele><time>2017-9-18T19:43:58Z</time></trkpt>
<trkpt lat="48.417808" lon="2.674219"><ele></ele><time>2017-9-18T19:44:1Z</time></trkpt>
<trkpt lat="48.417765" lon="2.67436"><ele></ele><time>2017-9-18T19:44:4Z</time></trkpt>
<trkpt lat="48.417857" lon="2.674324"><ele></ele><time>2017-9-18T19:44:7Z</time></trkpt>
<trkpt lat="48.417931" lon="2.674243"><ele></ele><time>2017-9-18T19:44:10Z</time></trkpt>
<trkpt lat="48.417996" lon="2.674138"><ele></ele><time>2017-9-18T19:44:13Z</time></trkpt>
<trkpt lat="48.418065" lon="2.673989"><ele></ele><time>2017-9-18T19:44:16Z</time></trkpt>
<trkpt lat="48.418134" lon="2.673859"><ele></ele><time>2017-9-18T19:44:19Z</time></trkpt>
<trkpt lat="48.418221" lon="2.673759"><ele></ele><time>2017-9-18T19:44:22Z</time></trkpt>
<trkpt lat="48.418311" lon="2.673659"><ele></ele><time>2017-9-18T19:44:25Z</time></trkpt>
<trkpt lat="48.418365" lon="2.67352"><ele></ele><time>2017-9-18T19:44:28Z</time></trkpt>
<trkpt lat="48.418461" lon="2.67345"><ele></ele><time>2017-9-18T19:44:31Z</time></trkpt>
<trkpt lat="48.418554" lon="2.673383"><ele></ele><time>2017-9-18T19:44:34Z</time></trkpt>
<trkpt lat="48.41869" lon="2.673309"><ele></ele><time>2017-9-18T19:44:37Z</time></trkpt>
<trkpt lat="48.418816" lon="2.673286"><ele></ele><time>2017-9-18T19:44:40Z</time></trkpt>
<trkpt lat="48.418896" lon="2.673219"><ele></ele><time>2017-9-18T19:44:43Z</time></trkpt>
<trkpt lat="48.419089" lon="2.673045"><ele></ele><time>2017-9-18T19:44:46Z</time></trkpt>
<trkpt lat="48.419217" lon="2.672966"><ele></ele><time>2017-9-18T19:44:49Z</time></trkpt>
<trkpt lat="48.419318" lon="2.672895"><ele></ele><time>2017-9-18T19:44:52Z</time></trkpt>
<trkpt lat="48.419424" lon="2.672818"><ele></ele><time>2017-9-18T19:44:55Z</time></trkpt>
<trkpt lat="48.419507" lon="2.672759"><ele></ele><time>2017-9-18T19:44:58Z</time></trkpt>
<trkpt lat="48.419588" lon="2.672697"><ele></ele><time>2017-9-18T19:45:1Z</time></trkpt>
<trkpt lat="48.419677" lon="2.672625"><ele></ele><time>2017-9-18T19:45:4Z</time></trkpt>
<trkpt lat="48.419764" lon="2.672563"><ele></ele><time>2017-9-18T19:45:7Z</time></trkpt>
<trkpt lat="48.419851" lon="2.672468"><ele></ele><time>2017-9-18T19:45:10Z</time></trkpt>
<trkpt lat="48.419976" lon="2.672406"><ele></ele><time>2017-9-18T19:45:13Z</time></trkpt>
<trkpt lat="48.42006" lon="2.672324"><ele></ele><time>2017-9-18T19:45:16Z</time></trkpt>
<trkpt lat="48.420156" lon="2.672236"><ele></ele><time>2017-9-18T19:45:19Z</time></trkpt>
<trkpt lat="48.420263" lon="2.672137"><ele></ele><time>2017-9-18T19:45:22Z</time></trkpt>
<trkpt lat="48.420405" lon="2.672091"><ele></ele><time>2017-9-18T19:45:25Z</time></trkpt>
<trkpt lat="48.4205" lon="2.672006"><ele></ele><time>2017-9-18T19:45:28Z</time></trkpt>
<trkpt lat="48.420577" lon="2.67191"><ele></ele><time>2017-9-18T19:45:31Z</time></trkpt>
<trkpt lat="48.420659" lon="2.671843"><ele></ele><time>2017-9-18T19:45:34Z</time></trkpt>
<trkpt lat="48.420756" lon="2.671755"><ele></ele><time>2017-9-18T19:45:37Z</time></trkpt>
<trkpt lat="48.420846" lon="2.671683"><ele></ele><time>2017-9-18T19:45:40Z</time></trkpt>
<trkpt lat="48.42097" lon="2.671601"><ele></ele><time>2017-9-18T19:45:43Z</time></trkpt>
<trkpt lat="48.421054" lon="2.671534"><ele></ele><time>2017-9-18T19:45:46Z</time></trkpt>
<trkpt lat="48.421246" lon="2.671402"><ele></ele><time>2017-9-18T19:45:49Z</time></trkpt>
<trkpt lat="48.421341" lon="2.671261"><ele></ele><time>2017-9-18T19:45:52Z</time></trkpt>
<trkpt lat="48.421444" lon="2.671161"><ele></ele><time>2017-9-18T19:45:55Z</time></trkpt>
<trkpt lat="48.421569" lon="2.671055"><ele></ele><time>2017-9-18T19:45:58Z</time></trkpt>
<trkpt lat="48.421718" lon="2.670924"><ele></ele><time>2017-9-18T19:46:1Z</time></trkpt>
<trkpt lat="48.421801" lon="2.670844"><ele></ele><time>2017-9-18T19:46:4Z</time></trkpt>
<trkpt lat="48.421893" lon="2.670791"><ele></ele><time>2017-9-18T19:46:7Z</time></trkpt>
<trkpt lat="48.42198" lon="2.670715"><ele></ele><time>2017-9-18T19:46:10Z</time></trkpt>
<trkpt lat="48.422088" lon="2.670666"><ele></ele><time>2017-9-18T19:46:13Z</time></trkpt>
<trkpt lat="48.422192" lon="2.67059"><ele></ele><time>2017-9-18T19:46:16Z</time></trkpt>
<trkpt lat="48.422284" lon="2.670504"><ele></ele><time>2017-9-18T19:46:19Z</time></trkpt>
<trkpt lat="48.422373" lon="2.670423"><ele></ele><time>2017-9-18T19:46:22Z</time></trkpt>
<trkpt lat="48.422505" lon="2.670275"><ele></ele><time>2017-9-18T19:46:25Z</time></trkpt>
<trkpt lat="48.422602" lon="2.670192"><ele></ele><time>2017-9-18T19:46:28Z</time></trkpt>
<trkpt lat="48.422715" lon="2.670108"><ele></ele><time>2017-9-18T19:46:31Z</time></trkpt>
<trkpt lat="48.422833" lon="2.670029"><ele></ele><time>2017-9-18T19:46:34Z</time></trkpt>
<trkpt lat="48.422945" lon="2.669943"><ele></ele><time>2017-9-18T19:46:37Z</time></trkpt>
<trkpt lat="48.423071" lon="2.66988"><ele></ele><time>2017-9-18T19:46:40Z</time></trkpt>
<trkpt lat="48.423151" lon="2.669801"><ele></ele><time>2017-9-18T19:46:43Z</time></trkpt>
<trkpt lat="48.42325" lon="2.669733"><ele></ele><time>2017-9-18T19:46:46Z</time></trkpt>
<trkpt lat="48.42344" lon="2.669565"><ele></ele><time>2017-9-18T19:46:49Z</time></trkpt>
<trkpt lat="48.42354" lon="2.669485"><ele></ele><time>2017-9-18T19:46:52Z</time></trkpt>
<trkpt lat="48.423664" lon="2.669368"><ele></ele><time>2017-9-18T19:46:55Z</time></trkpt>
<trkpt lat="48.423775" lon="2.669302"><ele></ele><time>2017-9-18T19:46:58Z</time></trkpt>
<trkpt lat="48.423858" lon="2.669247"><ele></ele><time>2017-9-18T19:47:1Z</time></trkpt>
<trkpt lat="48.423976" lon="2.669188"><ele></ele><time>2017-9-18T19:47:4Z</time></trkpt>
<trkpt lat="48.424088" lon="2.669127"><ele></ele><time>2017-9-18T19:47:7Z</time></trkpt>
<trkpt lat="48.42421" lon="2.669036"><ele></ele><time>2017-9-18T19:47:10Z</time></trkpt>
<trkpt lat="48.424326" lon="2.668975"><ele></ele><time>2017-9-18T19:47:13Z</time></trkpt>
<trkpt lat="48.424434" lon="2.668893"><ele></ele><time>2017-9-18T19:47:16Z</time></trkpt>
<trkpt lat="48.424558" lon="2.668838"><ele></ele><time>2017-9-18T19:47:19Z</time></trkpt>
<trkpt lat="48.424673" lon="2.66876"><ele></ele><time>2017-9-18T19:47:22Z</time></trkpt>
<trkpt lat="48.424775" lon="2.668678"><ele></ele><time>2017-9-18T19:47:25Z</time></trkpt>
<trkpt lat="48.424868" lon="2.668579"><ele></ele><time>2017-9-18T19:47:28Z</time></trkpt>
<trkpt lat="48.425001" lon="2.668528"><ele></ele><time>2017-9-18T19:47:31Z</time></trkpt>
<trkpt lat="48.425079" lon="2.668451"><ele></ele><time>2017-9-18T19:47:34Z</time></trkpt>
<trkpt lat="48.425195" lon="2.668384"><ele></ele><time>2017-9-18T19:47:37Z</time></trkpt>
<trkpt lat="48.425328" lon="2.668317"><ele></ele><time>2017-9-18T19:47:40Z</time></trkpt>
<trkpt lat="48.425435" lon="2.668236"><ele></ele><time>2017-9-18T19:47:43Z</time></trkpt>
<trkpt lat="48.425613" lon="2.668076"><ele></ele><time>2017-9-18T19:47:46Z</time></trkpt>
<trkpt lat="48.425707" lon="2.667956"><ele></ele><time>2017-9-18T19:47:49Z</time></trkpt>
<trkpt lat="48.425812" lon="2.667868"><ele></ele><time>2017-9-18T19:47:52Z</time></trkpt>
<trkpt lat="48.42594" lon="2.667789"><ele></ele><time>2017-9-18T19:47:55Z</time></trkpt>
<trkpt lat="48.426065" lon="2.667686"><ele></ele><time>2017-9-18T19:47:58Z</time></trkpt>
<trkpt lat="48.426151" lon="2.66764"><ele></ele><time>2017-9-18T19:48:1Z</time></trkpt>
<trkpt lat="48.426245" lon="2.667594"><ele></ele><time>2017-9-18T19:48:4Z</time></trkpt>
<trkpt lat="48.426417" lon="2.667476"><ele></ele><time>2017-9-18T19:48:7Z</time></trkpt>
<trkpt lat="48.426533" lon="2.667424"><ele></ele><time>2017-9-18T19:48:10Z</time></trkpt>
<trkpt lat="48.426628" lon="2.667386"><ele></ele><time>2017-9-18T19:48:13Z</time></trkpt>
<trkpt lat="48.426729" lon="2.667344"><ele></ele><time>2017-9-18T19:48:16Z</time></trkpt>
<trkpt lat="48.426855" lon="2.667263"><ele></ele><time>2017-9-18T19:48:19Z</time></trkpt>
<trkpt lat="48.426955" lon="2.667208"><ele></ele><time>2017-9-18T19:48:22Z</time></trkpt>
<trkpt lat="48.427042" lon="2.667141"><ele></ele><time>2017-9-18T19:48:25Z</time></trkpt>
<trkpt lat="48.427147" lon="2.667078"><ele></ele><time>2017-9-18T19:48:28Z</time></trkpt>
<trkpt lat="48.427229" lon="2.667012"><ele></ele><time>2017-9-18T19:48:31Z</time></trkpt>
<trkpt lat="48.427328" lon="2.666968"><ele></ele><time>2017-9-18T19:48:34Z</time></trkpt>
<trkpt lat="48.427412" lon="2.666897"><ele></ele><time>2017-9-18T19:48:37Z</time></trkpt>
<trkpt lat="48.427519" lon="2.666839"><ele></ele><time>2017-9-18T19:48:40Z</time></trkpt>
<trkpt lat="48.427608" lon="2.66679"><ele></ele><time>2017-9-18T19:48:43Z</time></trkpt>
<trkpt lat="48.427696" lon="2.666738"><ele></ele><time>2017-9-18T19:48:46Z</time></trkpt>
<trkpt lat="48.427803" lon="2.66668"><ele></ele><time>2017-9-18T19:48:49Z</time></trkpt>
<trkpt lat="48.427966" lon="2.666591"><ele></ele><time>2017-9-18T19:48:52Z</time></trkpt>
<trkpt lat="48.428075" lon="2.666545"><ele></ele><time>2017-9-18T19:48:55Z</time></trkpt>
<trkpt lat="48.428174" lon="2.666493"><ele></ele><time>2017-9-18T19:48:58Z</time></trkpt>
<trkpt lat="48.428278" lon="2.666454"><ele></ele><time>2017-9-18T19:49:1Z</time></trkpt>
<trkpt lat="48.428473" lon="2.666505"><ele></ele><time>2017-9-18T19:49:4Z</time></trkpt>
<trkpt lat="48.428566" lon="2.666611"><ele></ele><time>2017-9-18T19:49:7Z</time></trkpt>
<trkpt lat="48.428659" lon="2.666737"><ele></ele><time>2017-9-18T19:49:10Z</time></trkpt>
<trkpt lat="48.428687" lon="2.666889"><ele></ele><time>2017-9-18T19:49:13Z</time></trkpt>
<trkpt lat="48.428743" lon="2.667029"><ele></ele><time>2017-9-18T19:49:16Z</time></trkpt>
<trkpt lat="48.428756" lon="2.667165"><ele></ele><time>2017-9-18T19:49:19Z</time></trkpt>
<trkpt lat="48.428798" lon="2.667313"><ele></ele><time>2017-9-18T19:49:22Z</time></trkpt>
<trkpt lat="48.428898" lon="2.6674"><ele></ele><time>2017-9-18T19:49:25Z</time></trkpt>
<trkpt lat="48.428981" lon="2.667499"><ele></ele><time>2017-9-18T19:49:28Z</time></trkpt>
<trkpt lat="48.429053" lon="2.66761"><ele></ele><time>2017-9-18T19:49:31Z</time></trkpt>
<trkpt lat="48.429151" lon="2.66765"><ele></ele><time>2017-9-18T19:49:34Z</time></trkpt>
<trkpt lat="48.429231" lon="2.667783"><ele></ele><time>2017-9-18T19:49:37Z</time></trkpt>
<trkpt lat="48.429338" lon="2.667813"><ele></ele><time>2017-9-18T19:49:40Z</time></trkpt>
<trkpt lat="48.429456" lon="2.667802"><ele></ele><time>2017-9-18T19:49:43Z</time></trkpt>
<trkpt lat="48.429566" lon="2.667825"><ele></ele><time>2017-9-18T19:49:46Z</time></trkpt>
<trkpt lat="48.429688" lon="2.668031"><ele></ele><time>2017-9-18T19:49:49Z</time></trkpt>
<trkpt lat="48.429782" lon="2.668058"><ele></ele><time>2017-9-18T19:49:52Z</time></trkpt>
<trkpt lat="48.429862" lon="2.668123"><ele></ele><time>2017-9-18T19:49:55Z</time></trkpt>
<trkpt lat="48.429916" lon="2.668011"><ele></ele><time>2017-9-18T19:49:58Z</time></trkpt>
<trkpt lat="48.430026" lon="2.667765"><ele></ele><time>2017-9-18T19:50:1Z</time></trkpt>
<trkpt lat="48.43007" lon="2.667644"><ele></ele><time>2017-9-18T19:50:4Z</time></trkpt>
<trkpt lat="48.430054" lon="2.667507"><ele></ele><time>2017-9-18T19:50:7Z</time></trkpt>
<trkpt lat="48.43003" lon="2.667335"><ele></ele><time>2017-9-18T19:50:10Z</time></trkpt>
<trkpt lat="48.429996" lon="2.667189"><ele></ele><time>2017-9-18T19:50:13Z</time></trkpt>
<trkpt lat="48.430033" lon="2.667044"><ele></ele><time>2017-9-18T19:50:16Z</time></trkpt>
<trkpt lat="48.430076" lon="2.666916"><ele></ele><time>2017-9-18T19:50:19Z</time></trkpt>
<trkpt lat="48.43014" lon="2.666808"><ele></ele><time>2017-9-18T19:50:22Z</time></trkpt>
<trkpt lat="48.430226" lon="2.666649"><ele></ele><time>2017-9-18T19:50:25Z</time></trkpt>
<trkpt lat="48.430302" lon="2.666552"><ele></ele><time>2017-9-18T19:50:28Z</time></trkpt>
<trkpt lat="48.430477" lon="2.666342"><ele></ele><time>2017-9-18T19:50:31Z</time></trkpt>
<trkpt lat="48.430539" lon="2.666237"><ele></ele><time>2017-9-18T19:50:34Z</time></trkpt>
<trkpt lat="48.430602" lon="2.666123"><ele></ele><time>2017-9-18T19:50:37Z</time></trkpt>
<trkpt lat="48.430673" lon="2.665998"><ele></ele><time>2017-9-18T19:50:40Z</time></trkpt>
<trkpt lat="48.430736" lon="2.665867"><ele></ele><time>2017-9-18T19:50:43Z</time></trkpt>
<trkpt lat="48.430831" lon="2.665791"><ele></ele><time>2017-9-18T19:50:46Z</time></trkpt>
<trkpt lat="48.430915" lon="2.665693"><ele></ele><time>2017-9-18T19:50:49Z</time></trkpt>
<trkpt lat="48.43107" lon="2.665623"><ele></ele><time>2017-9-18T19:50:52Z</time></trkpt>
<trkpt lat="48.431172" lon="2.665625"><ele></ele><time>2017-9-18T19:50:55Z</time></trkpt>
<trkpt lat="48.431286" lon="2.665629"><ele></ele><time>2017-9-18T19:50:58Z</time></trkpt>
<trkpt lat="48.43141" lon="2.665638"><ele></ele><time>2017-9-18T19:51:1Z</time></trkpt>
<trkpt lat="48.431558" lon="2.665681"><ele></ele><time>2017-9-18T19:51:4Z</time></trkpt>
<trkpt lat="48.431684" lon="2.665692"><ele></ele><time>2017-9-18T19:51:7Z</time></trkpt>
<trkpt lat="48.431902" lon="2.665669"><ele></ele><time>2017-9-18T19:51:10Z</time></trkpt>
<trkpt lat="48.432028" lon="2.665728"><ele></ele><time>2017-9-18T19:51:13Z</time></trkpt>
<trkpt lat="48.43212" lon="2.665716"><ele></ele><time>2017-9-18T19:51:16Z</time></trkpt>
<trkpt lat="48.432243" lon="2.665769"><ele></ele><time>2017-9-18T19:51:19Z</time></trkpt>
<trkpt lat="48.43234" lon="2.665766"><ele></ele><time>2017-9-18T19:51:22Z</time></trkpt>
<trkpt lat="48.432431" lon="2.665782"><ele></ele><time>2017-9-18T19:51:25Z</time></trkpt>
<trkpt lat="48.432549" lon="2.665809"><ele></ele><time>2017-9-18T19:51:28Z</time></trkpt>
<trkpt lat="48.432638" lon="2.665833"><ele></ele><time>2017-9-18T19:51:31Z</time></trkpt>
<trkpt lat="48.432763" lon="2.665824"><ele></ele><time>2017-9-18T19:51:34Z</time></trkpt>
<trkpt lat="48.432872" lon="2.665876"><ele></ele><time>2017-9-18T19:51:37Z</time></trkpt>
<trkpt lat="48.432992" lon="2.665942"><ele></ele><time>2017-9-18T19:51:40Z</time></trkpt>
<trkpt lat="48.433121" lon="2.665976"><ele></ele><time>2017-9-18T19:51:43Z</time></trkpt>
<trkpt lat="48.433211" lon="2.665988"><ele></ele><time>2017-9-18T19:51:46Z</time></trkpt>
<trkpt lat="48.433336" lon="2.665978"><ele></ele><time>2017-9-18T19:51:49Z</time></trkpt>
<trkpt lat="48.433446" lon="2.665989"><ele></ele><time>2017-9-18T19:51:52Z</time></trkpt>
<trkpt lat="48.433539" lon="2.666029"><ele></ele><time>2017-9-18T19:51:55Z</time></trkpt>
<trkpt lat="48.433657" lon="2.666052"><ele></ele><time>2017-9-18T19:51:58Z</time></trkpt>
<trkpt lat="48.433793" lon="2.666094"><ele></ele><time>2017-9-18T19:52:1Z</time></trkpt>
<trkpt lat="48.433891" lon="2.666101"><ele></ele><time>2017-9-18T19:52:4Z</time></trkpt>
<trkpt lat="48.433992" lon="2.666131"><ele></ele><time>2017-9-18T19:52:7Z</time></trkpt>
<trkpt lat="48.434079" lon="2.666191"><ele></ele><time>2017-9-18T19:52:10Z</time></trkpt>
<trkpt lat="48.434182" lon="2.666211"><ele></ele><time>2017-9-18T19:52:13Z</time></trkpt>
<trkpt lat="48.434377" lon="2.666275"><ele></ele><time>2017-9-18T19:52:16Z</time></trkpt>
<trkpt lat="48.43448" lon="2.666292"><ele></ele><time>2017-9-18T19:52:19Z</time></trkpt>
<trkpt lat="48.434579" lon="2.666325"><ele></ele><time>2017-9-18T19:52:22Z</time></trkpt>
<trkpt lat="48.434678" lon="2.666328"><ele></ele><time>2017-9-18T19:52:25Z</time></trkpt>
<trkpt lat="48.434783" lon="2.666347"><ele></ele><time>2017-9-18T19:52:28Z</time></trkpt>
<trkpt lat="48.434892" lon="2.666375"><ele></ele><time>2017-9-18T19:52:31Z</time></trkpt>
<trkpt lat="48.434996" lon="2.666393"><ele></ele><time>2017-9-18T19:52:34Z</time></trkpt>
<trkpt lat="48.435107" lon="2.666398"><ele></ele><time>2017-9-18T19:52:37Z</time></trkpt>
<trkpt lat="48.435221" lon="2.666405"><ele></ele><time>2017-9-18T19:52:40Z</time></trkpt>
<trkpt lat="48.435403" lon="2.666436"><ele></ele><time>2017-9-18T19:52:43Z</time></trkpt>
<trkpt lat="48.435488" lon="2.666504"><ele></ele><time>2017-9-18T19:52:46Z</time></trkpt>
<trkpt lat="48.435562" lon="2.666642"><ele></ele><time>2017-9-18T19:52:49Z</time></trkpt>
<trkpt lat="48.435663" lon="2.666742"><ele></ele><time>2017-9-18T19:52:52Z</time></trkpt>
<trkpt lat="48.435754" lon="2.666799"><ele></ele><time>2017-9-18T19:52:55Z</time></trkpt>
<trkpt lat="48.435857" lon="2.666904"><ele></ele><time>2017-9-18T19:52:58Z</time></trkpt>
<trkpt lat="48.435948" lon="2.666993"><ele></ele><time>2017-9-18T19:53:1Z</time></trkpt>
<trkpt lat="48.436055" lon="2.667004"><ele></ele><time>2017-9-18T19:53:4Z</time></trkpt>
<trkpt lat="48.436185" lon="2.667147"><ele></ele><time>2017-9-18T19:53:7Z</time></trkpt>
<trkpt lat="48.436312" lon="2.667158"><ele></ele><time>2017-9-18T19:53:10Z</time></trkpt>
<trkpt lat="48.436438" lon="2.667189"><ele></ele><time>2017-9-18T19:53:13Z</time></trkpt>
<trkpt lat="48.436552" lon="2.667145"><ele></ele><time>2017-9-18T19:53:16Z</time></trkpt>
<trkpt lat="48.43666" lon="2.667127"><ele></ele><time>2017-9-18T19:53:19Z</time></trkpt>
<trkpt lat="48.436795" lon="2.667105"><ele></ele><time>2017-9-18T19:53:22Z</time></trkpt>
<trkpt lat="48.437015" lon="2.66709"><ele></ele><time>2017-9-18T19:53:25Z</time></trkpt>
<trkpt lat="48.43712" lon="2.667089"><ele></ele><time>2017-9-18T19:53:28Z</time></trkpt>
<trkpt lat="48.437221" lon="2.667108"><ele></ele><time>2017-9-18T19:53:31Z</time></trkpt>
<trkpt lat="48.437376" lon="2.667174"><ele></ele><time>2017-9-18T19:53:34Z</time></trkpt>
<trkpt lat="48.437485" lon="2.667241"><ele></ele><time>2017-9-18T19:53:37Z</time></trkpt>
<trkpt lat="48.437585" lon="2.667275"><ele></ele><time>2017-9-18T19:53:40Z</time></trkpt>
<trkpt lat="48.437706" lon="2.667318"><ele></ele><time>2017-9-18T19:53:43Z</time></trkpt>
<trkpt lat="48.437856" lon="2.667371"><ele></ele><time>2017-9-18T19:53:46Z</time></trkpt>
<trkpt lat="48.437977" lon="2.667439"><ele></ele><time>2017-9-18T19:53:49Z</time></trkpt>
<trkpt lat="48.438068" lon="2.667468"><ele></ele><time>2017-9-18T19:53:52Z</time></trkpt>
<trkpt lat="48.438169" lon="2.667519"><ele></ele><time>2017-9-18T19:53:55Z</time></trkpt>
<trkpt lat="48.438291" lon="2.667638"><ele></ele><time>2017-9-18T19:53:58Z</time></trkpt>
<trkpt lat="48.438401" lon="2.667709"><ele></ele><time>2017-9-18T19:54:1Z</time></trkpt>
<trkpt lat="48.438535" lon="2.667765"><ele></ele><time>2017-9-18T19:54:4Z</time></trkpt>
<trkpt lat="48.438631" lon="2.667806"><ele></ele><time>2017-9-18T19:54:7Z</time></trkpt>
<trkpt lat="48.43873" lon="2.667826"><ele></ele><time>2017-9-18T19:54:10Z</time></trkpt>
<trkpt lat="48.438822" lon="2.66785"><ele></ele><time>2017-9-18T19:54:13Z</time></trkpt>
<trkpt lat="48.438914" lon="2.667884"><ele></ele><time>2017-9-18T19:54:16Z</time></trkpt>
<trkpt lat="48.439048" lon="2.667907"><ele></ele><time>2017-9-18T19:54:19Z</time></trkpt>
<trkpt lat="48.439163" lon="2.667933"><ele></ele><time>2017-9-18T19:54:22Z</time></trkpt>
<trkpt lat="48.439368" lon="2.667907"><ele></ele><time>2017-9-18T19:54:25Z</time></trkpt>
<trkpt lat="48.439464" lon="2.667892"><ele></ele><time>2017-9-18T19:54:28Z</time></trkpt>
<trkpt lat="48.439568" lon="2.66784"><ele></ele><time>2017-9-18T19:54:31Z</time></trkpt>
<trkpt lat="48.439668" lon="2.667861"><ele></ele><time>2017-9-18T19:54:34Z</time></trkpt>
<trkpt lat="48.439757" lon="2.667918"><ele></ele><time>2017-9-18T19:54:37Z</time></trkpt>
<trkpt lat="48.439864" lon="2.667975"><ele></ele><time>2017-9-18T19:54:40Z</time></trkpt>
<trkpt lat="48.439975" lon="2.66803"><ele></ele><time>2017-9-18T19:54:43Z</time></trkpt>
<trkpt lat="48.44008" lon="2.668081"><ele></ele><time>2017-9-18T19:54:46Z</time></trkpt>
<trkpt lat="48.440187" lon="2.668142"><ele></ele><time>2017-9-18T19:54:49Z</time></trkpt>
<trkpt lat="48.440301" lon="2.668195"><ele></ele><time>2017-9-18T19:54:52Z</time></trkpt>
<trkpt lat="48.440419" lon="2.668252"><ele></ele><time>2017-9-18T19:54:55Z</time></trkpt>
<trkpt lat="48.440544" lon="2.668322"><ele></ele><time>2017-9-18T19:54:58Z</time></trkpt>
<trkpt lat="48.440673" lon="2.668375"><ele></ele><time>2017-9-18T19:55:1Z</time></trkpt>
<trkpt lat="48.440767" lon="2.668418"><ele></ele><time>2017-9-18T19:55:4Z</time></trkpt>
<trkpt lat="48.440882" lon="2.668478"><ele></ele><time>2017-9-18T19:55:7Z</time></trkpt>
<trkpt lat="48.44104" lon="2.668572"><ele></ele><time>2017-9-18T19:55:10Z</time></trkpt>
<trkpt lat="48.44115" lon="2.668628"><ele></ele><time>2017-9-18T19:55:13Z</time></trkpt>
<trkpt lat="48.441238" lon="2.668672"><ele></ele><time>2017-9-18T19:55:16Z</time></trkpt>
<trkpt lat="48.441323" lon="2.668744"><ele></ele><time>2017-9-18T19:55:19Z</time></trkpt>
<trkpt lat="48.441436" lon="2.668848"><ele></ele><time>2017-9-18T19:55:22Z</time></trkpt>
<trkpt lat="48.44161" lon="2.668947"><ele></ele><time>2017-9-18T19:55:25Z</time></trkpt>
<trkpt lat="48.441734" lon="2.669017"><ele></ele><time>2017-9-18T19:55:28Z</time></trkpt>
<trkpt lat="48.441841" lon="2.669092"><ele></ele><time>2017-9-18T19:55:31Z</time></trkpt>
<trkpt lat="48.441908" lon="2.669209"><ele></ele><time>2017-9-18T19:55:34Z</time></trkpt>
<trkpt lat="48.442018" lon="2.669273"><ele></ele><time>2017-9-18T19:55:37Z</time></trkpt>
<trkpt lat="48.442108" lon="2.669314"><ele></ele><time>2017-9-18T19:55:40Z</time></trkpt>
<trkpt lat="48.442217" lon="2.669298"><ele></ele><time>2017-9-18T19:55:43Z</time></trkpt>
<trkpt lat="48.442312" lon="2.66936"><ele></ele><time>2017-9-18T19:55:46Z</time></trkpt>
<trkpt lat="48.442414" lon="2.66939"><ele></ele><time>2017-9-18T19:55:49Z</time></trkpt>
<trkpt lat="48.442524" lon="2.669419"><ele></ele><time>2017-9-18T19:55:52Z</time></trkpt>
<trkpt lat="48.442649" lon="2.669423"><ele></ele><time>2017-9-18T19:55:55Z</time></trkpt>
<trkpt lat="48.442745" lon="2.6694"><ele></ele><time>2017-9-18T19:55:58Z</time></trkpt>
<trkpt lat="48.442845" lon="2.669401"><ele></ele><time>2017-9-18T19:56:1Z</time></trkpt>
<trkpt lat="48.442949" lon="2.669339"><ele></ele><time>2017-9-18T19:56:4Z</time></trkpt>
<trkpt lat="48.443038" lon="2.669375"><ele></ele><time>2017-9-18T19:56:7Z</time></trkpt>
<trkpt lat="48.443128" lon="2.669472"><ele></ele><time>2017-9-18T19:56:10Z</time></trkpt>
<trkpt lat="48.443336" lon="2.669543"><ele></ele><time>2017-9-18T19:56:13Z</time></trkpt>
<trkpt lat="48.443449" lon="2.669575"><ele></ele><time>2017-9-18T19:56:16Z</time></trkpt>
<trkpt lat="48.443525" lon="2.669681"><ele></ele><time>2017-9-18T19:56:19Z</time></trkpt>
<trkpt lat="48.443583" lon="2.669788"><ele></ele><time>2017-9-18T19:56:22Z</time></trkpt>
<trkpt lat="48.443679" lon="2.669701"><ele></ele><time>2017-9-18T19:56:25Z</time></trkpt>
<trkpt lat="48.443694" lon="2.669523"><ele></ele><time>2017-9-18T19:56:28Z</time></trkpt>
<trkpt lat="48.443736" lon="2.669403"><ele></ele><time>2017-9-18T19:56:31Z</time></trkpt>
<trkpt lat="48.443814" lon="2.669271"><ele></ele><time>2017-9-18T19:56:34Z</time></trkpt>
<trkpt lat="48.443893" lon="2.669155"><ele></ele><time>2017-9-18T19:56:37Z</time></trkpt>
<trkpt lat="48.444018" lon="2.669021"><ele></ele><time>2017-9-18T19:56:40Z</time></trkpt>
<trkpt lat="48.444084" lon="2.668915"><ele></ele><time>2017-9-18T19:56:43Z</time></trkpt>
<trkpt lat="48.444174" lon="2.668845"><ele></ele><time>2017-9-18T19:56:46Z</time></trkpt>
<trkpt lat="48.444267" lon="2.668727"><ele></ele><time>2017-9-18T19:56:49Z</time></trkpt>
<trkpt lat="48.444379" lon="2.668635"><ele></ele><time>2017-9-18T19:56:52Z</time></trkpt>
<trkpt lat="48.444475" lon="2.668501"><ele></ele><time>2017-9-18T19:56:55Z</time></trkpt>
<trkpt lat="48.444543" lon="2.66841"><ele></ele><time>2017-9-18T19:56:58Z</time></trkpt>
<trkpt lat="48.444618" lon="2.668325"><ele></ele><time>2017-9-18T19:57:1Z</time></trkpt>
<trkpt lat="48.444776" lon="2.668098"><ele></ele><time>2017-9-18T19:57:4Z</time></trkpt>
<trkpt lat="48.444897" lon="2.667944"><ele></ele><time>2017-9-18T19:57:7Z</time></trkpt>
<trkpt lat="48.444979" lon="2.667844"><ele></ele><time>2017-9-18T19:57:10Z</time></trkpt>
<trkpt lat="48.445056" lon="2.667761"><ele></ele><time>2017-9-18T19:57:13Z</time></trkpt>
<trkpt lat="48.44514" lon="2.667671"><ele></ele><time>2017-9-18T19:57:16Z</time></trkpt>
<trkpt lat="48.445216" lon="2.66759"><ele></ele><time>2017-9-18T19:57:19Z</time></trkpt>
<trkpt lat="48.445293" lon="2.667505"><ele></ele><time>2017-9-18T19:57:22Z</time></trkpt>
<trkpt lat="48.445424" lon="2.667388"><ele></ele><time>2017-9-18T19:57:25Z</time></trkpt>
<trkpt lat="48.445515" lon="2.667273"><ele></ele><time>2017-9-18T19:57:28Z</time></trkpt>
<trkpt lat="48.445587" lon="2.667182"><ele></ele><time>2017-9-18T19:57:31Z</time></trkpt>
<trkpt lat="48.445681" lon="2.667067"><ele></ele><time>2017-9-18T19:57:34Z</time></trkpt>
<trkpt lat="48.445771" lon="2.666954"><ele></ele><time>2017-9-18T19:57:37Z</time></trkpt>
<trkpt lat="48.44585" lon="2.666847"><ele></ele><time>2017-9-18T19:57:40Z</time></trkpt>
<trkpt lat="48.445934" lon="2.666752"><ele></ele><time>2017-9-18T19:57:43Z</time></trkpt>
<trkpt lat="48.446009" lon="2.666655"><ele></ele><time>2017-9-18T19:57:46Z</time></trkpt>
<trkpt lat="48.44608" lon="2.666543"><ele></ele><time>2017-9-18T19:57:49Z</time></trkpt>
<trkpt lat="48.446149" lon="2.666436"><ele></ele><time>2017-9-18T19:57:52Z</time></trkpt>
<trkpt lat="48.446231" lon="2.666342"><ele></ele><time>2017-9-18T19:57:55Z</time></trkpt>
<trkpt lat="48.446305" lon="2.666252"><ele></ele><time>2017-9-18T19:57:58Z</time></trkpt>
<trkpt lat="48.446383" lon="2.666157"><ele></ele><time>2017-9-18T19:58:1Z</time></trkpt>
<trkpt lat="48.446461" lon="2.666065"><ele></ele><time>2017-9-18T19:58:4Z</time></trkpt>
<trkpt lat="48.446543" lon="2.665969"><ele></ele><time>2017-9-18T19:58:7Z</time></trkpt>
<trkpt lat="48.446618" lon="2.665878"><ele></ele><time>2017-9-18T19:58:10Z</time></trkpt>
<trkpt lat="48.446723" lon="2.665749"><ele></ele><time>2017-9-18T19:58:13Z</time></trkpt>
<trkpt lat="48.446803" lon="2.665656"><ele></ele><time>2017-9-18T19:58:16Z</time></trkpt>
<trkpt lat="48.44688" lon="2.665572"><ele></ele><time>2017-9-18T19:58:19Z</time></trkpt>
<trkpt lat="48.446976" lon="2.665467"><ele></ele><time>2017-9-18T19:58:22Z</time></trkpt>
<trkpt lat="48.447123" lon="2.665256"><ele></ele><time>2017-9-18T19:58:25Z</time></trkpt>
<trkpt lat="48.447203" lon="2.665158"><ele></ele><time>2017-9-18T19:58:28Z</time></trkpt>
<trkpt lat="48.447273" lon="2.665055"><ele></ele><time>2017-9-18T19:58:31Z</time></trkpt>
<trkpt lat="48.447357" lon="2.664982"><ele></ele><time>2017-9-18T19:58:34Z</time></trkpt>
<trkpt lat="48.447442" lon="2.664895"><ele></ele><time>2017-9-18T19:58:37Z</time></trkpt>
<trkpt lat="48.447549" lon="2.664768"><ele></ele><time>2017-9-18T19:58:40Z</time></trkpt>
<trkpt lat="48.447627" lon="2.664681"><ele></ele><time>2017-9-18T19:58:43Z</time></trkpt>
<trkpt lat="48.447692" lon="2.664584"><ele></ele><time>2017-9-18T19:58:46Z</time></trkpt>
<trkpt lat="48.447771" lon="2.664473"><ele></ele><time>2017-9-18T19:58:49Z</time></trkpt>
<trkpt lat="48.447862" lon="2.664423"><ele></ele><time>2017-9-18T19:58:52Z</time></trkpt>
<trkpt lat="48.44796" lon="2.664396"><ele></ele><time>2017-9-18T19:58:55Z</time></trkpt>
<trkpt lat="48.448083" lon="2.664461"><ele></ele><time>2017-9-18T19:58:58Z</time></trkpt>
<trkpt lat="48.448176" lon="2.664563"><ele></ele><time>2017-9-18T19:59:1Z</time></trkpt>
<trkpt lat="48.448276" lon="2.66465"><ele></ele><time>2017-9-18T19:59:4Z</time></trkpt>
<trkpt lat="48.448404" lon="2.664757"><ele></ele><time>2017-9-18T19:59:7Z</time></trkpt>
<trkpt lat="48.448491" lon="2.664843"><ele></ele><time>2017-9-18T19:59:10Z</time></trkpt>
<trkpt lat="48.448581" lon="2.664943"><ele></ele><time>2017-9-18T19:59:13Z</time></trkpt>
<trkpt lat="48.448684" lon="2.665046"><ele></ele><time>2017-9-18T19:59:16Z</time></trkpt>
<trkpt lat="48.448765" lon="2.665135"><ele></ele><time>2017-9-18T19:59:19Z</time></trkpt>
<trkpt lat="48.448839" lon="2.665214"><ele></ele><time>2017-9-18T19:59:22Z</time></trkpt>
<trkpt lat="48.448915" lon="2.665307"><ele></ele><time>2017-9-18T19:59:25Z</time></trkpt>
<trkpt lat="48.449017" lon="2.665414"><ele></ele><time>2017-9-18T19:59:28Z</time></trkpt>
<trkpt lat="48.449106" lon="2.665495"><ele></ele><time>2017-9-18T19:59:31Z</time></trkpt>
<trkpt lat="48.449194" lon="2.66558"><ele></ele><time>2017-9-18T19:59:34Z</time></trkpt>
<trkpt lat="48.449363" lon="2.665739"><ele></ele><time>2017-9-18T19:59:37Z</time></trkpt>
<trkpt lat="48.449469" lon="2.665836"><ele></ele><time>2017-9-18T19:59:40Z</time></trkpt>
<trkpt lat="48.449553" lon="2.665916"><ele></ele><time>2017-9-18T19:59:43Z</time></trkpt>
<trkpt lat="48.449637" lon="2.666001"><ele></ele><time>2017-9-18T19:59:46Z</time></trkpt>
<trkpt lat="48.449724" lon="2.666077"><ele></ele><time>2017-9-18T19:59:49Z</time></trkpt>
<trkpt lat="48.449863" lon="2.666219"><ele></ele><time>2017-9-18T19:59:52Z</time></trkpt>
<trkpt lat="48.449947" lon="2.666278"><ele></ele><time>2017-9-18T19:59:55Z</time></trkpt>
<trkpt lat="48.450019" lon="2.666193"><ele></ele><time>2017-9-18T19:59:58Z</time></trkpt>
<trkpt lat="48.450067" lon="2.666043"><ele></ele><time>2017-9-18T20:0:1Z</time></trkpt>
<trkpt lat="48.450121" lon="2.665923"><ele></ele><time>2017-9-18T20:0:4Z</time></trkpt>
<trkpt lat="48.450164" lon="2.665791"><ele></ele><time>2017-9-18T20:0:7Z</time></trkpt>
<trkpt lat="48.450217" lon="2.665663"><ele></ele><time>2017-9-18T20:0:10Z</time></trkpt>
<trkpt lat="48.450278" lon="2.665486"><ele></ele><time>2017-9-18T20:0:13Z</time></trkpt>
<trkpt lat="48.450337" lon="2.665313"><ele></ele><time>2017-9-18T20:0:16Z</time></trkpt>
<trkpt lat="48.450409" lon="2.665162"><ele></ele><time>2017-9-18T20:0:19Z</time></trkpt>
<trkpt lat="48.450469" lon="2.664999"><ele></ele><time>2017-9-18T20:0:22Z</time></trkpt>
<trkpt lat="48.450536" lon="2.664825"><ele></ele><time>2017-9-18T20:0:25Z</time></trkpt>
<trkpt lat="48.450626" lon="2.664592"><ele></ele><time>2017-9-18T20:0:28Z</time></trkpt>
<trkpt lat="48.450664" lon="2.664444"><ele></ele><time>2017-9-18T20:0:31Z</time></trkpt>
<trkpt lat="48.450703" lon="2.664309"><ele></ele><time>2017-9-18T20:0:34Z</time></trkpt>
<trkpt lat="48.450738" lon="2.664171"><ele></ele><time>2017-9-18T20:0:37Z</time></trkpt>
<trkpt lat="48.450786" lon="2.663973"><ele></ele><time>2017-9-18T20:0:40Z</time></trkpt>
<trkpt lat="48.450803" lon="2.663833"><ele></ele><time>2017-9-18T20:0:43Z</time></trkpt>
<trkpt lat="48.450918" lon="2.663584"><ele></ele><time>2017-9-18T20:0:46Z</time></trkpt>
<trkpt lat="48.45096" lon="2.66346"><ele></ele><time>2017-9-18T20:0:49Z</time></trkpt>
<trkpt lat="48.450997" lon="2.663302"><ele></ele><time>2017-9-18T20:0:52Z</time></trkpt>
<trkpt lat="48.451037" lon="2.663134"><ele></ele><time>2017-9-18T20:0:55Z</time></trkpt>
<trkpt lat="48.451061" lon="2.662956"><ele></ele><time>2017-9-18T20:0:58Z</time></trkpt>
<trkpt lat="48.4511" lon="2.662824"><ele></ele><time>2017-9-18T20:1:1Z</time></trkpt>
<trkpt lat="48.451139" lon="2.6627"><ele></ele><time>2017-9-18T20:1:4Z</time></trkpt>
<trkpt lat="48.451169" lon="2.662571"><ele></ele><time>2017-9-18T20:1:7Z</time></trkpt>
<trkpt lat="48.451225" lon="2.662375"><ele></ele><time>2017-9-18T20:1:10Z</time></trkpt>
<trkpt lat="48.451255" lon="2.662231"><ele></ele><time>2017-9-18T20:1:13Z</time></trkpt>
<trkpt lat="48.451288" lon="2.662096"><ele></ele><time>2017-9-18T20:1:16Z</time></trkpt>
<trkpt lat="48.451337" lon="2.661911"><ele></ele><time>2017-9-18T20:1:19Z</time></trkpt>
<trkpt lat="48.451381" lon="2.661793"><ele></ele><time>2017-9-18T20:1:22Z</time></trkpt>
<trkpt lat="48.451457" lon="2.661629"><ele></ele><time>2017-9-18T20:1:25Z</time></trkpt>
<trkpt lat="48.451513" lon="2.6615"><ele></ele><time>2017-9-18T20:1:28Z</time></trkpt>
<trkpt lat="48.451556" lon="2.6613"><ele></ele><time>2017-9-18T20:1:31Z</time></trkpt>
<trkpt lat="48.451594" lon="2.661174"><ele></ele><time>2017-9-18T20:1:34Z</time></trkpt>
<trkpt lat="48.45164" lon="2.661042"><ele></ele><time>2017-9-18T20:1:37Z</time></trkpt>
<trkpt lat="48.451692" lon="2.660916"><ele></ele><time>2017-9-18T20:1:40Z</time></trkpt>
<trkpt lat="48.451731" lon="2.660732"><ele></ele><time>2017-9-18T20:1:43Z</time></trkpt>
<trkpt lat="48.451761" lon="2.660597"><ele></ele><time>2017-9-18T20:1:46Z</time></trkpt>
<trkpt lat="48.451806" lon="2.660395"><ele></ele><time>2017-9-18T20:1:49Z</time></trkpt>
<trkpt lat="48.451847" lon="2.660242"><ele></ele><time>2017-9-18T20:1:52Z</time></trkpt>
<trkpt lat="48.45195" lon="2.66001"><ele></ele><time>2017-9-18T20:1:55Z</time></trkpt>
<trkpt lat="48.451992" lon="2.659839"><ele></ele><time>2017-9-18T20:1:58Z</time></trkpt>
<trkpt lat="48.452024" lon="2.659668"><ele></ele><time>2017-9-18T20:2:1Z</time></trkpt>
<trkpt lat="48.452097" lon="2.659453"><ele></ele><time>2017-9-18T20:2:4Z</time></trkpt>
<trkpt lat="48.452209" lon="2.659397"><ele></ele><time>2017-9-18T20:2:7Z</time></trkpt>
<trkpt lat="48.452375" lon="2.65942"><ele></ele><time>2017-9-18T20:2:10Z</time></trkpt>
<trkpt lat="48.452468" lon="2.659446"><ele></ele><time>2017-9-18T20:2:13Z</time></trkpt>
<trkpt lat="48.452559" lon="2.659464"><ele></ele><time>2017-9-18T20:2:16Z</time></trkpt>
<trkpt lat="48.452654" lon="2.659481"><ele></ele><time>2017-9-18T20:2:19Z</time></trkpt>
<trkpt lat="48.452746" lon="2.659498"><ele></ele><time>2017-9-18T20:2:22Z</time></trkpt>
<trkpt lat="48.452842" lon="2.659518"><ele></ele><time>2017-9-18T20:2:25Z</time></trkpt>
<trkpt lat="48.452933" lon="2.659534"><ele></ele><time>2017-9-18T20:2:28Z</time></trkpt>
<trkpt lat="48.453026" lon="2.659556"><ele></ele><time>2017-9-18T20:2:31Z</time></trkpt>
<trkpt lat="48.453143" lon="2.65959"><ele></ele><time>2017-9-18T20:2:34Z</time></trkpt>
<trkpt lat="48.453275" lon="2.659615"><ele></ele><time>2017-9-18T20:2:37Z</time></trkpt>
<trkpt lat="48.453371" lon="2.65963"><ele></ele><time>2017-9-18T20:2:40Z</time></trkpt>
<trkpt lat="48.453473" lon="2.659631"><ele></ele><time>2017-9-18T20:2:43Z</time></trkpt>
<trkpt lat="48.453564" lon="2.659633"><ele></ele><time>2017-9-18T20:2:46Z</time></trkpt>
<trkpt lat="48.453669" lon="2.659655"><ele></ele><time>2017-9-18T20:2:49Z</time></trkpt>
<trkpt lat="48.45381" lon="2.659663"><ele></ele><time>2017-9-18T20:2:52Z</time></trkpt>
<trkpt lat="48.453931" lon="2.659682"><ele></ele><time>2017-9-18T20:2:55Z</time></trkpt>
<trkpt lat="48.454042" lon="2.659698"><ele></ele><time>2017-9-18T20:2:58Z</time></trkpt>
<trkpt lat="48.454149" lon="2.659732"><ele></ele><time>2017-9-18T20:3:1Z</time></trkpt>
<trkpt lat="48.454271" lon="2.659755"><ele></ele><time>2017-9-18T20:3:4Z</time></trkpt>
</trkseg></trk></gpx>